     2              Observation         GPS                 RINEX VERSION / TYPE
teqc 1997Jul24 19970902 21:11:28UTC                         PGM / RUN BY / DATE
                                                            COMMENT
BIT 2 OF LLI FLAGS DATA COLLECTED UNDER A-S CONDITION       COMMENT
BIT 2 OF LLI FLAGS DATA COLLECTED UNDER A-S CONDITION       COMMENT
Original Marker Name: 55491.SAGO                            COMMENT
Campaign Name: Salt. Tr. Crust. Monit. May-Jun 1986         COMMENT
4-Character Station Name: SAGO                              COMMENT
6-Character Antenna Code: TI4100                            COMMENT
Vertical Measurement Point: PAE                             COMMENT
Vertical Offset to Rinex Ref. Point: 0.0000                 COMMENT
Radial Measurement Point: RRP                               COMMENT
Radial Offset to Rinex Ref. Point: 0.0000                   COMMENT
Antenna Height from Field Measurement: 1.1660 m             COMMENT
Revised Rinex header created by UCSD GPS archive for        COMMENT
SCEC DC on 24-Sep-1997 (1997.267) 19:20:17 GMT              COMMENT
For assistance contact dagnew@ucsd.edu or hjohnson@ucsd.edu COMMENT
                                                            COMMENT
SANTIAGO                                                    MARKER NAME
5 NATIONAL GEODETIC SURVEY                                  OBSERVER / AGENCY
UT-18 TI 4100 1.0                                           REC # / TYPE / VERS
4014 TI 4100                                                ANT # / TYPE
 -2452714.0304 -4711619.8150  3518811.9626                  APPROX POSITION XYZ
        1.1660        0.0000        0.0000                  ANTENNA: DELTA H/E/N
     1     1     0                                          WAVELENGTH FACT L1/2
     4    P1    P2    L1    L2                              # / TYPES OF OBSERV
     6                                                      INTERVAL
  1986     6    20     2    22   23.000000                  TIME OF FIRST OBS
  1986     6    20     3    59   53.000000                  TIME OF LAST OBS
     0                                                      # OF SATELLITES
                                                            END OF HEADER
 86  6 20  2 22 23.0800000  0  3G12G13G 9
  21137470.661    21137472.329     6851896.111 8 -16654783.988 6
  20572097.604    20572101.218    29226522.217 7 -43378912.675 7
  20942527.355    20942529.105    62987500.886 7-104518353.987 7
 86  6 20  2 22 29.0800000  0  3G12G13G 9
  21135466.150    21135468.192     6841359.839 8 -16662994.086 6
  20572821.239    20572826.314    29230323.014 8 -43375951.023 5
  20945476.516    20945477.946    63002992.259 7-104506282.793 5
 86  6 20  2 22 35.0800000  0  3G12G13G 9
  21133464.868    21133465.007     6830844.650 9 -16671187.731 7
  20573546.819    20573548.249    29234136.545 8 -43372979.423 7
  20948428.478    20948429.779    63018504.741 7-104494195.159 6
 86  6 20  2 22 41.0800000  0  3G12G13G 9
  21131466.956    21131467.939     6820350.571 8 -16679364.952 5
  20574274.647    20574275.578    29237962.698 8 -43369998.000 6
  20951384.032    20951382.135    63034038.285 8-104482091.105 4
 86  6 20  2 22 47.0800000  0  3G12G13G 9
  21129474.783    21129476.279     6809877.673 7 -16687525.639 5
  20575005.612    20575004.935    29241801.479 7 -43367006.739 4
  20954342.630    20954345.470    63049592.887 8-104469970.628 5
 86  6 20  2 22 53.0800000  0  3G12G13G 9
  21127486.206    21127486.782     6799425.941 9 -16695669.841 8
  20575737.266    20575739.101    29245652.887 7 -43364005.632 6
  20957307.100    20957307.816    63065168.556 7-104457833.744 5
 86  6 20  2 22 59.0800000  0  3G12G13G 9
  21125500.020    21125502.747     6788995.391 9 -16703797.539 6
  20576472.071    20576476.303    29249516.932 7 -43360994.690 6
  20960275.865    20960276.285    63080765.193 7-104445680.547 5
 86  6 20  2 23  5.0800000  0  3G12G13G 9
  21123519.532    21123519.415     6778586.009 7 -16711908.739 6
  20577211.101    20577210.835    29253393.578 7 -43357973.927 6
  20963246.160    20963249.457    63096382.872 8-104433510.937 4
 86  6 20  2 23 11.0800000  0  3G12G13G 9
  21121543.097    21121543.848     6768197.839 8 -16720003.416 7
  20577950.178    20577953.193    29257282.826 7 -43354943.349 5
  20966222.565    20966224.651    63112021.482 8-104421325.001 6
 86  6 20  2 23 17.0800000  0  3G12G13G 9
  21119570.922    21119570.994     6757830.831 8 -16728081.612 5
  20578692.405    20578695.333    29261184.627 8 -43351902.992 6
  20969202.386    20969203.716    63127681.082 8-104409122.731 5
 86  6 20  2 23 23.0800000  0  3G12G13G 9
  21117601.534    21117602.066     6747485.157 9 -16736143.171 5
  20579437.049    20579439.143    29265099.049 8 -43348852.791 5
  20972186.717    20972186.060    63143361.631 8-104396904.128 5
 86  6 20  2 23 29.0800000  0  3G12G13G 9
  21115636.171    21115638.105     6737160.810 9 -16744188.105 5
  20580184.135    20580187.990    29269026.042 8 -43345792.821 6
  20975175.646    20975176.453    63159063.044 8-104384669.259 6
 86  6 20  2 23 35.0800000  0  3G12G13G 9
  21113676.377    21113675.828     6726857.791 9 -16752216.437 6
  20580933.953    20580937.232    29272965.494 9 -43342723.132 5
  20978167.120    20978168.471    63174785.378 8-104372418.098 6
 86  6 20  2 23 41.0800000  0  3G12G13G 9
  21111719.219    21111720.051     6716576.133 8 -16760228.109 5
  20581687.656    20581688.322    29276917.450 8 -43339643.666 6
  20981162.152    20981163.652    63190528.613 8-104360150.654 6
 86  6 20  2 23 47.0800000  0  3G12G13G 9
  21109768.061    21109768.519     6706315.835 8 -16768223.147 4
  20582441.123    20582443.564    29280881.995 8 -43336554.416 6
  20984161.876    20984164.183    63206292.837 8-104347866.845 6
 86  6 20  2 23 53.0800000  0  3G12G13G 9
  21107820.122    21107819.398     6696076.915 8 -16776201.525 6
  20583198.760    20583199.721    29284858.942 8 -43333455.493 6
  20987165.264    20987168.512    63222077.887 7-104335566.820 5
 86  6 20  2 23 59.0800000  0  3G12G13G 9
  21105874.109    21105875.833     6685859.327 8 -16784163.287 6
  20583958.521    20583958.824    29288848.320 8 -43330346.888 8
  20990173.343    20990175.728    63237883.692 8-104323250.610 5
 86  6 20  2 24  5.0800000  0  3G12G13G 9
  21103935.106    21103937.138     6675663.111 9 -16792108.407 5
  20584718.837    20584721.173    29292850.208 8 -43327228.525 7
  20993185.494    20993184.369    63253710.333 7-104310918.163 7
 86  6 20  2 24 11.0800000  0  3G12G13G 9
  21101997.956    21102000.443     6665488.320 8 -16800036.793 5
  20585484.106    20585484.108    29296864.545 7 -43324100.475 6
  20996199.920    20996201.201    63269557.771 8-104298569.520 5
 86  6 20  2 24 17.0800000  0  3G12G13G 9
  21100066.731    21100068.730     6655335.026 9 -16807948.463 6
  20586249.193    20586251.956    29300891.207 7 -43320962.808 7
  20999219.988    20999223.174    63285425.939 8-104286204.715 6
 86  6 20  2 24 23.0800000  0  3G12G13G 9
  21098139.025    21098139.283     6645203.214 9 -16815843.377 5
  20587017.072    20587020.388    29304930.252 7 -43317815.507 6
  21002244.358    21002247.200    63301314.790 7-104273823.812 6
 86  6 20  2 24 29.0800000  0  3G12G13G 9
  21096214.535    21096213.658     6635092.838 9 -16823721.592 7
  20587788.997    20587791.120    29308981.748 7 -43314658.484 7
  21005271.208    21005273.136    63317224.445 7-104261426.683 6
 86  6 20  2 24 35.0800000  0  3G12G13G 9
  21094294.838    21094294.149     6625003.977 9 -16831583.047 7
  20588562.426    20588565.754    29313045.714 8 -43311491.773 8
  21008301.728    21008305.967    63333154.751 8-104249013.471 7
 86  6 20  2 24 41.0800000  0  3G12G13G 9
  21092379.420    21092379.763     6614936.695 8 -16839427.675 6
  20589337.146    20589341.380    29317121.978 8 -43308315.470 6
  21011338.489    21011338.384    63349105.819 7-104236584.070 6
 86  6 20  2 24 47.0800000  0  3G12G13G 9
  21090467.608    21090468.239     6604890.968 8 -16847255.528 7
  20590115.699    20590119.961    29321210.616 9 -43305129.514 6
  21014377.606    21014380.851    63365077.318 8-104224138.758 6
 86  6 20  2 24 53.0800000  0  3G12G13G 9
  21088560.233    21088561.196     6594866.778 9 -16855066.587 7
  20590895.459    20590899.266    29325311.640 8 -43301933.919 6
  21017419.670    21017424.788    63381069.587 7-104211677.249 5
 86  6 20  2 24 59.0800000  0  3G12G13G 9
  21086656.775    21086656.978     6584864.173 8 -16862860.816 5
  20591678.148    20591680.832    29329424.991 8 -43298728.700 5
  21020468.522    21020470.047    63397082.547 8-104199199.614 4
 86  6 20  2 25  5.0800000  0  3G12G13G 9
  21084756.631    21084757.171     6574883.118 8 -16870638.262 8
  20592463.127    20592467.210    29333550.606 6 -43295513.952 7
  21023518.385    21023520.847    63413116.208 7-104186705.841 7
 86  6 20  2 25 11.0800000  0  3G12G13G 9
  21082861.540    21082861.677     6564923.670 8 -16878398.876 7
  20593250.832    20593255.579    29337688.523 7 -43292289.605 7
  21026574.629    21026575.230    63429170.425 8-104174196.079 7
 86  6 20  2 25 17.0800000  0  3G12G13G 9
  21080970.228    21080971.269     6554985.808 9 -16886142.667 7
  20594040.437    20594043.427    29341838.725 8 -43289055.669 7
  21029632.907    21029633.850    63445245.201 8-104161670.277 7
 86  6 20  2 25 23.0800000  0  3G12G13G 9
  21079082.869    21079083.956     6545069.573 9 -16893869.603 6
  20594832.909    20594835.738    29346001.164 8 -43285812.203 7
  21032697.968    21032698.269    63461340.461 7-104149128.530 7
 86  6 20  2 25 29.0800000  0  3G12G13G 9
  21077199.903    21077201.774     6535175.042 8 -16901579.635 7
  20595627.917    20595629.152    29350175.811 8 -43282559.240 8
  21035764.078    21035763.578    63477456.318 8-104136570.717 7
 86  6 20  2 25 35.0800000  0  3G12G13G 9
  21075321.037    21075323.660     6525302.192 8 -16909272.757 8
  20596423.655    20596426.746    29354362.619 8 -43279296.782 8
  21038833.770    21038834.381    63493592.747 9-104123996.884 7
 86  6 20  2 25 41.0800000  0  3G12G13G 9
  21073447.013    21073448.640     6515451.000 8 -16916949.020 7
  20597223.185    20597226.180    29358561.742 8 -43276024.746 9
  21041908.127    21041909.449    63509749.569 8-104111407.172 7
 86  6 20  2 25 47.0800000  0  3G12G13G 9
  21071574.897    21071578.613     6505621.538 8 -16924608.336 7
  20598025.466    20598027.190    29362773.071 8 -43272743.190 7
  21044986.105    21044987.969    63525926.925 7-104098801.444 6
 86  6 20  2 25 53.0800000  0  3G12G13G 9
  21069708.234    21069712.044     6495813.814 9 -16932250.722 6
  20598827.828    20598830.092    29366996.593 8 -43269452.128 7
  21048068.928    21048070.361    63542124.819 8-104086179.704 6
 86  6 20  2 25 59.0800000  0  3G12G13G 9
  21067845.553    21067849.339     6486027.845 8 -16939876.157 7
  20599634.513    20599636.100    29371232.282 8 -43266151.600 7
  21051154.249    21051157.045    63558343.078 7-104073542.111 6
 86  6 20  2 26  5.0800000  0  3G12G13G 9
  21065988.586    21065992.206     6476263.620 9 -16947484.645 6
  20600443.767    20600445.056    29375480.115 7 -43262841.603 6
  21054245.704    21054246.783    63574581.664 7-104060888.647 7
 86  6 20  2 26 11.0800000  0  3G12G13G 9
  21064134.174    21064138.630     6466521.246 8 -16955076.109 8
  20601252.184    20601257.438    29379740.119 8 -43259522.119 7
  21057340.513    21057341.911    63590840.716 8-104048219.270 8
 86  6 20  2 26 17.0800000  0  3G12G13G 9
  21062283.450    21062287.568     6456800.721 8 -16962650.531 6
  20602064.773    20602069.537    29384012.307 7 -43256193.147 6
  21060436.617    21060441.111    63607120.195 8-104035533.977 6
 86  6 20  2 26 23.0800000  0  3G12G13G 9
  21060438.328    21060441.887     6447102.061 8 -16970207.933 6
  20602881.360    20602883.282    29388296.574 8 -43252854.757 5
  21063538.856    21063539.732    63623420.026 8-104022832.805 6
 86  6 20  2 26 29.0800000  0  3G12G13G 9
  21058596.179    21058601.214     6437425.237 8 -16977748.316 8
  20603698.805    20603702.286    29392592.905 8 -43249506.946 6
  21066645.474    21066647.932    63639740.183 8-104010115.807 6
 86  6 20  2 26 35.0800000  0  3G12G13G 9
  21056760.226    21056764.719     6427770.242 8 -16985271.695 6
  20604518.619    20604520.082    29396901.276 8 -43246149.768 5
  21069755.118    21069757.515    63656080.653 8-103997382.977 5
 86  6 20  2 26 41.0800000  0  3G12G13G 9
  21054927.950    21054929.095     6418137.142 8 -16992777.995 6
  20605340.980    20605343.740    29401221.678 8 -43242783.225 5
  21072867.140    21072871.050    63672441.434 8-103984634.315 6
 86  6 20  2 26 47.0800000  0  3G12G13G 9
  21053098.984    21053101.533     6408525.964 8 -17000267.220 6
  20606166.048    20606167.731    29405554.160 7 -43239407.251 7
  21075985.941    21075987.519    63688822.477 7-103971869.877 6
 86  6 20  2 26 53.0800000  0  3G12G13G 9
  21051275.780    21051275.913     6398936.683 8 -17007739.398 7
  20606993.057    20606994.766    29409898.611 7 -43236021.973 6
  21079105.603    21079107.273    63705223.733 8-103959089.691 7
 86  6 20  2 26 59.0800000  0  3G12G13G 9
  21049455.048    21049455.277     6389369.363 9 -17015194.441 6
  20607821.089    20607823.656    29414255.066 8 -43232627.304 6
  21082232.275    21082232.904    63721645.250 8-103946293.697 8
 86  6 20  2 27  5.0800000  0  3G12G13G 9
  21047638.909    21047638.030     6379824.073 9 -17022632.338 5
  20608651.935    20608654.489    29418623.552 8 -43229223.290 5
  21085359.893    21085361.962    63738087.091 7-103933481.881 6
 86  6 20  2 27 11.0800000  0  3G12G13G 9
  21045826.799    21045826.008     6370300.737 8 -17030053.106 7
  20609486.020    20609487.180    29423004.090 7 -43225809.878 8
  21088492.957    21088494.034    63754549.048 8-103920654.383 7
 86  6 20  2 27 17.0800000  0  3G12G13G 9
  21044019.532    21044017.730     6360799.417 8 -17037456.743 6
  20610321.518    20610323.303    29427396.614 7 -43222387.145 7
  21091627.864    21091631.224    63771031.246 8-103907811.128 7
 86  6 20  2 27 23.0800000  0  3G12G13G 9
  21042215.925    21042213.562     6351320.137 9 -17044843.188 6
  20611159.973    20611162.581    29431801.131 8 -43218955.077 8
  21094768.801    21094769.516    63787533.456 7-103894952.249 6
 86  6 20  2 27 29.0800000  0  3G12G13G 9
  21040416.599    21040415.408     6341862.925 8 -17052212.470 4
  20612001.316    20612001.909    29436217.558 8 -43215513.707 6
  21097911.610    21097913.184    63804055.936 8-103882077.623 6
 86  6 20  2 27 35.0800000  0  3G12G13G 9
  21038620.467    21038620.949     6332427.676 8 -17059564.608 5
  20612844.350    20612846.146    29440645.949 7 -43212062.996 5
  21101060.253    21101063.408    63820598.490 8-103869187.304 6
 86  6 20  2 27 41.0800000  0  3G12G13G 9
  21036828.829    21036829.565     6323014.530 8 -17066899.535 6
  20613689.572    20613691.247    29445086.271 8 -43208603.015 5
  21104211.609    21104213.873    63837161.223 7-103856281.298 5
 86  6 20  2 27 47.0800000  0  3G12G13G 9
  21035041.462    21035041.599     6313623.423 9 -17074217.289 7
  20614536.296    20614537.256    29449538.413 8 -43205133.800 7
  21107368.582    21107370.328    63853744.028 8-103843359.632 5
 86  6 20  2 27 53.0800000  0  3G12G13G 9
  21033259.009    21033259.291     6304254.422 8 -17081517.808 6
  20615385.224    20615387.201    29454002.352 8 -43201655.427 5
  21110528.683    21110529.309    63870346.889 8-103830422.344 5
 86  6 20  2 27 59.0800000  0  3G12G13G 9
  21031478.688    21031479.468     6294907.578 8 -17088801.077 6
  20616236.379    20616238.874    29458478.065 8 -43198167.847 6
  21113690.331    21113693.278    63886969.813 7-103817469.426 6
 86  6 20  2 28  5.0800000  0  3G12G13G 9
  21029703.690    21029705.353     6285582.847 9 -17096067.097 7
  20617090.222    20617092.930    29462965.613 7 -43194671.042 7
  21116858.669    21116860.237    63903612.745 8-103804500.916 6
 86  6 20  2 28 11.0800000  0  3G12G13G 9
  21027933.791    21027936.406     6276280.270 9 -17103315.856 5
  20617945.618    20617948.830    29467464.996 8 -43191165.031 6
  21120029.078    21120033.111    63920275.598 8-103791516.882 7
 86  6 20  2 28 17.0800000  0  3G12G13G 9
  21026166.081    21026169.196     6266999.960 8 -17110547.261 7
  20618804.645    20618808.126    29471976.207 8 -43187649.792 7
  21123203.114    21123205.729    63936958.459 8-103778517.266 7
 86  6 20  2 28 23.0800000  0  3G12G13G 9
  21024404.805    21024408.965     6257741.804 8 -17117761.407 7
  20619663.099    20619668.499    29476499.290 8 -43184125.314 6
  21126382.724    21126383.553    63953661.236 8-103765502.111 7
 86  6 20  2 28 29.0800000  0  3G12G13G 9
  21022648.309    21022651.890     6248505.876 8 -17124958.243 7
  20620528.618    20620531.853    29481034.180 8 -43180591.622 7
  21129564.636    21129566.690    63970384.015 8-103752471.385 7
 86  6 20  2 28 35.0800000  0  3G12G13G 9
  21020894.795    21020898.663     6239292.209 8 -17132137.731 5
  20621394.334    20621396.542    29485580.865 8 -43177048.751 6
  21132751.211    21132752.393    63987126.705 8-103739425.133 7
 86  6 20  2 28 41.0800000  0  3G12G13G 9
  21019145.210    21019149.135     6230100.836 8 -17139299.831 6
  20622260.377    20622264.269    29490139.299 8 -43173496.707 6
  21135939.977    21135941.507    64003889.281 9-103726363.396 5
 86  6 20  2 28 47.0800000  0  3G12G13G 9
  21017400.014    21017403.921     6220931.715 8 -17146444.605 6
  20623130.662    20623134.185    29494709.463 8 -43169935.537 7
  21139134.201    21139134.907    64020671.706 7-103713286.185 8
 86  6 20  2 28 53.0800000  0  3G12G13G 9
  21015659.350    21015662.390     6211784.972 8 -17153571.937 6
  20624003.760    20624005.196    29499291.402 8 -43166365.187 6
  21142332.073    21142333.337    64037474.037 8-103700193.457 6
 86  6 20  2 28 59.0800000  0  3G12G13G 9
  21013923.896    21013926.145     6202660.566 8 -17160681.882 5
  20624876.770    20624880.351    29503884.979 7 -43162785.781 7
  21145532.126    21145533.083    64054296.171 8-103687085.301 7
 86  6 20  2 29  5.0800000  0  3G12G13G 9
  21012191.433    21012195.755     6193558.460 8 -17167774.407 5
  20625753.952    20625756.066    29508490.224 7 -43159197.290 6
  21148738.845    21148740.364    64071138.176 8-103673961.676 6
 86  6 20  2 29 11.0800000  0  3G12G13G 9
  21010462.592    21010467.135     6184478.648 8 -17174849.599 7
  20626631.438    20626634.195    29513107.087 7 -43155599.725 6
  21151946.315    21151946.999    64087999.901 8-103660822.679 6
 86  6 20  2 29 17.0800000  0  3G12G13G 9
  21008738.588    21008744.971     6175421.201 8 -17181907.360 6
  20627512.993    20627514.796    29517735.695 8 -43151993.013 7
  21155159.815    21155160.084    64104881.466 8-103647668.225 6
 86  6 20  2 29 23.0800000  0  3G12G13G 9
  21007020.306    21007024.997     6166386.171 7 -17188947.631 6
  20628395.475    20628398.404    29522376.003 7 -43148377.192 7
  21158375.918    21158376.314    64121782.729 7-103634498.408 5
 86  6 20  2 29 29.0800000  0  3G12G13G 9
  21005304.029    21005310.417     6157373.524 8 -17195970.471 8
  20629279.810    20629283.615    29527027.950 8 -43144752.301 8
  21161595.374    21161596.275    64138703.825 8-103621313.148 7
 86  6 20  2 29 35.0800000  0  3G12G13G 9
  21003595.586    21003600.080     6148383.289 8 -17202975.851 6
  20630168.555    20630170.270    29531691.461 8 -43141118.410 6
  21164818.377    21164820.402    64155644.642 8-103608112.549 5
 86  6 20  2 29 41.0800000  0  3G12G13G 9
  21001888.678    21001889.673     6139415.460 7 -17209963.800 1
  20631057.882    20631058.202    29536366.489 7 -43137475.546 1
  21168044.474    21168050.936    64172605.071 7-103594896.658 1
 86  6 20  2 29 47.0800000  0  3G12G13G 9
  21000186.068    21000194.402     6130470.015 7 -17216934.286 1
  20631951.149    20631951.681    29541053.150 6 -43133823.602 3
  21171276.863    21171275.703    64189585.213 7-103581665.389 1
 86  6 20  2 29 53.0800000  0  3G12G13G 9
  20998488.417    20998490.946     6121547.038 7 -17223887.206 1
  20632842.713    20632847.853    29545751.432 6 -43130162.622 2
  21174512.113    21174518.474    64206585.035 6-103568418.759 1
 86  6 20  2 29 59.0800000  0  3G12G13G 9
  20996796.737    20996803.087     6112646.645 7 -17230822.604 2
  20633741.572    20633745.107    29550461.305 6 -43126492.562 1
  21177749.364    21177754.795    64223604.526 7-103555156.802 1
 86  6 20  2 30  5.0800000  0  3G12G13G 9
  20995107.002    20995104.896     6103768.806 7 -17237740.402 1
  20634640.348    20634643.170    29555182.748 6 -43122813.529 3
  21180993.007    21180995.181    64240643.597 7-103541879.633 1
 86  6 20  2 30 11.0800000  0  3G12G13G 9
  20993421.221    20993424.024     6094913.526 7 -17244640.612 3
  20635539.788    20635543.390    29559915.758 7 -43119125.476 4
  21184239.223    21184240.704    64257702.256 8-103528587.176 1
 86  6 20  2 30 17.0800000  0  3G12G13G 9
  20991740.983    20991743.246     6086080.701 8 -17251523.307 2
  20636443.242    20636448.181    29564660.123 6 -43115428.600 3
  21187488.157    21187491.357    64274780.459 7-103515279.485 1
 86  6 20  2 30 23.0800000  0  3G12G13G 9
  20990062.464    20990066.564     6077270.361 8 -17258388.526 1
  20637347.711    20637352.108    29569415.972 6 -43111722.731 4
  21190742.970    21190742.515    64291878.208 7-103501956.554 2
 86  6 20  2 30 29.0800000  0  3G12G13G 9
  20988391.820    20988392.740     6068482.587 7 -17265236.166 1
  20638256.042    20638259.144    29574183.278 6 -43108007.930 4
  21194000.380    21194001.916    64308995.549 6-103488618.364 2
 86  6 20  2 30 35.0800000  0  3G12G13G 9
  20986723.177    20986725.454     6059717.493 8 -17272066.120 1
  20639164.012    20639167.612    29578962.105 6 -43104284.184 1
  21197261.386    21197262.292    64326132.400 6-103475264.999 2
 86  6 20  2 30 41.0800000  0  3G12G13G 9
  20985058.786    20985061.577     6050975.034 7 -17278878.410 3
  20640074.730    20640077.250    29583752.456 6 -43100551.438 2
  21200528.002    21200528.104    64343288.634 7-103461896.452 3
 86  6 20  2 30 47.0800000  0  3G12G13G 9
  20983399.527    20983402.814     6042255.161 7 -17285673.098 1
  20640987.468    20640991.739    29588554.264 6 -43096809.771 3
  21203794.564    21203794.876    64360464.425 7-103448512.777 3
 86  6 20  2 30 53.0800000  0  3G12G13G 9
  20981743.954    20981747.024     6033557.863 6 -17292450.223 1
  20641904.488    20641907.179    29593367.461 6 -43093059.215 3
  21207065.760    21207068.434    64377659.520 6-103435113.963 1
 86  6 20  2 30 59.0800000  0  3G12G13G 9
  20980092.994    20980096.405     6024883.214 6 -17299209.681 2
  20642822.530    20642826.948    29598191.964 7 -43089299.879 3
  21210342.827    21210344.175    64394874.149 8-103421699.995 1
 86  6 20  2 31  5.0800000  0  3G12G13G 9
  20978448.487    20978448.935     6016231.319 7 -17305951.417 2
  20643741.714    20643746.373    29603027.906 7 -43085531.576 2
  21213622.234    21213624.995    64412108.104 7-103408270.939 2
 86  6 20  2 31 11.0800000  0  3G12G13G 9
  20976806.415    20976811.219     6007602.080 7 -17312675.518 1
  20644666.992    20644667.776    29607875.263 7 -43081754.476 1
  21216904.618    21216906.953    64429361.499 7-103394826.742 3
 86  6 20  2 31 17.0800000  0  3G12G13G 9
  20975168.475    20975173.712     5998995.561 6 -17319381.896 1
  20645590.323    20645594.806    29612733.937 7 -43077968.510 1
  21220191.390    21220195.355    64446634.283 7-103381367.439 1
 86  6 20  2 31 23.0800000  0  3G12G13G 9
  20973535.450    20973539.909     5990411.744 7 -17326070.586 1
  20646518.097    20646519.552    29617603.919 8 -43074173.665 2
  21223483.477    21223484.324    64463926.422 6-103367893.062 3
 86  6 20  2 31 29.0800000  0  3G12G13G 9
  20971907.907    20971909.409     5981850.561 7 -17332741.649 2
  20647447.062    20647447.038    29622485.201 6 -43070370.098 2
  21226776.731    21226778.634    64481237.806 6-103354403.697 3
 86  6 20  2 31 35.0800000  0  3G12G13G 9
  20970281.879    20970287.327     5973312.149 8 -17339394.954 1
  20648377.382    20648379.393    29627377.782 7 -43066557.684 1
  21230074.202    21230076.289    64498568.501 7-103340899.260 1
 86  6 20  2 31 41.0800000  0  3G12G13G 9
  20968660.615    20968663.242     5964796.564 8 -17346030.444 6
  20649310.416    20649312.892    29632281.629 8 -43062736.470 6
  21233374.936    21233380.865    64515918.451 8-103327379.789 7
 86  6 20  2 31 47.0800000  0  3G12G13G 9
  20967044.275    20967047.816     5956303.846 8 -17352648.147 7
  20650245.075    20650247.971    29637196.802 8 -43058906.458 7
  21236680.588    21236684.800    64533287.716 8-103313845.297 7
 86  6 20  2 31 53.0800000  0  3G12G13G 9
  20965432.282    20965434.107     5947833.970 8 -17359248.051 7
  20651181.199    20651184.885    29642123.244 7 -43055067.684 7
  21239989.100    21239994.230    64550676.193 8-103300295.842 7
 86  6 20  2 31 59.0800000  0  3G12G13G 9
  20963825.308    20963828.697     5939386.927 7 -17365830.171 6
  20652121.074    20652126.487    29647060.941 8 -43051220.123 7
  21243302.345    21243305.805    64568083.933 8-103286731.366 6
 86  6 20  2 32  5.0800000  0  3G12G13G 9
  20962221.659    20962225.500     5930962.697 8 -17372394.490 5
  20653062.831    20653067.881    29652009.874 7 -43047363.810 7
  21246617.782    21246620.947    64585510.764 7-103273152.020 7
 86  6 20  2 32 11.0800000  0  3G12G13G 9
  20960623.261    20960625.630     5922561.399 8 -17378940.967 6
  20654006.878    20654011.544    29656970.026 8 -43043498.746 7
  21249939.200    21249941.440    64602956.839 9-103259557.676 6
 86  6 20  2 32 17.0800000  0  3G12G13G 9
  20959027.635    20959031.283     5914183.037 7 -17385469.573 6
  20654951.380    20654956.497    29661941.406 7 -43039624.950 7
  21253262.971    21253263.909    64620421.972 8-103245948.489 6
 86  6 20  2 32 23.0800000  0  3G12G13G 9
  20957439.200    20957442.244     5905827.555 8 -17391980.336 4
  20655902.016    20655904.231    29666924.027 7 -43035742.400 6
  21256590.115    21256591.979    64637906.332 8-103232324.334 7
 86  6 20  2 32 29.0800000  0  3G12G13G 9
  20955852.848    20955855.276     5897494.974 8 -17398473.247 6
  20656853.210    20656853.654    29671917.836 7 -43031851.105 6
  21259921.044    21259921.771    64655409.730 8-103218685.322 6
 86  6 20  2 32 35.0800000  0  3G12G13G 9
  20954271.475    20954274.053     5889185.370 7 -17404948.269 7
  20657805.178    20657806.940    29676922.771 7 -43027951.153 7
  21263254.795    21263257.606    64672932.225 9-103205031.442 6
 86  6 20  2 32 41.0800000  0  3G12G13G 9
  20952694.625    20952696.015     5880898.697 8 -17411405.414 7
  20658760.427    20658759.773    29681938.825 7 -43024042.536 6
  21266593.190    21266594.313    64690473.829 8-103191362.682 6
 86  6 20  2 32 47.0800000  0  3G12G13G 9
  20951122.895    20951123.349     5872634.922 8 -17417844.729 7
  20659717.173    20659717.722    29686966.051 7 -43020125.207 7
  21269934.448    21269933.870    64708034.512 8-103177679.040 6
 86  6 20  2 32 53.0800000  0  3G12G13G 9
  20949554.381    20949555.814     5864394.110 8 -17424266.143 7
  20660673.868    20660676.630    29692004.371 8 -43016199.255 6
  21273279.816    21273281.199    64725614.168 9-103163980.611 6
 86  6 20  2 32 59.0800000  0  3G12G13G 9
  20947990.363    20947992.808     5856176.260 9 -17430669.664 8
  20661635.613    20661636.894    29697053.759 7 -43012264.658 8
  21276628.286    21276632.473    64743212.750 8-103150267.435 7
 86  6 20  2 33  5.0800000  0  3G12G13G 9
  20946432.070    20946433.335     5847981.456 8 -17437055.216 7
  20662597.500    20662600.264    29702114.229 8 -43008321.436 7
  21279980.013    21279983.355    64760830.310 9-103136539.491 7
 86  6 20  2 33 11.0800000  0  3G12G13G 9
  20944876.818    20944878.658     5839809.743 7 -17443422.807 6
  20663561.354    20663565.355    29707185.719 7 -43004369.648 6
  21283336.668    21283338.624    64778466.875 9-103122796.721 7
 86  6 20  2 33 17.0800000  0  3G12G13G 9
  20943325.421    20943327.668     5831661.075 7 -17449772.401 6
  20664528.697    20664532.648    29712268.232 7 -43000409.243 7
  21286697.182    21286700.006    64796122.423 7-103109039.153 7
 86  6 20  2 33 23.0800000  0  3G12G13G 9
  20941779.226    20941782.063     5823535.462 8 -17456104.055 6
  20665496.867    20665503.170    29717361.765 7 -42996440.272 7
  21290060.534    21290064.055    64813796.895 7-103095266.828 7
 86  6 20  2 33 29.0800000  0  3G12G13G 9
  20940238.103    20940240.137     5815432.863 8 -17462417.736 7
  20666470.690    20666474.189    29722466.360 7 -42992462.671 8
  21293428.169    21293430.539    64831490.168 8-103081479.868 7
 86  6 20  2 33 35.0800000  0  3G12G13G 9
  20938700.214    20938702.671     5807353.442 8 -17468713.390 7
  20667444.205    20667448.003    29727581.986 8 -42988476.465 8
  21296798.329    21296800.337    64849202.325 8-103067678.198 7
 86  6 20  2 33 41.0800000  0  3G12G13G 9
  20937167.487    20937168.922     5799297.138 9 -17474991.036 7
  20668420.284    20668423.580    29732708.646 8 -42984481.679 8
  21300172.298    21300174.133    64866933.354 8-103053861.823 6
 86  6 20  2 33 47.0800000  0  3G12G13G 9
  20935639.012    20935641.195     5791263.966 7 -17481250.634 5
  20669398.499    20669400.320    29737846.289 9 -42980478.305 7
  21303550.241    21303552.528    64884683.291 8-103040030.713 6
 86  6 20  2 33 53.0800000  0  3G12G13G 9
  20934115.106    20934117.054     5783253.957 8 -17487492.195 7
  20670377.911    20670380.583    29742994.887 9 -42976466.396 8
  21306929.760    21306933.920    64902451.946 8-103026185.015 6
 86  6 20  2 33 59.0800000  0  3G12G13G 9
  20932595.120    20932595.418     5775267.100 8 -17493715.723 6
  20671360.931    20671361.658    29748154.431 9 -42972445.966 8
  21310314.854    21310317.944    64920239.324 8-103012324.731 6
 86  6 20  2 34  5.0800000  0  3G12G13G 9
  20931079.805    20931080.659     5767303.378 8 -17499921.214 7
  20672344.801    20672346.692    29753324.848 9 -42968417.067 8
  21313703.555    21313705.621    64938045.496 7-102998449.787 7
 86  6 20  2 34 11.0800000  0  3G12G13G 9
  20929569.276    20929569.478     5759362.924 8 -17506108.594 7
  20673331.175    20673331.493    29758506.149 9 -42964379.683 8
  21317096.382    21317100.090    64955870.422 7-102984560.244 7
 86  6 20  2 34 17.0800000  0  3G12G13G 9
  20928062.536    20928063.014     5751445.652 8 -17512277.905 6
  20674319.870    20674319.076    29763698.380 9 -42960333.788 6
  21320490.582    21320491.596    64973714.073 7-102970656.106 5
 86  6 20  2 34 23.0800000  0  3G12G13G 9
  20926560.778    20926561.289     5743551.594 9 -17518429.111 8
  20675309.451    20675310.631    29768901.484 8 -42956279.418 8
  21323889.330    21323892.867    64991576.448 7-102956737.380 7
 86  6 20  2 34 29.0800000  0  3G12G13G 9
  20925063.176    20925064.764     5735680.781 9 -17524562.211 6
  20676301.513    20676304.183    29774115.415 8 -42952216.616 6
  21327292.111    21327295.283    65009457.549 8-102942804.072 6
 86  6 20  2 34 35.0800000  0  3G12G13G 9
  20923568.863    20923570.120     5727833.219 8 -17530677.192 8
  20677294.994    20677297.334    29779340.220 9 -42948145.339 7
  21330698.798    21330702.318    65027357.184 7-102928856.295 6
 86  6 20  2 34 41.0800000  0  3G12G13G 9
  20922080.316    20922082.287     5720008.861 9 -17536774.112 7
  20678291.898    20678294.170    29784575.857 8 -42944065.609 6
  21334106.693    21334111.056    65045275.476 7-102914894.009 6
 86  6 20  2 34 47.0800000  0  3G12G13G 9
  20920595.572    20920596.445     5712207.799 8 -17542852.859 7
  20679288.544    20679292.150    29789822.312 7 -42939977.471 7
  21337521.267    21337525.199    65063212.382 7-102900917.217 7
 86  6 20  2 34 53.0800000  0  3G12G13G 9
  20919114.945    20919115.991     5704430.096 9 -17548913.392 7
  20680287.639    20680293.198    29795079.641 8 -42935880.867 8
  21340938.222    21340943.319    65081167.864 7-102886925.936 7
 86  6 20  2 34 59.0800000  0  3G12G13G 9
  20917638.974    20917642.177     5696675.724 9 -17554955.774 7
  20681290.145    20681294.397    29800347.777 7 -42931775.820 8
  21344358.294    21344363.793    65099141.919 7-102872920.178 8
 86  6 20  2 35  5.0800000  0  3G12G13G 9
  20916169.864    20916170.195     5688944.678 9 -17560979.969 7
  20682293.849    20682298.978    29805626.683 7 -42927662.385 7
  21347783.225    21347786.255    65117134.492 8-102858899.994 8
 86  6 20  2 35 11.0800000  0  3G12G13G 9
  20914702.415    20914703.678     5681236.994 8 -17566985.949 7
  20683301.277    20683304.633    29810916.257 8 -42923540.637 8
  21351210.444    21351214.288    65135145.605 7-102844865.364 7
 86  6 20  2 35 17.0800000  0  3G12G13G 9
  20913239.964    20913241.790     5673552.728 8 -17572973.696 7
  20684310.165    20684314.055    29816216.551 7 -42919410.540 8
  21354642.221    21354645.018    65153175.173 8-102830816.348 6
 86  6 20  2 35 23.0800000  0  3G12G13G 9
  20911782.211    20911783.695     5665891.784 8 -17578943.261 7
  20685321.569    20685323.891    29821527.531 7 -42915272.111 8
  21358076.660    21358080.804    65171223.252 7-102816752.919 7
 86  6 20  2 35 29.0800000  0  3G12G13G 9
  20910327.796    20910330.081     5658254.249 9 -17584894.593 9
  20686334.791    20686336.129    29826849.279 8 -42911125.294 8
  21361514.299    21361517.139    65189289.777 8-102802675.098 8
 86  6 20  2 35 35.0800000  0  3G12G13G 9
  20908879.446    20908881.182     5650640.142 8 -17590827.677 7
  20687349.784    20687351.522    29832181.810 9 -42906970.066 8
  21364956.027    21364957.895    65207374.687 8-102788582.971 7
 86  6 20  2 35 41.0800000  0  3G12G13G 9
  20907434.790    20907436.305     5643049.389 8 -17596742.533 7
  20688368.095    20688368.343    29837525.003 9 -42902806.539 8
  21368401.349    21368403.127    65225478.102 9-102774476.413 7
 86  6 20  2 35 47.0800000  0  3G12G13G 9
  20905993.558    20905995.590     5635482.038 7 -17602639.173 7
  20689386.684    20689386.919    29842878.768 8 -42898634.785 7
  21371848.886    21371852.184    65243599.851 7-102760355.568 8
 86  6 20  2 35 53.0800000  0  3G12G13G 9
  20904558.099    20904561.678     5627938.201 8 -17608517.490 6
  20690406.840    20690409.092    29848243.260 8 -42894454.668 6
  21375300.776    21375304.462    65261739.992 9-102746220.400 7
 86  6 20  2 35 59.0800000  0  3G12G13G 9
  20903125.403    20903129.561     5620417.871 8 -17614377.475 7
  20691429.769    20691431.062    29853618.319 8 -42890266.307 7
  21378755.535    21378758.172    65279898.477 8-102732070.945 7
 86  6 20  2 36  5.0800000  0  3G12G13G 9
  20901700.631    20901704.292     5612921.029 8 -17620219.181 6
  20692455.030    20692457.713    29859004.087 7 -42886069.613 6
  21382214.672    21382216.170    65298075.292 7-102717907.209 6
 86  6 20  2 36 11.0800000  0  3G12G13G 9
  20900278.148    20900280.425     5605447.726 8 -17626042.525 6
  20693481.039    20693484.372    29864400.469 8 -42881864.639 6
  21385677.008    21385677.840    65316270.393 8-102703729.192 5
 86  6 20  2 36 17.0800000  0  3G12G13G 9
  20898859.886    20898862.601     5597997.890 7 -17631847.587 7
  20694509.621    20694512.651    29869807.441 8 -42877651.414 6
  21389142.921    21389144.576    65334483.727 9-102689536.994 7
 86  6 20  2 36 23.0800000  0  3G12G13G 9
  20897449.208    20897448.820     5590571.659 8 -17637634.270 5
  20695540.624    20695541.415    29875224.960 8 -42873429.957 5
  21392611.949    21392614.225    65352715.322 7-102675330.555 7
 86  6 20  2 36 29.0800000  0  3G12G13G 9
  20896040.462    20896039.831     5583169.015 8 -17643402.547 5
  20696574.526    20696577.002    29880653.039 8 -42869200.290 6
  21396085.723    21396086.689    65370965.193 8-102661109.894 6
 86  6 20  2 36 35.0800000  0  3G12G13G 9
  20894636.549    20894637.084     5575789.960 8 -17649152.485 5
  20697609.138    20697610.326    29886091.576 8 -42864962.451 5
  21399562.934    21399563.887    65389233.259 8-102646875.042 8
 86  6 20  2 36 41.0800000  0  3G12G13G 9
  20893237.256    20893237.090     5568434.519 8 -17654883.999 5
  20698645.614    20698647.146    29891540.567 8 -42860716.485 6
  21403044.224    21403043.723    65407519.502 8-102632626.039 6
 86  6 20  2 36 47.0800000  0  3G12G13G 9
  20891841.900    20891839.404     5561102.681 9 -17660597.115 6
  20699685.882    20699685.515    29897000.127 9 -42856462.259 5
  21406527.076    21406527.474    65425823.809 8-102618362.938 6
 86  6 20  2 36 53.0800000  0  3G12G13G 9
  20890449.158    20890449.650     5553794.394 8 -17666291.883 6
  20700725.165    20700725.744    29902470.159 8 -42852199.898 7
  21410013.511    21410013.541    65444146.346 8-102604085.633 6
 86  6 20  2 36 59.0800000  0  3G12G13G 9
  20889062.523    20889064.197     5546509.726 8 -17671968.251 6
  20701768.924    20701771.056    29907950.686 8 -42847929.344 7
  21413503.844    21413503.616    65462487.045 8-102589794.191 6
 86  6 20  2 37  5.0800000  0  3G12G13G 9
  20887680.358    20887681.831     5539248.724 8 -17677626.155 6
  20702815.139    20702812.586    29913441.711 8 -42843650.606 7
  21416995.769    21416997.524    65480845.856 8-102575488.632 6
 86  6 20  2 37 11.0800000  0  3G12G13G 9
  20886303.664    20886305.418     5532011.417 7 -17683265.621 5
  20703860.252    20703860.537    29918943.195 8 -42839363.742 7
  21420493.862    21420493.488    65499222.635 8-102561169.072 4
 86  6 20  2 37 17.0800000  0  3G12G13G 9
  20884931.349    20884932.189     5524797.812 8 -17688886.621 5
  20704910.148    20704909.533    29924455.183 8 -42835068.690 6
  21423992.650    21423994.511    65517617.468 7-102546835.442 6
 86  6 20  2 37 23.0800000  0  3G12G13G 9
  20883563.691    20883565.473     5517607.874 8 -17694489.169 6
  20705959.846    20705959.961    29929977.595 8 -42830765.494 6
  21427497.603    21427498.229    65536030.351 8-102532487.745 6
 86  6 20  2 37 29.0800000  0  3G12G13G 9
  20882200.072    20882202.477     5510441.534 8 -17700073.329 6
  20707012.538    20707013.562    29935510.448 8 -42826454.179 6
  21431005.050    21431004.817    65554461.232 8-102518126.036 5
 86  6 20  2 37 35.0800000  0  3G12G13G 9
  20880841.306    20880841.771     5503298.954 8 -17705638.963 7
  20708067.792    20708067.169    29941053.748 8 -42822134.732 6
  21434514.394    21434518.264    65572910.104 8-102503750.302 4
 86  6 20  2 37 41.0800000  0  3G12G13G 9
  20879485.285    20879487.194     5496180.074 8 -17711186.146 6
  20709125.344    20709126.385    29946607.465 8 -42817807.171 7
  21438029.832    21438030.540    65591376.950 7-102489360.552 6
 86  6 20  2 37 47.0800000  0  3G12G13G 9
  20878137.694    20878137.813     5489084.962 7 -17716714.811 7
  20710182.827    20710184.380    29952171.518 8 -42813471.544 7
  21441547.635    21441547.357    65609861.703 8-102474956.849 5
 86  6 20  2 37 53.0800000  0  3G12G13G 9
  20876791.088    20876791.759     5482013.679 9 -17722224.909 7
  20711244.283    20711245.435    29957745.900 7 -42809127.873 7
  21445067.720    21445069.074    65628364.352 8-102460539.195 6
 86  6 20  2 37 59.0800000  0  3G12G13G 9
  20875449.757    20875450.947     5474966.204 8 -17727716.444 6
  20712305.800    20712309.298    29963330.546 7 -42804776.214 7
  21448591.388    21448591.018    65646884.912 7-102446107.613 7
 86  6 20  2 38  5.0800000  0  3G12G13G 9
  20874112.798    20874113.724     5467942.497 7 -17733189.468 6
  20713368.366    20713374.651    29968925.463 7 -42800416.540 7
  21452120.013    21452120.461    65665423.322 8-102431662.117 7
 86  6 20  2 38 11.0800000  0  3G12G13G 9
  20872780.418    20872781.420     5460942.621 9 -17738643.922 7
  20714436.189    20714441.706    29974530.694 8 -42796048.830 8
  21455652.212    21455651.347    65683979.581 7-102417202.697 6
 86  6 20  2 38 17.0800000  0  3G12G13G 9
  20871452.697    20871457.239     5453966.588 8 -17744079.785 7
  20715505.045    20715511.854    29980146.167 7 -42791673.150 6
  21459185.884    21459187.487    65702553.675 8-102402729.401 6
 86  6 20  2 38 23.0800000  0  3G12G13G 9
  20870129.587    20870129.456     5447014.317 8 -17749497.140 5
  20716575.706    20716580.581    29985771.885 8 -42787289.479 6
  21462724.300    21462725.808    65721145.600 8-102388242.184 5
 86  6 20  2 38 29.0800000  0  3G12G13G 9
  20868812.146    20868814.380     5440085.891 8 -17754895.924 6
  20717649.279    20717652.936    29991407.881 7 -42782897.790 7
  21466265.739    21466266.449    65739755.303 9-102373741.134 6
 86  6 20  2 38 35.0800000  0  3G12G13G 9
  20867498.513    20867499.500     5433181.332 8 -17760276.088 5
  20718724.576    20718727.093    29997054.058 8 -42778498.187 8
  21469810.241    21469809.637    65758382.737 8-102359226.250 6
 86  6 20  2 38 41.0800000  0  3G12G13G 9
  20866188.821    20866189.808     5426300.650 8 -17765637.664 6
  20719800.809    20719803.709    30002710.455 8 -42774090.586 7
  21473358.404    21473361.005    65777027.887 7-102344697.558 7
 86  6 20  2 38 47.0800000  0  3G12G13G 9
  20864883.808    20864886.576     5419443.857 8 -17770980.623 6
  20720880.202    20720881.753    30008377.035 8 -42769675.085 8
  21476908.833    21476913.251    65795690.695 8-102330155.127 6
 86  6 20  2 38 53.0800000  0  3G12G13G 9
  20863582.939    20863584.386     5412610.999 8 -17776304.927 5
  20721960.085    20721962.971    30014053.895 7 -42765251.578 7
  21480464.153    21480468.911    65814371.245 8-102315598.886 5
 86  6 20  2 38 59.0800000  0  3G12G13G 9
  20862287.878    20862289.184     5405802.091 8 -17781610.560 5
  20723043.833    20723043.786    30019740.984 8 -42760820.072 8
  21484021.475    21484026.344    65833069.490 8-102301028.810 5
 86  6 20  2 39  5.0800000  0  3G12G13G 9
  20860996.984    20860998.679     5399017.080 8 -17786897.578 7
  20724125.866    20724128.824    30025438.196 8 -42756380.692 6
  21487581.373    21487587.864    65851785.308 7-102286445.064 6
 86  6 20  2 39 11.0800000  0  3G12G13G 9
  20859710.853    20859711.125     5392256.040 9 -17792165.924 7
  20725212.431    20725214.777    30031145.519 9 -42751933.418 7
  21491148.685    21491151.212    65870518.641 8-102271847.660 6
 86  6 20  2 39 17.0800000  0  3G12G13G 9
  20858427.926    20858429.128     5385518.935 8 -17797415.624 7
  20726298.876    20726302.439    30036863.000 8 -42747478.245 7
  21494716.109    21494720.115    65889269.543 8-102257236.569 6
 86  6 20  2 39 23.0800000  0  3G12G13G 9
  20857149.729    20857152.364     5378805.797 9 -17802646.645 7
  20727388.260    20727393.198    30042590.556 9 -42743015.228 5
  21498288.024    21498291.862    65908038.120 7-102242611.709 6
 86  6 20  2 39 29.0800000  0  3G12G13G 9
  20855878.610    20855877.966     5372116.723 9 -17807858.915 6
  20728481.385    20728483.980    30048328.223 9 -42738544.308 6
  21501862.985    21501864.378    65926824.245 8-102227973.166 6
 86  6 20  2 39 35.0800000  0  3G12G13G 9
  20854609.007    20854612.862     5365451.611 8 -17813052.507 6
  20729574.922    20729577.577    30054075.987 8 -42734065.530 6
  21505442.001    21505443.649    65945627.885 8-102213320.996 6
 86  6 20  2 39 41.0800000  0  3G12G13G 9
  20853344.908    20853348.060     5358810.498 8 -17818227.407 7
  20730670.857    20730674.410    30059833.945 9 -42729578.808 6
  21509023.933    21509025.417    65964449.008 9-102198655.179 6
 86  6 20  2 39 47.0800000  0  3G12G13G 9
  20852086.274    20852088.492     5352193.458 8 -17823383.546 7
  20731768.740    20731772.453    30065602.003 9 -42725084.224 7
  21512608.961    21512610.005    65983287.709 8-102183975.678 8
 86  6 20  2 39 53.0800000  0  3G12G13G 9
  20850831.390    20850834.917     5345600.440 7 -17828520.968 6
  20732868.520    20732871.495    30071380.048 8 -42720581.848 6
  21516197.872    21516196.772    66002143.855 8-102169282.600 7
 86  6 20  2 39 59.0800000  0  3G12G13G 9
  20849580.850    20849586.088     5339031.509 8 -17833639.607 8
  20733970.763    20733972.419    30077168.005 9 -42716071.740 7
  21519789.178    21519788.429    66021017.412 7-102154575.943 7
 86  6 20  2 40  5.0800000  0  3G12G13G 9
  20848336.237    20848340.726     5332486.699 7 -17838739.452 7
  20735072.926    20735075.020    30082966.051 8 -42711553.783 8
  21523381.511    21523382.948    66039908.388 8-102139855.693 8
 86  6 20  2 40 11.0800000  0  3G12G13G 9
  20847095.291    20847098.970     5325966.032 7 -17843820.490 7
  20736177.619    20736180.285    30088774.099 8 -42707028.033 7
  21526979.250    21526980.417    66058816.770 8-102125121.926 6
 86  6 20  2 40 17.0800000  0  3G12G13G 9
  20845857.497    20845862.305     5319469.495 8 -17848882.725 7
  20737285.046    20737287.921    30094592.089 9 -42702494.545 8
  21530580.645    21530582.906    66077742.523 8-102110374.592 6
 86  6 20  2 40 23.0800000  0  3G12G13G 9
  20844626.137    20844630.030     5312997.068 8 -17853926.167 8
  20738393.771    20738396.059    30100420.051 8 -42697953.268 9
  21534184.621    21534188.704    66096685.513 7-102095613.810 7
 86  6 20  2 40 29.0800000  0  3G12G13G 9
  20843399.132    20843402.799     5306548.772 9 -17858950.819 6
  20739503.134    20739505.981    30106257.933 8 -42693404.261 6
  21537792.479    21537797.864    66115645.865 7-102080839.532 5
 86  6 20  2 40 35.0800000  0  3G12G13G 9
  20842176.338    20842180.382     5300124.661 8 -17863956.613 6
  20740616.512    20740618.882    30112105.823 9 -42688847.470 6
  21541403.286    21541409.077    66134623.543 8-102066051.719 6
 86  6 20  2 40 41.0800000  0  3G12G13G 9
  20840958.221    20840961.353     5293724.752 8 -17868943.556 7
  20741730.941    20741734.435    30117963.599 8 -42684282.962 7
  21545018.974    21545023.567    66153618.531 7-102051250.442 6
 86  6 20  2 40 47.0800000  0  3G12G13G 9
  20839744.695    20839747.934     5287349.080 8 -17873911.612 7
  20742847.260    20742849.157    30123831.213 9 -42679710.774 7
  21548638.520    21548642.061    66172630.753 7-102036435.740 7
 86  6 20  2 40 53.0800000  0  3G12G13G 9
  20838536.217    20838539.996     5280997.533 8 -17878860.878 7
  20743966.713    20743967.710    30129708.770 9 -42675130.863 5
  21552258.383    21552262.588    66191660.167 8-102021607.609 6
 86  6 20  2 40 59.0800000  0  3G12G13G 9
  20837332.454    20837335.943     5274670.216 7 -17883791.259 8
  20745087.377    20745090.440    30135596.256 8 -42670543.202 7
  21555882.739    21555885.299    66210706.820 8-102006766.068 6
 86  6 20  2 41  5.0800000  0  3G12G13G 9
  20836133.102    20836135.782     5268367.022 7 -17888702.841 7
  20746209.234    20746213.353    30141493.614 8 -42665947.860 8
  21559511.067    21559515.238    66229770.689 8-101991911.118 8
 86  6 20  2 41 11.0800000  0  3G12G13G 9
  20834936.596    20834941.885     5262088.038 7 -17893595.553 7
  20747333.745    20747337.829    30147400.732 7 -42661344.903 7
  21563142.279    21563143.832    66248851.640 7-101977042.833 7
 86  6 20  2 41 17.0800000  0  3G12G13G 9
  20833748.125    20833751.351     5255833.306 7 -17898469.374 6
  20748459.708    20748463.655    30153317.641 8 -42656734.336 7
  21566776.556    21566778.712    66267949.659 7-101962161.284 6
 86  6 20  2 41 23.0800000  0  3G12G13G 9
  20832560.831    20832565.704     5249602.785 7 -17903324.312 7
  20749587.914    20749592.125    30159244.317 8 -42652116.141 7
  21570414.901    21570416.470    66287064.785 7-101947266.374 7
 86  6 20  2 41 29.0800000  0  3G12G13G 9
  20831381.426    20831385.302     5243396.569 7 -17908160.319 8
  20750715.438    20750721.794    30165180.812 7 -42647490.300 8
  21574054.754    21574055.599    66306197.062 7-101932358.122 8
 86  6 20  2 41 35.0800000  0  3G12G13G 9
  20830204.487    20830209.115     5237214.670 8 -17912977.384 8
  20751847.217    20751853.529    30171127.112 7 -42642856.820 8
  21577698.991    21577700.722    66325346.426 8-101917436.540 7
 86  6 20  2 41 41.0800000  0  3G12G13G 9
  20829033.770    20829037.924     5231057.134 7 -17917775.464 6
  20752980.213    20752985.948    30177083.188 7 -42638215.733 6
  21581346.897    21581346.603    66344512.772 7-101902501.753 6
 86  6 20  2 41 47.0800000  0  3G12G13G 9
  20827865.629    20827871.140     5224923.892 8 -17922554.609 8
  20754116.716    20754120.922    30183048.960 8 -42633567.075 8
  21584997.145    21584998.439    66363696.149 7-101887553.666 7
 86  6 20  2 41 53.0800000  0  3G12G13G 9
  20826703.937    20826708.465     5218814.973 8 -17927314.808 8
  20755252.694    20755258.037    30189024.527 7 -42628910.787 7
  21588651.654    21588651.205    66382896.469 9-101872592.395 6
 86  6 20  2 41 59.0800000  0  3G12G13G 9
  20825547.286    20825549.702     5212730.425 7 -17932056.014 8
  20756392.615    20756395.761    30195009.887 8 -42624246.869 8
  21592308.166    21592309.051    66402113.773 8-101857617.890 8
 86  6 20  2 42  5.0800000  0  3G12G13G 9
  20824393.076    20824396.868     5206670.266 7 -17936778.221 7
  20757532.903    20757537.624    30201004.994 8 -42619575.360 8
  21595968.606    21595969.356    66421348.041 8-101842630.151 7
 86  6 20  2 42 11.0800000  0  3G12G13G 9
  20823245.442    20823249.369     5200634.413 7 -17941481.499 8
  20758677.330    20758679.136    30207009.758 8 -42614896.334 7
  21599631.072    21599632.448    66440599.267 8-101827629.214 5
 86  6 20  2 42 17.0800000  0  3G12G13G 9
  20822101.078    20822104.135     5194622.944 7 -17946165.736 8
  20759820.109    20759823.174    30213024.162 7 -42610209.779 8
  21603297.773    21603300.543    66459867.320 8-101812615.144 7
 86  6 20  2 42 23.0800000  0  3G12G13G 9
  20820962.298    20820965.663     5188635.874 7 -17950830.992 8
  20760967.925    20760968.726    30219048.215 6 -42605515.707 7
  21606967.113    21606969.921    66479152.277 9-101797587.918 7
 86  6 20  2 42 29.0800000  0  3G12G13G 9
  20819826.925    20819831.729     5182673.151 7 -17955477.267 8
  20762114.906    20762117.260    30225081.968 7 -42600814.097 7
  21610640.391    21610644.062    66498454.077 8-101782547.563 7
 86  6 20  2 42 35.0800000  0  3G12G13G 9
  20818696.709    20818700.675     5176734.904 8 -17960104.472 7
  20763264.813    20763265.534    30231125.481 8 -42596104.866 6
  21614315.969    21614319.080    66517772.738 7-101767494.055 7
 86  6 20  2 42 41.0800000  0  3G12G13G 9
  20817571.145    20817576.030     5170821.069 7 -17964712.665 6
  20764415.850    20764418.140    30237178.614 8 -42591388.136 7
  21617994.179    21617999.311    66537108.168 8-101752427.478 6
 86  6 20  2 42 47.0800000  0  3G12G13G 9
  20816451.381    20816455.192     5164931.666 7 -17969301.805 6
  20765569.467    20765572.282    30243241.358 7 -42586663.927 7
  21621677.766    21621681.242    66556460.287 8-101737347.900 7
 86  6 20  2 42 53.0800000  0  3G12G13G 9
  20815333.648    20815337.381     5159066.755 7 -17973871.873 6
  20766724.843    20766729.083    30249313.635 8 -42581932.275 7
  21625363.556    21625366.105    66575829.263 8-101722255.201 6
 86  6 20  2 42 59.0800000  0  3G12G13G 9
  20814222.987    20814227.560     5153226.263 7 -17978422.886 7
  20767883.462    20767886.822    30255395.484 8 -42577193.188 7
  21629052.527    21629056.971    66595215.018 8-101707149.412 7
 86  6 20  2 43  5.0800000  0  3G12G13G 9
  20813115.263    20813120.692     5147410.275 6 -17982954.823 6
  20769042.597    20769044.722    30261486.895 7 -42572446.620 7
  21632746.099    21632747.414    66614617.511 8-101692030.599 6
 86  6 20  2 43 11.0800000  0  3G12G13G 9
  20812011.795    20812018.171     5141618.809 7 -17987467.655 7
  20770203.569    20770206.941    30267587.836 8 -42567692.649 8
  21636439.416    21636443.108    66634036.624 8-101676898.819 7
 86  6 20  2 43 17.0800000  0  3G12G13G 9
  20810915.147    20810920.036     5135851.859 7 -17991961.388 8
  20771367.092    20771370.469    30273698.267 8 -42562931.274 8
  21640139.196    21640140.548    66653472.374 9-101661754.096 7
 86  6 20  2 43 23.0800000  0  3G12G13G 9
  20809821.238    20809826.787     5130109.445 7 -17996435.986 6
  20772531.384    20772535.125    30279818.223 9 -42558162.477 7
  21643840.759    21643843.004    66672924.769 8-101646596.386 7
 86  6 20  2 43 29.0800000  0  3G12G13G 9
  20808733.528    20808739.305     5124391.608 7 -18000891.444 8
  20773697.188    20773701.929    30285947.605 8 -42553386.346 8
  21647544.496    21647547.562    66692393.725 8-101631425.791 7
 86  6 20  2 43 35.0800000  0  3G12G13G 9
  20807652.061    20807655.985     5118698.274 7 -18005327.806 7
  20774865.767    20774869.514    30292086.436 9 -42548602.833 7
  21651251.777    21651256.255    66711879.298 8-101616242.235 6
 86  6 20  2 43 41.0800000  0  3G12G13G 9
  20806573.319    20806578.103     5113029.448 8 -18009745.072 9
  20776036.799    20776037.647    30298234.727 8 -42543811.957 8
  21654964.155    21654966.108    66731381.448 9-101601045.752 7
 86  6 20  2 43 47.0800000  0  3G12G13G 9
  20805499.500    20805502.704     5107385.241 7 -18014143.164 8
  20777207.748    20777211.377    30304392.401 9 -42539013.775 8
  21658677.820    21658681.084    66750900.125 8-101585836.409 7
 86  6 20  2 43 53.0800000  0  3G12G13G 9
  20804429.997    20804434.315     5101765.632 7 -18018522.080 7
  20778382.206    20778384.432    30310559.477 7 -42534208.253 8
  21662396.434    21662397.866    66770435.353 7-101570614.154 5
 86  6 20  2 43 59.0800000  0  3G12G13G 9
  20803366.286    20803369.736     5096170.571 9 -18022881.867 7
  20779557.420    20779560.913    30316736.100 8 -42529395.289 8
  21666116.193    21666119.501    66789987.049 7-101555379.076 7
 86  6 20  2 44  5.0800000  0  3G12G13G 9
  20802307.146    20802310.100     5090600.166 7 -18027222.446 7
  20780734.768    20780737.215    30322922.168 8 -42524574.975 7
  21669841.512    21669842.661    66809555.145 8-101540131.202 6
 86  6 20  2 44 11.0800000  0  3G12G13G 9
  20801252.248    20801255.824     5085054.453 8 -18031543.779 7
  20781912.824    20781916.315    30329117.638 8 -42519747.336 7
  21673568.485    21673569.275    66829139.751 8-101524870.466 6
 86  6 20  2 44 17.0800000  0  3G12G13G 9
  20800201.066    20800205.701     5079533.319 7 -18035845.969 6
  20783094.432    20783097.289    30335322.442 8 -42514912.434 6
  21677298.812    21677299.846    66848740.773 7-101509596.956 7
 86  6 20  2 44 23.0800000  0  3G12G13G 9
  20799156.051    20799157.738     5074036.826 7 -18040128.958 7
  20784277.806    20784279.028    30341536.681 7 -42510070.165 7
  21681031.900    21681032.595    66868358.214 8-101494310.640 7
 86  6 20  2 44 29.0800000  0  3G12G13G 9
  20798113.376    20798117.630     5068565.021 7 -18044392.691 5
  20785461.609    20785463.148    30347760.307 8 -42505220.575 7
  21684768.151    21684769.084    66887992.048 8-101479011.557 8
 86  6 20  2 44 35.0800000  0  3G12G13G 9
  20797077.508    20797082.093     5063117.810 8 -18048637.273 5
  20786647.265    20786649.456    30353993.243 8 -42500363.757 5
  21688506.115    21688509.154    66907642.231 8-101463699.739 5
 86  6 20  2 44 41.0800000  0  3G12G13G 9
  20796045.074    20796050.683     5057695.223 9 -18052862.658 6
  20787834.818    20787838.366    30360235.465 7 -42495499.678 4
  21692249.013    21692250.853    66927308.717 8-101448375.196 5
 86  6 20  2 44 47.0800000  0  3G12G13G 9
  20795018.121    20795021.740     5052297.381 8 -18057068.756 6
  20789024.705    20789027.260    30366487.023 8 -42490628.347 6
  21695994.203    21695994.904    66946991.486 8-101433037.984 6
 86  6 20  2 44 53.0800000  0  3G12G13G 9
  20793995.095    20793997.747     5046924.277 8 -18061255.602 6
  20790216.161    20790218.756    30372747.895 8 -42485749.760 6
  21699742.921    21699744.113    66966690.523 7-101417688.096 6
 86  6 20  2 44 59.0800000  0  3G12G13G 9
  20792978.491    20792979.519     5041575.864 9 -18065423.192 8
  20791407.508    20791412.340    30379017.992 8 -42480863.968 7
  21703493.415    21703495.897    66986405.807 8-101402325.537 8
 86  6 20  2 45  5.0800000  0  3G12G13G 9
  20791964.516    20791966.550     5036252.165 8 -18069571.539 6
  20792603.826    20792605.664    30385297.300 7 -42475970.993 5
  21707247.580    21707250.750    67006137.305 8-101386950.350 5
 86  6 20  2 45 11.0800000  0  3G12G13G 9
  20790957.701    20790958.456     5030953.185 8 -18073700.630 6
  20793799.146    20793803.373    30391585.943 7 -42471070.754 6
  21711006.091    21711007.915    67025885.005 7-101371562.548 5
 86  6 20  2 45 17.0800000  0  3G12G13G 9
  20789952.974    20789954.759     5025678.971 8 -18077810.389 7
  20794997.913    20795001.685    30397883.734 7 -42466163.385 7
  21714767.556    21714769.690    67045648.901 8-101356162.120 5
 86  6 20  2 45 23.0800000  0  3G12G13G 9
  20788955.428    20788955.501     5020429.552 8 -18081900.862 6
  20796196.717    20796202.647    30404190.772 7 -42461248.794 6
  21718531.811    21718533.199    67065428.944 8-101340749.085 6
 86  6 20  2 45 29.0800000  0  3G12G13G 9
  20787961.582    20787960.978     5015204.912 8 -18085972.011 7
  20797400.680    20797403.102    30410506.924 8 -42456327.128 6
  21722299.903    21722301.582    67085225.049 7-101325323.575 6
 86  6 20  2 45 35.0800000  0  3G12G13G 9
  20786971.496    20786972.126     5010005.063 8 -18090023.858 7
  20798602.811    20798607.677    30416832.220 7 -42451398.301 6
  21726069.584    21726068.586    67105037.289 8-101309885.469 7
 86  6 20  2 45 41.0800000  0  3G12G13G 9
  20785986.760    20785987.478     5004830.006 9 -18094056.352 6
  20799809.690    20799812.570    30423166.684 7 -42446462.378 6
  21729842.741    21729840.877    67124865.697 7-101294434.749 4
 86  6 20  2 45 47.0800000  0  3G12G13G 9
  20785007.059    20785006.837     4999679.801 8 -18098069.505 7
  20801017.852    20801020.278    30429510.338 8 -42441519.247 6
  21733619.827    21733620.142    67144710.139 7-101278971.561 7
 86  6 20  2 45 53.0800000  0  3G12G13G 9
  20784030.795    20784032.145     4994554.374 8 -18102063.353 5
  20802226.745    20802226.565    30435863.173 8 -42436568.979 6
  21737398.853    21737399.323    67164570.555 8-101263495.905 6
 86  6 20  2 45 59.0800000  0  3G12G13G 9
  20783060.247    20783061.071     4989453.805 8 -18106037.838 6
  20803436.829    20803437.834    30442225.228 8 -42431611.537 7
  21741180.835    21741181.228    67184446.965 8-101248007.815 6
 86  6 20  2 46  5.0800000  0  3G12G13G 9
  20782094.567    20782095.625     4984378.113 9 -18109992.913 7
  20804650.702    20804650.363    30448596.413 8 -42426646.976 6
  21744967.275    21744967.377    67204339.376 7-101232507.248 6
 86  6 20  2 46 11.0800000  0  3G12G13G 9
  20781132.122    20781135.454     4979327.271 7 -18113928.631 7
  20805864.637    20805864.935    30454976.678 8 -42421675.334 7
  21748755.545    21748754.846    67224247.741 7-101216994.248 7
 86  6 20  2 46 17.0800000  0  3G12G13G 9
  20780175.980    20780176.838     4974301.274 8 -18117844.997 6
  20807080.554    20807081.237    30461366.014 8 -42416696.632 6
  21752547.202    21752548.246    67244172.127 8-101201468.764 7
 86  6 20  2 46 23.0800000  0  3G12G13G 9
  20779223.924    20779225.702     4969300.130 7 -18121741.987 7
  20808296.627    20808299.948    30467764.374 8 -42411710.905 8
  21756341.600    21756341.779    67264112.376 8-101185930.897 6
 86  6 20  2 46 29.0800000  0  3G12G13G 9
  20778276.877    20778278.336     4964323.920 8 -18125619.564 7
  20809516.854    20809520.282    30474171.811 7 -42406718.108 8
  21760137.191    21760139.263    67284068.534 8-101170380.650 7
 86  6 20  2 46 35.0800000  0  3G12G13G 9
  20777334.731    20777336.796     4959372.560 8 -18129477.770 8
  20810736.708    20810740.058    30480588.252 8 -42401718.276 8
  21763937.717    21763939.326    67304040.557 8-101154818.046 6
 86  6 20  2 46 41.0800000  0  3G12G13G 9
  20776396.959    20776400.541     4954446.061 7 -18133316.599 6
  20811958.750    20811962.501    30487013.721 9 -42396711.417 7
  21767742.591    21767744.072    67324028.396 8-101139243.084 6
 86  6 20  2 46 47.0800000  0  3G12G13G 9
  20775464.504    20775467.916     4949544.556 8 -18137135.966 8
  20813184.901    20813187.349    30493448.269 8 -42391697.477 8
  21771549.093    21771551.706    67344032.100 8-101123655.802 7
 86  6 20  2 46 53.0800000  0  3G12G13G 9
  20774535.372    20774537.931     4944668.055 8 -18140935.842 8
  20814410.238    20814413.412    30499891.869 8 -42386676.487 7
  21775359.515    21775359.926    67364051.516 8-101108056.248 6
 86  6 20  2 46 59.0800000  0  3G12G13G 9
  20773611.412    20773615.572     4939816.482 8 -18144716.275 8
  20815638.653    20815640.981    30506344.376 9 -42381648.564 9
  21779173.262    21779172.040    67384086.701 8-101092444.433 7
 86  6 20  2 47  5.0800000  0  3G12G13G 9
  20772693.227    20772697.392     4934989.824 8 -18148477.322 8
  20816868.843    20816871.013    30512805.818 8 -42376613.659 8
  21782988.263    21782988.502    67404137.667 8-101076820.311 7
 86  6 20  2 47 11.0800000  0  3G12G13G 9
  20771779.913    20771783.088     4930188.138 7 -18152218.897 6
  20818099.617    20818099.441    30519276.200 9 -42371571.799 8
  21786806.592    21786805.435    67424204.352 8-101061183.932 7
 86  6 20  2 47 17.0800000  0  3G12G13G 9
  20770871.342    20770873.852     4925411.441 7 -18155940.991 8
  20819333.139    20819332.346    30525755.521 8 -42366522.964 7
  21790626.372    21790627.369    67444286.749 8-101045535.336 7
 86  6 20  2 47 23.0800000  0  3G12G13G 9
  20769969.178    20769969.403     4920659.699 7 -18159643.642 7
  20820568.697    20820567.389    30532243.683 8 -42361467.254 8
  21794450.784    21794452.831    67464384.774 8-101029874.535 8
 86  6 20  2 47 29.0800000  0  3G12G13G 9
  20769067.858    20769070.476     4915932.969 8 -18163326.821 6
  20821804.958    20821803.664    30538740.754 8 -42356404.594 8
  21798278.624    21798281.264    67484498.347 8-101014201.637 8
 86  6 20  2 47 35.0800000  0  3G12G13G 9
  20768173.653    20768175.626     4911231.262 8 -18166990.482 7
  20823042.879    20823041.932    30545246.755 8 -42351334.988 7
  21802108.378    21802110.049    67504627.531 8-100998516.558 7
 86  6 20  2 47 41.0800000  0  3G12G13G 9
  20767283.931    20767288.516     4906554.662 8 -18170634.597 6
  20824282.227    20824282.027    30551761.653 8 -42346258.437 7
  21805942.648    21805946.218    67524772.370 8-100982819.296 6
 86  6 20  2 47 47.0800000  0  3G12G13G 9
  20766399.769    20766400.555     4901903.026 8 -18174259.246 8
  20825524.399    20825523.118    30558285.446 8 -42341174.962 7
  21809778.022    21809780.168    67544932.812 8-100967109.877 7
 86  6 20  2 47 53.0800000  0  3G12G13G 9
  20765518.247    20765520.229     4897276.440 7 -18177864.389 6
  20826767.337    20826767.854    30564818.042 8 -42336084.643 6
  21813616.835    21813619.203    67565108.779 8-100951388.340 6
 86  6 20  2 47 59.0800000  0  3G12G13G 9
  20764642.012    20764644.784     4892674.923 8 -18181449.970 7
  20828010.777    20828012.721    30571359.426 8 -42330987.452 8
  21817458.911    21817462.900    67585300.274 8-100935654.707 7
 86  6 20  2 48  5.0800000  0  3G12G13G 9
  20763771.519    20763774.787     4888098.464 8 -18185016.040 6
  20829256.711    20829259.763    30577909.673 8 -42325883.382 8
  21821305.426    21821307.574    67605507.303 8-100919908.967 4
 86  6 20  2 48 11.0800000  0  3G12G13G 9
  20762905.589    20762907.732     4883547.093 9 -18188562.562 7
  20830506.464    20830508.498    30584468.738 8 -42320772.415 9
  21825153.627    21825157.272    67625729.790 8-100904151.197 7
 86  6 20  2 48 17.0800000  0  3G12G13G 9
  20762042.674    20762046.624     4879020.790 7 -18192089.538 7
  20831753.702    20831759.648    30591036.619 7 -42315654.602 7
  21829005.484    21829007.929    67645967.725 8-100888381.380 7
 86  6 20  2 48 23.0800000  0  3G12G13G 9
  20761188.216    20761189.841     4874519.625 8 -18195596.934 8
  20833006.570    20833010.807    30597613.250 8 -42310529.954 9
  21832860.071    21832861.524    67666221.075 8-100872599.567 7
 86  6 20  2 48 29.0800000  0  3G12G13G 9
  20760335.936    20760337.779     4870043.599 7 -18199084.741 7
  20834258.845    20834263.783    30604198.578 7 -42305398.545 9
  21836715.451    21836721.276    67686489.819 8-100856805.748 6
 86  6 20  2 48 35.0800000  0  3G12G13G 9
  20759489.730    20759493.001     4865592.747 7 -18202552.922 6
  20835513.454    20835518.250    30610792.641 7 -42300260.308 6
  21840577.741    21840580.011    67706773.960 8-100840999.929 5
 86  6 20  2 48 41.0800000  0  3G12G13G 9
  20758649.008    20758649.744     4861167.006 8 -18206001.554 8
  20836771.650    20836775.241    30617395.523 7 -42295115.216 7
  21844439.729    21844443.520    67727073.475 8-100825182.125 7
 86  6 20  2 48 47.0800000  0  3G12G13G 9
  20757810.853    20757811.661     4856766.433 8 -18209430.571 7
  20838028.177    20838033.266    30624007.128 7 -42289963.326 7
  21848304.007    21848307.746    67747388.293 8-100809352.396 7
 86  6 20  2 48 53.0800000  0  3G12G13G 9
  20756978.482    20756979.179     4852390.936 8 -18212840.032 7
  20839289.192    20839291.036    30630627.398 8 -42284804.680 8
  21852173.189    21852175.142    67767718.390 8-100793510.770 6
 86  6 20  2 48 59.0800000  0  3G12G13G 9
  20756151.190    20756150.161     4848040.587 8 -18216229.932 6
  20840549.448    20840553.612    30637256.314 8 -42279639.312 7
  21856046.518    21856047.538    67788063.756 8-100777657.260 5
 86  6 20  2 49  5.0800000  0  3G12G13G 9
  20755329.192    20755327.341     4843715.439 8 -18219600.162 5
  20841813.317    20841818.369    30643893.942 7 -42274467.133 6
  21859921.766    21859920.754    67808424.419 8-100761791.802 6
 86  6 20  2 49 11.0800000  0  3G12G13G 9
  20754509.338    20754509.007     4839415.456 8 -18222950.794 5
  20843077.199    20843081.109    30650540.224 7 -42269288.230 6
  21863797.726    21863798.463    67828800.243 9-100745914.540 6
 86  6 20  2 49 17.0800000  0  3G12G13G 9
  20753696.055    20753693.151     4835140.697 8 -18226281.788 5
  20844345.497    20844348.016    30657195.017 8 -42264102.678 6
  21867677.809    21867679.757    67849191.271 8-100730025.450 5
 86  6 20  2 49 23.0800000  0  3G12G13G 9
  20752886.025    20752888.565     4830891.138 8 -18229593.110 6
  20845612.302    20845615.676    30663858.457 7 -42258910.379 7
  21871560.921    21871562.068    67869597.445 8-100714124.529 6
 86  6 20  2 49 29.0800000  0  3G12G13G 9
  20752082.176    20752082.709     4826666.858 9 -18232884.788 5
  20846880.709    20846884.527    30670530.457 8 -42253711.413 6
  21875448.702    21875449.073    67890018.773 9-100698211.815 5
 86  6 20  2 49 35.0800000  0  3G12G13G 9
  20751283.018    20751283.738     4822467.774 9 -18236156.796 3
  20848153.238    20848156.419    30677211.010 8 -42248505.785 5
  21879336.852    21879339.311    67910455.221 9-100682287.314 4
 86  6 20  2 49 41.0800000  0  3G12G13G 9
  20750489.149    20750489.694     4818293.899 8 -18239409.156 6
  20849426.441    20849429.225    30683900.093 7 -42243293.498 8
  21883228.555    21883229.717    67930906.730 8-100666351.081 7
 86  6 20  2 49 47.0800000  0  3G12G13G 9
  20749699.790    20749699.384     4814145.260 7 -18242641.869 7
  20850700.246    20850703.175    30690597.762 8 -42238074.532 8
  21887124.949    21887124.162    67951373.366 8-100650403.063 8
 86  6 20  2 49 53.0800000  0  3G12G13G 9
  20748913.887    20748915.764     4810021.813 7 -18245854.952 7
  20851975.301    20851979.280    30697304.021 8 -42232848.878 8
  21891020.362    21891024.061    67971855.084 8-100634443.277 6
 86  6 20  2 49 59.0800000  0  3G12G13G 9
  20748135.563    20748135.551     4805923.627 7 -18249048.360 6
  20853253.995    20853256.566    30704018.886 8 -42227616.512 8
  21894920.595    21894924.458    67992351.821 8-100618471.817 6
 86  6 20  2 50  5.0800000  0  3G12G13G 9
  20747358.629    20747360.114     4801850.756 8 -18252222.024 6
  20854533.433    20854536.771    30710742.251 8 -42222377.519 6
  21898824.574    21898826.494    68012863.533 9-100602488.658 7
 86  6 20  2 50 11.0800000  0  3G12G13G 9
  20746589.588    20746590.419     4797803.231 8 -18255375.954 6
  20855813.991    20855818.410    30717474.196 8 -42217131.852 6
  21902730.209    21902731.820    68033390.281 9-100586493.796 5
 86  6 20  2 50 17.0800000  0  3G12G13G 9
  20745822.001    20745825.519     4793781.007 7 -18258510.154 6
  20857098.727    20857101.201    30724214.619 9 -42211879.568 7
  21906638.967    21906643.646    68053931.982 8-100570487.278 7
 86  6 20  2 50 23.0800000  0  3G12G13G 9
  20745061.842    20745067.022     4789784.012 7 -18261624.680 7
  20858383.959    20858382.229    30730963.512 9 -42206620.688 6
  21910549.117    21910555.693    68074488.616 8-100554469.147 7
 86  6 20  2 50 29.0800000  0  3G12G13G 9
  20744307.810    20744310.850     4785812.316 8 -18264719.518 6
  20859669.431    20859671.232    30737720.876 9 -42201355.201 6
  21914464.632    21914467.907    68095060.098 9-100538439.396 7
 86  6 20  2 50 35.0800000  0  3G12G13G 9
  20743555.381    20743558.363     4781865.857 6 -18267794.675 7
  20860957.434    20860957.446    30744486.711 8 -42196083.118 8
  21918382.324    21918387.648    68115646.472 8-100522398.076 7
 86  6 20  2 50 41.0800000  0  3G12G13G 9
  20742809.445    20742811.784     4777944.704 8 -18270850.095 7
  20862246.124    20862245.674    30751260.967 9 -42190804.472 7
  21922302.981    21922306.808    68136247.723 8-100506345.153 7
 86  6 20  2 50 47.0800000  0  3G12G13G 9
  20742068.060    20742071.937     4774048.977 7 -18273885.748 6
  20863536.776    20863536.566    30758043.663 8 -42185519.248 6
  21926226.855    21926229.274    68156863.751 8-100490280.704 7
 86  6 20  2 50 53.0800000  0  3G12G13G 9
  20741332.414    20741333.733     4770178.621 8 -18276901.606 6
  20864828.843    20864829.221    30764834.717 8 -42180227.504 7
  21930152.118    21930155.793    68177494.599 8-100474204.711 7
 86  6 20  2 50 59.0800000  0  3G12G13G 9
  20740600.822    20740602.165     4766333.592 8 -18279897.709 6
  20866123.551    20866122.243    30771634.216 9 -42174929.202 6
  21934080.340    21934083.121    68198140.252 8-100458117.197 5
 86  6 20  2 51  5.0800000  0  3G12G13G 9
  20739873.147    20739874.807     4762514.007 8 -18282874.035 5
  20867417.622    20867417.725    30778442.116 8 -42169624.331 6
  21938013.821    21938014.316    68218800.777 7-100442018.090 7
 86  6 20  2 51 11.0800000  0  3G12G13G 9
  20739151.743    20739150.007     4758719.736 8 -18285830.639 5
  20868714.652    20868715.048    30785258.382 8 -42164312.948 6
  21941946.963    21941946.476    68239475.994 7-100425907.541 6
 86  6 20  2 51 17.0800000  0  3G12G13G 9
  20738434.472    20738435.909     4754950.828 9 -18288767.439 3
  20870013.812    20870013.756    30792082.987 7 -42158995.082 4
  21945883.710    21945887.044    68260165.749 8-100409785.651 3
 86  6 20  2 51 23.0800000  0  3G12G13G 9
  20737722.978    20737722.773     4751207.332 6 -18291684.434 2
  20871313.937    20871314.617    30798915.962 8 -42153670.683 7
  21949823.086    21949823.162    68280870.176 7-100393652.340 5
 86  6 20  2 51 29.0800000  0  3G12G13G 9
  20737015.125    20737014.181     4747489.270 8 -18294581.630 4
  20872614.654    20872616.364    30805757.291 8 -42148339.781 7
  21953766.732    21953766.642    68301589.278 7-100377507.597 5
 86  6 20  2 51 35.0800000  0  3G12G13G 9
  20736311.454    20736308.605     4743796.637 9 -18297459.030 4
  20873918.312    20873922.102    30812606.900 8 -42143002.415 7
  21957712.031    21957711.278    68322323.089 8-100361351.399 5
 86  6 20  2 51 41.0800000  0  3G12G13G 9
  20735613.735    20735617.654     4740129.457 8 -18300316.551 5
  20875223.993    20875224.594    30819464.724 8 -42137658.671 6
  21961659.673    21961662.148    68343071.577 8-100345183.749 4
 86  6 20  2 51 47.0800000  0  3G12G13G 9
  20734919.778    20734921.388     4736487.775 7 -18303154.231 2
  20876531.665    20876533.374    30826330.863 7 -42132308.461 5
  21965609.935    21965610.598    68363834.586 7-100329004.809 3
 86  6 20  2 51 53.0800000  0  3G12G13G 9
  20734232.048    20734234.276     4732871.568 8 -18305972.053 4
  20877838.777    20877841.226    30833205.228 9 -42126951.793 6
  21969563.304    21969566.390    68384612.126 7-100312814.528 3
 86  6 20  2 51 59.0800000  0  3G12G13G 9
  20733549.616    20733551.066     4729280.796 8 -18308770.044 5
  20879148.837    20879150.521    30840087.814 8 -42121588.741 6
  21973520.206    21973524.910    68405404.152 7-100296612.945 4
 86  6 20  2 52  5.0800000  0  3G12G13G 9
  20732870.195    20732874.048     4725715.433 7 -18311548.256 2
  20880460.590    20880464.964    30846978.669 8 -42116219.251 6
  21977479.263    21977482.367    68426210.633 7-100280400.122 4
 86  6 20  2 52 11.0800000  0  3G12G13G 9
  20732198.043    20732199.854     4722175.449 8 -18314306.666 5
  20881772.779    20881773.580    30853877.646 7 -42110843.417 5
  21981441.430    21981444.855    68447031.539 7-100264176.048 6
 86  6 20  2 52 17.0800000  0  3G12G13G 9
  20731528.544    20731533.001     4718660.905 7 -18317045.263 3
  20883087.270    20883090.092    30860784.771 8 -42105461.247 6
  21985406.726    21985408.580    68467866.890 7-100247940.706 4
 86  6 20  2 52 23.0800000  0  3G12G13G 9
  20730865.995    20730869.189     4715171.839 7 -18319764.008 5
  20884401.514    20884402.629    30867700.168 2 -42100072.623 3
  21989374.066    21989377.126    68488716.721 8-100231694.093 5
 86  6 20  2 52 29.0800000  0  4G12G13G 9G 7
  20730204.390    20730207.787     4711708.257 8 -18322462.926 6
  20885719.471    20885722.483    30874623.758 2 -42094677.625 3
  21993344.249    21993348.120    68509580.964 7-100215436.229 5
                  24882549.567   -10763598.798 9
 86  6 20  2 52 35.0800000  0  4G12G13G 9G 7
  20729552.648    20729551.599     4708270.172 7 -18325141.938 6
  20887039.207    20887042.215    30881555.525 3 -42089276.247 1
  21997318.619    21997319.931    68530459.551 8-100199167.221 5
                  24878789.489   -10783387.535 9
 86  6 20  2 52 41.0800000  0  4G12G13G 9G 7
  20728901.087    20728904.175     4704857.648 8 -18327801.038 5
  20888360.261    20888360.688    30888495.473 2 -42083868.475 2
  22001295.049    22001295.910    68551352.393 8-100182887.103 6
                  24875054.246   -10803166.452 8
 86  6 20  2 52 47.0800000  0  4G12G13G 9G 7
  20728257.144    20728261.919     4701470.612 7 -18330440.299 3
  20889679.920    20889682.519    30895443.585 1 -42078454.395 1
  22005272.804    22005273.495    68572259.642 8-100166595.717 5
  24871295.434    24871383.188   -10822926.321 7  13858171.106 2
 86  6 20  2 52 53.0800000  0  4G12G13G 9G 7
  20727617.629    20727619.818     4698109.159 8 -18333059.609 6
  20891003.540    20891004.067    30902399.716 3 -42073034.012 1
  22009256.094    22009255.358    68593181.198 8-100150293.237 5
  24867538.171    24867541.854   -10842663.488 8  13842791.239 6
 86  6 20  2 52 59.0800000  0  4G12G13G 9G 7
  20726982.918    20726985.830     4694773.286 7 -18335659.011 6
  20892329.051    20892329.944    30909364.010 2 -42067607.282 1
  22013237.787    22013240.507    68614117.008 8-100133979.610 5
  24863787.212    24863791.089   -10862378.369 8  13827429.018 5
 86  6 20  2 53  5.0800000  0  4G12G13G 9G 7
  20726352.457    20726356.366     4691462.937 7 -18338238.475 6
  20893657.987    20893661.030    30916336.469 2 -42062174.212 3
  22017226.805    22017223.771    68635067.192 8-100117654.816 6
  24860038.678    24860042.398   -10882074.882 8  13812080.589 7
 86  6 20  2 53 11.0800000  0  4G12G13G 9G 7
  20725727.214    20725729.695     4688178.175 7 -18340798.046 4
  20894985.281    20894988.021    30923316.998 8 -42056734.822 3
  22021215.270    22021213.213    68656031.551 7-100101318.936 2
  24856293.900    24856294.406   -10901757.933 8  13796743.150 4
 86  6 20  2 53 17.0800000  0  4G12G13G 9G 7
  20725108.102    20725110.040     4684918.963 7 -18343337.696 6
  20896315.930    20896316.853    30930305.601 7 -42051289.166 6
  22025207.650    22025206.508    68677010.100 8-100084972.043 6
  24852550.209    24852553.021   -10921430.733 8  13781413.685 8
 86  6 20  2 53 23.0800000  0  4G12G13G 9G 7
  20724492.146    20724496.010     4681685.255 8 -18345857.469 5
  20897646.398    20897650.666    30937302.271 8 -42045837.224 6
  22029200.622    22029200.382    68698002.700 7-100068614.204 6
  24848809.139    24848809.313   -10941095.645 8  13766090.364 5
 86  6 20  2 53 29.0800000  0  4G12G13G 9G 7
  20723884.186    20723884.086     4678477.158 8 -18348357.272 7
  20898978.621    20898980.197    30944306.911 8 -42040379.061 7
  22033197.693    22033198.374    68719009.483 7-100052245.281 6
  24845067.715    24845070.928   -10960754.486 8  13750771.813 5
 86  6 20  2 53 35.0800000  0  4G12G13G 9G 7
  20723275.335    20723282.610     4675294.681 1 -18350837.144 1
  20900317.921    20900313.375    30951319.601 3 -42034914.663 1
  22037198.980    22037208.296    68740030.427 1-100035865.382 1
                  24841327.380   -10980406.613 1
 86  6 20  2 53 41.0800000  0  4G12G13G 9G 7
                  20722676.488     4672137.780 1
  20901648.561    20901655.162    30958340.224 3 -42029444.057 1
                  22041199.355    68761065.398 1
  24837590.126    24837677.998   -11000047.487 1  13781871.257 1
 86  6 20  2 53 47.0800000  0  4G12G13G 9G 7
                  20722079.440     4669006.414 1
                  20902988.167    30965417.010 3
                  22045206.875    68782114.513 1
                  24833856.775   -11019804.127 3
 86  6 20  2 53 53.0800000  0  4G12G13G 9G 7
  20721488.721    20721488.578     4665900.620 6 -18261424.676 1
                  20904324.657   -11313423.302 5
  22049215.417    22049280.942    68803172.721 6 -99927966.994 1
                  24830127.944   -11328712.316 4
 86  6 20  2 53 59.0800000  0  4G12G13G 9G 7
  20720902.165    20720903.728     4662820.521 1 -18263824.809 1
                  20905661.477   -11356602.237 3
                  22053724.313   -11350540.228 2
                  24826399.344   -11348320.325 2
 86  6 20  2 54  5.0800000  0  4G12G13G 9G 7
                  20720317.668     4659766.036 1
                  20907013.701   -11380270.277 3
                  22057243.464   -11378973.336 2
                  24821329.050   -11408966.929 3
 86  6 20  2 54 11.0800000  0  4G12G13G 9G 7
  20719745.633    20719746.430     4656737.196 6 -18219952.496 2
                  20908350.738   -11414226.518 6
                  22061258.031   -11396737.081 5
                  24818957.285   -11428850.643 6
 86  6 20  2 54 17.0800000  0  4G12G13G 9G 7
  20719173.160    20719174.700     4653734.015 7 -18222292.639 1
                  20909697.898   -11407150.606 6
                  22065276.996   -11375626.074 6
                  24815244.007   -11448388.903 5
 86  6 20  2 54 23.0800000  0  4G12G13G 9G 7
  20718607.124    20718611.556     4650756.456 6 -18224612.856 2
                  20911043.603   -11400067.772 7
                  22069299.144   -11354488.114 6
                  24811525.695   -11467920.207 6
 86  6 20  2 54 29.0800000  0  4G12G13G 9G 7
  20718045.606    20718048.067     4647804.500 6 -18226913.074 3
                  20912394.086   -11392963.187 3
  22073319.764    22073322.813   -11333340.793 7  14623079.230 1
                  24807812.250   -11487432.972 4
 86  6 20  2 54 35.0800000  0  4G12G13G 9G 7
  20717489.720    20717487.282     4644878.217 7 -18229193.282 2
                  20913742.037   -11385859.404 6
  22077347.926    22077348.695   -11312179.987 6  14639568.065 2
                  24804098.131   -11506955.317 4
 86  6 20  2 54 41.0800000  0  4G12G13G 9G 7
  20716936.795    20716943.794     4641977.620 6 -18231453.530 1
                  20915093.307   -11378759.458 7
  22081376.837    22081384.249   -11291005.459 7  14656067.707 2
                  24800387.860   -11526453.790 5
 86  6 20  2 54 47.0800000  0  4G12G13G 9G 7
  20716389.549    20716393.424     4639102.720 7 -18233693.695 2
  20916446.599    20916449.449   -11371651.582 7  14735259.806 3
  22085408.967    22085410.400   -11269817.039 6  14672578.175 1
  24796680.720    24796686.582   -11545934.574 5  14743839.508 1
 86  6 20  2 54 53.0800000  0  4G12G13G 9G 7
  20715847.523    20715851.715     4636253.495 7 -18235913.872 2
  20917801.317    20917800.331   -11364535.881 8  14740804.526 1
  22089443.112    22089441.728   -11248614.824 7  14689099.371 2
  24792978.257    24792979.519   -11565390.972 7  14728678.675 3
 86  6 20  2 54 59.0800000  0  4G12G13G 9G 7
  20715313.476    20715315.823     4633429.990 1 -18238114.000 2
  20919156.794    20919159.949   -11357412.405 3  14746354.731 2
  22093478.671    22093483.016   -11227398.870 3  14705631.292 1
  24789278.919    24789284.462   -11584825.279 2  14713535.026 1
 86  6 20  2 55  5.0800000  0  4G12G13G 9G 7
  20714779.821    20714776.218     4630632.182 3 -18240294.130 1
  20920514.173    20920511.783   -11350281.121 3  14751911.614 2
  22097521.165    22097520.031   -11206169.121 3  14722173.964 1
                  24783909.003   -11763635.221 2
 86  6 20  2 55 11.0800000  0  4G12G13G 9G 7
  20714250.967    20714253.952     4627860.132 2 -18242454.162 1
  20921870.580    20921870.601   -11343142.100 3  14757474.503 1
  22101560.881    22101565.604   -11184925.672 2  14738727.250 1
                  24779631.630   -11797535.662 2
 86  6 20  2 55 17.0800000  0  4G12G13G 9G 7
  20713727.470    20713730.649     4625113.742 6 -18244594.199 1
  20923232.917    20923233.812   -11335995.307 7  14763043.441 2
  22105606.988    22105607.878   -11163668.553 6  14755291.274 3
                  24775882.188   -11842874.872 2
 86  6 20  2 55 23.0800000  0  4G12G13G 9G 7
  20713210.320    20713213.046     4622393.139 6 -18246714.163 1
  20924594.338    20924596.375   -11328840.679 7  14768618.472 1
  22109655.436    22109656.737   -11142397.707 8  14771865.958 3
                  24776196.873   -11862484.768 2
 86  6 20  2 55 29.0800000  0  4G12G13G 9G 7
  20712698.171    20712698.409     4619698.348 7 -18248813.954 2
  20925956.009    20925955.911   -11321678.351 6  14774199.558 4
  22113707.387    22113708.648   -11121113.197 8  14788451.285 1
                  24779932.774   -11882546.544 2
 86  6 20  2 55 35.0800000  0  4G12G13G 9G 7
  20712190.820    20712187.489     4617029.271 7 -18250893.825 1
  20927321.343    20927321.087   -11314508.273 7  14779786.609 3
  22117760.592    22117761.621   -11099815.061 7  14805047.233 3
                  24784110.777   -11902595.579 2
 86  6 20  2 55 41.0800000  0  4G12G13G 9G 7
  20711686.185    20711689.646     4614385.906 7 -18252953.558 1
  20928687.412    20928689.689   -11307330.521 7  14785379.643 2
  22121816.801    22121815.953   -11078503.360 6  14821653.724 3
                  24787704.444   -11922631.874 2
 86  6 20  2 55 47.0800000  0  4G12G13G 9G 7
  20711188.056    20711189.151     4611768.273 6 -18254993.269 2
  20930055.531    20930055.087   -11300145.044 8  14790978.730 3
  22125874.236    22125875.468   -11057178.109 7  14838270.802 2
                  24790891.335   -11942655.428 2
 86  6 20  2 55 53.0800000  0  4G12G13G 9G 7
  20710694.375    20710701.287     4609176.462 6 -18257012.876 3
  20931424.084    20931420.278   -11292951.879 7  14796583.827 3
  22129935.408    22129934.525   -11035839.336 8  14854898.404 1
                  24795104.897   -11962666.242 2
 86  6 20  2 55 59.0800000  0  4G12G13G 9G 7
  20710205.853    20710206.763     4606610.396 6 -18259012.401 3
  20932792.840    20932790.864   -11285750.977 9  14802194.919 3
  22133998.658    22133999.374   -11014487.049 6  14871536.546 2
                  24799263.949   -11982664.315 2
 86  6 20  2 56  5.0800000  0  4G12G13G 9G 7
  20709722.663    20709726.510     4604070.086 7 -18260991.841 1
  20934165.827    20934167.278   -11278542.398 8  14807812.011 1
  22138064.637    22138066.814   -10993121.192 7  14888185.289 1
                  24803219.058   -12002649.648 2
 86  6 20  2 56 11.0800000  0  4G12G13G 9G 7
  20709244.513    20709247.372     4601555.568 6 -18262951.205 1
  20935538.708    20935543.821   -11271326.206 9  14813434.995 2
  22142134.292    22142131.437   -10971741.906 6  14904844.438 1
                  24807353.098   -12022622.239 2
 86  6 20  2 56 17.0800000  0  4G12G13G 9G 7
  20708771.840    20708775.199     4599066.902 7 -18264890.412 1
  20936913.313    20936912.240   -11264102.299 7  14819064.024 3
  22146201.680    22146205.070   -10950349.150 6  14921514.125 4
                  24811166.947   -12042582.091 2
 86  6 20  2 56 23.0800000  0  4G12G13G 9G 7
  20708301.388    20708299.551     4596604.087 6 -18266809.533 2
  20938290.451    20938292.739   -11256870.718 7  14824699.054 3
  22150274.694    22150277.329   -10928943.101 6  14938194.175 1
                  24815100.143   -12062529.202 2
 86  6 20  2 56 29.0800000  0  4G12G13G 9G 7
  20707839.668    20707838.787     4594167.116 6 -18268708.422 1
  20939665.897    20939666.661   -11249631.529 7  14830339.945 2
  22154348.292    22154350.369   -10907523.700 6  14954884.601 2
                  24818889.966   -12082463.573 2
 86  6 20  2 56 35.0800000  0  4G12G13G 9G 7
  20707381.853    20707381.320     4591755.902 7 -18270587.298 1
  20941045.539    20941045.911   -11242384.774 7  14835986.801 3
  22158428.787    22158432.420   -10886090.947 5  14971585.421 2
                  24822651.624   -12102385.203 2
 86  6 20  2 56 41.0800000  0  4G12G13G 9G 7
  20706927.835    20706928.422     4589370.482 7 -18272446.094 1
  20942425.980    20942429.831   -11235130.494 7  14841639.469 3
  22162510.072    22162516.467   -10864644.823 6  14988296.697 1
                  24826153.660   -12122294.093 2
 86  6 20  2 56 47.0800000  0  4G12G13G 9G 7
  20706477.460    20706478.243     4587010.827 7 -18274284.761 1
  20943807.323    20943809.012   -11227868.725 7  14847298.018 4
  22166594.499    22166599.578   -10843185.299 6  15005018.359 4
                  24829568.783   -12142190.241 2
 86  6 20  2 56 53.0800000  0  4G12G13G 9G 7
  20706034.996    20706033.588     4584677.051 6 -18276103.286 2
  20945190.496    20945193.986   -11220599.428 7  14852962.372 1
  22170679.814    22170681.166   -10821712.532 6  15021750.424 3
                  24832987.364   -12162073.650 2
 86  6 20  2 56 59.0800000  0  4G12G13G 9G 7
  20705593.938    20705591.610     4582369.148 6 -18277901.699 1
  20946575.698    20946578.894   -11213322.589 6  14858632.637 3
  22174769.393    22174766.867   -10800226.535 5  15038492.727 1
                  24836671.499   -12181944.318 2
 86  6 20  2 57  5.0800000  0  4G12G13G 9G 7
  20705158.591    20705160.147     4580087.067 7 -18279679.920 2
  20947961.022    20947967.978   -11206038.176 7  14864308.807 1
  22178859.727    22178861.480   -10778727.293 6  15055245.385 1
                  24839830.625   -12201802.245 2
 86  6 20  2 57 11.0800000  0  4G12G13G 9G 7
  20704729.634    20704729.601     4577830.798 7 -18281438.071 1
  20949349.762    20949350.773   -11198746.248 7  14869990.829 1
  22182952.121    22182956.796   -10757214.839 6  15072008.334 2
                  24843051.157   -12221647.432 2
 86  6 20  2 57 17.0800000  0  4G12G13G 9G 7
  20704306.307    20704308.197     4575600.359 6 -18283176.061 2
  20950739.152    20950741.602   -11191446.862 7  14875678.674 3
  22187047.664    22187052.422   -10735689.226 5  15088781.511 3
                  24846683.460   -12241479.878 2
 86  6 20  2 57 23.0800000  0  4G12G13G 9G 7
  20703886.794    20703890.444     4573395.720 6 -18284893.935 1
  20952129.270    20952131.568   -11184139.993 8  14881372.329 2
  22191147.711    22191151.791   -10714150.447 6  15105564.976 3
                  24850319.545   -12261299.584 2
 86  6 20  2 57 29.0800000  0  4G12G13G 9G 7
  20703473.091    20703475.075     4571216.950 7 -18286591.695 3
  20953521.521    20953522.832   -11176825.649 7  14887071.810 2
  22195249.212    22195255.904   -10692598.582 6  15122358.639 2
                  24854630.638   -12281106.550 2
 86  6 20  2 57 35.0800000  0  4G12G13G 9G 7
  20703062.185    20703065.982     4569064.105 8 -18288269.242 2
  20954914.599    20954914.364   -11169503.772 7  14892777.176 5
  22199352.465    22199355.317   -10671033.581 7  15139162.520 1
                  24858300.831   -12300900.774 2
 86  6 20  2 57 41.0800000  0  4G12G13G 9G 7
  20702657.126    20702660.019     4566937.123 6 -18289926.599 1
  20956310.275    20956310.752   -11162174.412 7  14898488.374 2
  22203458.367    22203460.789   -10649455.560 6  15155976.554 1
                  24861884.559   -12320682.259 2
 86  6 20  2 57 47.0800000  0  4G12G13G 9G 7
  20702258.793    20702258.909     4564836.130 7 -18291563.731 1
  20957705.835    20957704.713   -11154837.550 7  14904205.411 3
  22207566.805    22207567.542   -10627864.436 6  15172800.777 1
                  24865295.298   -12340451.002 2
 86  6 20  2 57 53.0800000  0  4G12G13G 9G 7
  20701862.308    20701865.203     4562761.022 7 -18293180.706 3
  20959102.109    20959105.758   -11147493.392 7  14909928.126 3
  22211679.347    22211678.299   -10606260.299 7  15189635.212 1
                  24868942.917   -12360207.005 2
 86  6 20  2 57 59.0800000  0  4G12G13G 9G 7
  20701471.497    20701475.994     4560711.786 7 -18294777.528 3
  20960503.140    20960502.868   -11140141.856 6  14915656.581 3
  22215793.663    22215792.063   -10584643.142 6  15206479.723 1
                  24872211.422   -12379950.268 2
 86  6 20  2 58  5.0800000  0  4G12G13G 9G 7
  20701085.977    20701090.708     4558688.485 7 -18296354.130 1
  20961902.376    20961903.014   -11132782.980 6  14921390.766 3
  22219909.119    22219910.932   -10563012.932 6  15223334.435 1
                  24876186.678   -12399680.790 2
 86  6 20  2 58 11.0800000  0  4G12G13G 9G 7
  20700705.383    20700708.648     4556691.081 7 -18297910.535 3
  20963303.722    20963302.665   -11125416.692 6  14927130.779 1
  22224025.152    22224029.673   -10541369.835 5  15240199.177 1
                  24879576.817   -12419398.572 2
 86  6 20  2 58 17.0800000  0  4G12G13G 9G 7
  20700331.578    20700335.360     4554719.624 7 -18299446.725 3
  20964705.223    20964707.527   -11118042.979 6  14932876.502 3
  22228147.653    22228149.538   -10519713.826 7  15257073.988 1
                  24883527.928   -12439103.613 2
 86  6 20  2 58 23.0800000  0  4G12G13G 9G 7
  20699960.482    20699962.069     4552774.168 6 -18300962.681 4
  20966108.111    20966110.479   -11110661.853 7  14938628.005 3
  22232272.347    22232272.345   -10498044.902 6  15273958.832 2
                  24887362.912   -12458795.914 2
 86  6 20  2 58 29.0800000  0  4G12G13G 9G 7
  20699595.920    20699596.322     4550854.627 6 -18302458.427 2
  20967514.934    20967519.672   -11103273.446 7  14944385.252 1
  22236398.305    22236400.954   -10476363.138 6  15290853.727 3
                  24890878.737   -12478475.474 2
 86  6 20  2 58 35.0800000  0  4G12G13G 9G 7
  20699238.191    20699239.664     4548960.959 7 -18303934.026 2
  20968922.763    20968922.215   -11095877.720 7  14950148.088 5
  22240527.239    22240527.095   -10454668.562 5  15307758.578 1
                  24894367.352   -12498142.293 2
 86  6 20  2 58 41.0800000  0  4G12G13G 9G 7
  20698882.605    20698883.287     4547093.223 6 -18305389.415 3
  20970331.784    20970333.458   -11088474.756 7  14955916.685 2
  22244656.506    22244657.258   -10432961.205 7  15324673.422 3
                  24897535.808   -12517796.372 2
 86  6 20  2 58 47.0800000  0  4G12G13G 9G 7
  20698533.438    20698532.786     4545251.492 6 -18306824.541 1
  20971742.885    20971743.474   -11081064.421 7  14961690.956 1
  22248790.031    22248794.686   -10411241.017 6  15341598.246 2
                  24901381.351   -12537437.711 2
 86  6 20  2 58 53.0800000  0  4G12G13G 9G 7
  20698186.428    20698185.398     4543435.746 7 -18308239.401 4
  20973154.631    20973159.446   -11073646.733 7  14967470.957 1
  22252927.901    22252930.137   -10389508.050 5  15358532.995 1
                  24905550.477   -12557066.309 2
 86  6 20  2 58 59.0800000  0  4G12G13G 9G 7
  20697844.854    20697846.053     4541645.972 8 -18309634.038 7
  20974568.202    20974568.615   -11066221.753 8  14973256.691 8
  22257062.696    22257066.816   -10367762.343 7  15375477.711 5
                  24909049.638   -12576682.166 2
 86  6 20  2 59  5.0800000  0  4G12G13G 9G 7
  20697510.142    20697512.318     4539882.104 8 -18311008.486 5
  20975981.749    20975983.050   -11058789.551 7  14979048.013 5
  22261203.175    22261207.882   -10346003.949 7  15392432.313 6
                  24912754.908   -12596285.283 2
 86  6 20  2 59 11.0800000  0  4G12G13G 9G 7
  20697178.334    20697179.755     4538144.239 7 -18312362.661 7
  20977398.018    20977399.672   -11051350.095 8  14984845.000 6
  22265346.900    22265352.465   -10324232.862 7  15409396.786 7
                  24916375.821   -12615875.659 2
 86  6 20  2 59 17.0800000  0  4G12G13G 9G 7
  20696853.221    20696854.638     4536432.465 8 -18313696.519 6
  20978813.761    20978816.433   -11043903.414 8  14990647.613 7
  22269490.836    22269495.365   -10302449.021 8  15426371.217 7
                  24919588.196   -12635453.295 2
 86  6 20  2 59 23.0800000  0  4G12G13G 9G 7
  20696531.613    20696532.851     4534746.682 8 -18315010.115 7
  20980232.266    20980234.532   -11036449.489 8  14996455.868 8
  22273639.254    22273644.364   -10280652.589 8  15443355.425 8
                  24629179.923   -12655467.896 1
 86  6 20  2 59 29.0800000  0  4G12G13G 9G 7
  20696216.130    20696217.352     4533086.862 8 -18316303.484 7
  20981651.798    20981654.004   -11028988.480 8  15002269.646 7
  22277791.038    22277793.744   -10258843.539 7  15460349.507 7
                  18929586.035   -13339964.113 8
 86  6 20  2 59 35.0800000  0  4G12G13G 9G 7
  20695905.135    20695906.900     4531453.056 7 -18317576.598 7
  20983073.115    20983077.267   -11021520.387 8  15008088.936 7
  22281940.863    22281946.886   -10237021.909 7  15477353.362 7
                  18926007.920   -13358739.036 8
 86  6 20  2 59 41.0800000  0  4G12G13G 9G 7
  20695599.610    20695599.785     4529845.242 6 -18318829.448 3
  20984495.643    20984498.026   -11014045.166 5  15013913.790 6
  22286098.338    22286101.092   -10215187.734 5  15494367.008 6
                  18622640.630   -13377496.662 9
 86  6 20  2 59 47.0800000  0  4G12G13G 9G 7
  20695298.655    20695300.908     4528263.402 8 -18320062.042 8
  20985919.454    20985922.522   -11006562.755 7  15019744.238 8
  22290253.322    22290258.447   -10193341.088 7  15511390.359 8
                  18619080.902   -13396229.567 9
 86  6 20  2 59 53.0800000  0  4G12G13G 9G 7
  20695003.496    20695006.388     4526707.646 8 -18321274.334 7
  20987345.576    20987348.339   -10999073.147 9  15025580.291 9
  22294413.005    22294418.172   -10171481.917 8  15528423.477 7
                  24611374.053   -13414937.457 9
 86  6 20  2 59 59.0800000  0  4G12G13G 9G 7
  20694711.474    20694714.827     4525177.890 8 -18322466.355 8
  20988771.564    20988774.806   -10991576.357 8  15031421.930 9
  22298575.365    22298580.149   -10149610.274 7  15545466.306 8
                  24607814.810   -13433624.161 9
 86  6 20  3  0  5.0800000  0  4G12G13G 9G 7
  20694424.808    20694428.139     4523674.122 8 -18323638.124 8
  20990200.084    20990202.978   -10984072.419 9  15037269.147 8
  22302739.901    22302744.416   -10127726.154 8  15562518.864 7
                  24604295.236   -13452294.021 8
 86  6 20  3  0 11.0800000  0  4G12G13G 9G 7
  20694143.345    20694146.869     4522196.341 7 -18324789.631 8
  20991629.165    20991632.556   -10976561.367 8  15043121.920 8
  22306907.471    22306909.974   -10105829.604 7  15579581.103 7
  24600745.903    24600748.681   -13470951.315 8  17212825.638 1
 86  6 20  3  0 17.0800000  0  4G12G13G 9G 7
  20693868.014    20693871.756     4520744.634 8 -18325920.847 7
  20993060.667    20993063.786   -10969043.187 8  15048980.234 9
  22311076.934    22311079.209   -10083920.654 8  15596653.019 7
  24597197.098    24597200.251   -13489598.390 8  17198295.508 7
 86  6 20  3  0 23.0800000  0  4G12G13G 9G 7
  20693595.649    20693598.469     4519318.953 8 -18327031.761 8
  20994492.152    20994494.893   -10961517.986 8  15054844.025 8
  22315248.030    22315250.336   -10061999.272 7  15613734.606 8
  24593650.711    24593652.352   -13508237.174 7  17183771.270 7
 86  6 20  3  0 29.0800000  0  4G12G13G 9G 7
  20693328.866    20693332.466     4517919.343 8 -18328122.361 8
  20995925.467    20995928.969   -10953985.675 9  15060713.361 9
  22319420.659    22319424.353   -10040065.562 7  15630825.802 9
  24590104.927    24590107.737   -13526867.781 8  17169253.930 8
 86  6 20  3  0 35.0800000  0  4G12G13G 9G 7
  20693069.487    20693070.270     4516545.831 7 -18329192.627 7
  20997359.659    20997362.782   -10946446.368 8  15066588.147 7
  22323597.478    22323602.067   -10018119.546 7  15647926.578 7
                  24586565.039                    17154745.789 8
 86  6 20  3  0 41.0800000  0  4G12G13G 9G 7
  20692811.332    20692813.601     4515198.357 7 -18330242.597 8
  20998796.875    20998799.441   -10938900.053 8  15072468.396 9
  22327777.050    22327779.456    -9996161.209 7  15665036.984 9
  24583047.677    24583025.713   -13581659.021 9  17140252.457 8
 86  6 20  3  0 47.0800000  0  4G12G13G 9G 7
  20692559.674    20692562.996     4513876.941 7 -18331272.279 8
  21000234.418    21000235.954   -10931346.621 9  15078354.194 7
  22331956.324    22331961.057    -9974190.658 8  15682156.874 8
  24579487.427    24579490.506   -13600234.432 8  17125778.362 8
 86  6 20  3  0 53.0800000  0  4G12G13G 9G 7
  20692313.039    20692316.744     4512581.622 8 -18332281.617 7
  21001674.048    21001675.217   -10923786.192 9  15084245.438 6
  22336140.126    22336145.980    -9952207.878 7  15699286.311 6
  24575958.283    24575962.349   -13618784.803 7  17111323.523 7
 86  6 20  3  0 59.0800000  0  4G12G13G 9G 7
  20692070.923    20692074.769     4511312.479 8 -18333270.562 9
  21003113.208    21003113.508   -10916218.781 9  15090142.134 9
  22340326.686    22340330.063    -9930212.776 7  15716425.350 8
  24572432.422    24572435.075   -13637314.071 8  17096885.151 8
 86  6 20  3  1  5.0800000  0  4G12G13G 9G 7
  20691834.577    20691837.119     4510069.335 7 -18334239.247 8
  21004555.255    21004555.628   -10908644.388 8  15096044.263 9
  22344514.735    22344519.763    -9908205.462 7  15733573.897 8
  24568908.793    24568913.107   -13655826.838 7  17082459.607 8
 86  6 20  3  1 11.0800000  0  4G12G13G 9G 7
  20691601.987    20691606.053     4508852.193 8 -18335187.647 9
  21005998.474    21005996.863   -10901063.011 8  15101951.832 7
  22348704.180    22348707.806    -9886185.992 8  15750731.919 8
  24565389.172    24565392.201   -13674326.862 9  17068043.996 9
 86  6 20  3  1 17.0800000  0  4G12G13G 9G 7
  20691375.516    20691378.473     4507661.118 7 -18336115.758 6
  21007441.879    21007441.609   -10893474.605 9  15107864.879 7
  22352897.106    22352900.997    -9864154.419 7  15767899.377 7
  24561871.430    24561874.638   -13692816.724 9  17053636.309 9
 86  6 20  3  1 23.0800000  0  4G12G13G 9G 7
  20691153.715    20691158.329     4506496.123 7 -18337023.534 8
  21008886.789    21008885.681   -10885879.298 9  15113783.308 8
  22357091.531    22357095.545    -9842110.753 9  15785076.257 8
  24558353.332    24558358.766   -13711298.122 8  17039235.218 9
 86  6 20  3  1 29.0800000  0  4G12G13G 9G 7
  20690938.472    20690941.013     4505357.164 7 -18337911.025 8
  21010332.125    21010333.876   -10878277.061 8  15119707.134 7
  22361289.023    22361292.325    -9820055.073 7  15802262.500 8
  24554838.404    24554843.303   -13729770.909 9  17024840.841 8
 86  6 20  3  1 35.0800000  0  4G12G13G 9G 7
  20690727.877    20690729.071     4504244.315 8 -18338778.181 8
  21011780.739    21011781.734   -10870667.902 8  15125636.367 7
  22365487.627    22365492.608    -9797987.181 8  15819458.247 7
                  24551329.051                    17010456.412 8
 86  6 20  3  1 41.0800000  0  4G12G13G 9G 7
  20690522.000    20690520.747     4503157.590 6 -18339625.002 2
  21013229.560    21013232.028   -10863051.847 7  15131570.919 1
  22369690.162    22369693.590    -9775907.292 6  15836663.351 2
  24547830.433    24547823.078   -13784345.946 8  16996087.397 2
 86  6 20  3  1 47.0800000  0  4G12G13G 9G 7
  20690322.364    20690321.291     4502096.862 7 -18340451.525 1
  21014679.041    21014683.956   -10855428.952 7  15137510.846 1
  22373893.012    22373897.539    -9753815.455 5  15853877.759 1
  24544313.445    24544315.646   -13802760.995 6  16981738.159 3
 86  6 20  3  1 53.0800000  0  4G12G13G 9G 7
  20690124.352    20690122.861     4501062.296 7 -18341257.714 1
  21016131.651    21016136.083   -10847799.209 7  15143456.123 2
  22378097.968    22378102.595    -9731711.542 5  15871101.578 2
  24540812.655    24540815.878   -13821151.029 7  16967408.272 3
 86  6 20  3  1 59.0800000  0  4G12G13G 9G 7
  20689932.346    20689931.381     4500053.965 7 -18342043.434 1
  21017584.197    21017587.035   -10840162.576 5  15149406.732 1
  22382306.559    22382311.710    -9709595.648 5  15888334.729 2
  24537318.618    24537320.060   -13839520.021 7  16953094.777 4
 86  6 20  3  2  5.0800000  0  4G12G13G 9G 7
  20689743.240    20689743.652     4499071.713 7 -18342808.801 1
  21019038.837    21019044.373   -10832519.040 6  15155362.734 1
  22386516.077    22386521.251    -9687467.879 5  15905577.135 1
  24533825.113    24533827.360   -13857872.878 7  16938793.856 3
 86  6 20  3  2 11.0800000  0  4G12G13G 9G 7
  20689561.076    20689560.145     4498115.579 6 -18343553.862 2
  21020495.567    21020500.726   -10824868.611 6  15161324.110 1
  22390730.381    22390733.843    -9665328.243 6  15922828.791 2
  24530335.016    24530338.368   -13876213.190 6  16924502.735 3
 86  6 20  3  2 17.0800000  0  4G12G13G 9G 7
  20689383.790    20689383.627     4497185.536 7 -18344278.538 1
  21021951.927    21021954.838   -10817211.378 6  15167290.742 2
  22394944.295    22394949.763    -9643176.583 6  15940089.830 2
  24526848.266    24526850.729   -13894543.199 6  16910219.595 2
 86  6 20  3  2 23.0800000  0  4G12G13G 9G 7
  20689211.888    20689215.288     4496281.709 7 -18344982.846 1
  21023409.421    21023412.902   -10809547.348 7  15173262.745 1
  22399163.589    22399168.723    -9621013.155 7  15957360.046 1
  24523360.495    24523364.957   -13912864.735 7  16895943.085 3
 86  6 20  3  2 29.0800000  0  4G12G13G 9G 7
  20689044.571    20689044.910     4495404.015 7 -18345666.742 1
  21024869.360    21024872.943   -10801876.505 6  15179240.020 2
  22403384.566    22403387.745    -9598837.941 7  15974639.427 1
  24519875.260    24519880.673   -13931177.147 7  16881673.686 2
 86  6 20  3  2 35.0800000  0  4G12G13G 9G 7
  20688882.206    20688886.067     4494552.496 6 -18346330.285 1
  21026330.367    21026332.657   -10794198.909 7  15185222.563 3
  22407607.249    22407606.704    -9576650.960 6  15991927.974 3
                  24516395.936                    16867414.908 3
 86  6 20  3  2 41.0800000  0  4G12G13G 9G 7
  20688725.723    20688725.365     4493727.077 6 -18346973.440 1
  21027793.048    21027792.897   -10786514.534 7  15191210.405 1
  22411829.788    22411837.446    -9554452.000 7  16009225.847 1
  24512924.498    24512914.990   -13985586.485 1  16853172.487 4
 86  6 20  3  2 47.0800000  0  4G12G13G 9G 7
  20688573.389    20688578.814     4492927.812 7 -18347596.240 1
  21029255.686    21029260.248   -10778823.447 7  15197203.417 2
  22416056.489    22416063.380    -9532241.410 6  16026532.804 2
  24509441.579    24509444.024   -14003838.593 7  16838950.248 3
 86  6 20  3  2 53.0800000  0  4G12G13G 9G 7
  20688426.972    20688430.264     4492154.676 6 -18348198.676 1
  21030720.947    21030724.029   -10771125.711 6  15203201.659 3
  22420286.155    22420290.017    -9510019.035 7  16043848.926 1
  24505973.338    24505976.993   -14022065.626 7  16824747.384 3
 86  6 20  3  2 59.0800000  0  4G12G13G 9G 7
  20688283.974    20688285.625     4491407.656 8 -18348780.788 7
  21032187.930    21032190.591   -10763421.248 8  15209205.165 7
  22424517.927    22424522.960    -9487784.978 8  16061174.205 6
  24502508.824    24502511.047   -14040271.963 9  16810560.623 6
 86  6 20  3  3  5.0800000  0  4G12G13G 9G 7
  20688147.264    20688149.173     4490686.814 8 -18349342.484 6
  21033655.421    21033657.160   -10755710.026 9  15215213.900 6
  22428751.719    22428753.813    -9465539.275 7  16078508.509 6
  24499046.686    24499049.434   -14058462.332 8  16796386.308 7
 86  6 20  3  3 11.0800000  0  4G12G13G 9G 7
  20688013.649    20688016.993     4489992.170 8 -18349883.788 7
  21035125.189    21035126.609   -10747992.106 8  15221227.872 6
  22432985.981    22432989.772    -9443281.923 7  16095851.887 6
  24495588.699    24495590.805   -14076640.131 8  16782221.798 7
 86  6 20  3  3 17.0800000  0  4G12G13G 9G 7
  20687886.155    20687889.254     4489323.664 8 -18350404.702 7
  21036595.098    21036595.733   -10740267.487 8  15227247.069 6
  22437223.900    22437227.122    -9421012.942 8  16113204.347 6
  24492131.770    24492133.442   -14094807.637 8  16768065.293 8
 86  6 20  3  3 23.0800000  0  4G12G13G 9G 7
  20687763.961    20687767.959     4488681.357 7 -18350905.208 8
  21038066.943    21038067.895   -10732536.164 8  15233271.464 8
  22441464.354    22441467.084    -9398732.387 8  16130565.831 8
  24488674.766    24488678.307   -14112966.505 8  16753915.538 9
 86  6 20  3  3 29.0800000  0  4G12G13G 9G 7
  20687646.576    20687650.400     4488065.233 8 -18351385.312 7
  21039538.042    21039539.689   -10724798.144 8  15239301.102 7
  22445706.395    22445707.338    -9376440.302 8  16147936.276 7
  24485221.241    24485224.449   -14131115.750 7  16739773.270 7
 86  6 20  3  3 35.0800000  0  4G12G13G 9G 7
  20687534.124    20687538.754     4487475.242 7 -18351845.057 8
  21041012.682    21041013.397   -10717053.530 8  15245335.869 8
  22449951.411    22449953.056    -9354136.711 8  16165315.705 7
                  24481773.818                    16725642.379 8
 86  6 20  3  3 41.0800000  0  4G12G13G 9G 7
  20687427.154    20687430.828     4486911.407 7 -18352284.396 7
  21042486.762    21042489.145   -10709302.311 8  15251375.782 8
  22454198.110    22454197.995    -9331821.606 9  16182704.084 6
  24478320.923    24478328.441   -14185360.163 9  16711528.612 7
 86  6 20  3  3 47.0800000  0  4G12G13G 9G 7
  20687325.789    20687328.090     4486373.784 7 -18352703.323 5
  21043962.778    21043965.592   -10701544.482 8  15257420.841 7
  22458446.166    22458447.556    -9309494.963 8  16200101.463 7
  24474882.625    24474887.028   -14203446.543 8  16697435.237 7
 86  6 20  3  3 53.0800000  0  4G12G13G 9G 7
  20687228.515    20687231.316     4485862.333 7 -18353101.870 6
  21045439.204    21045442.620   -10693780.032 8  15263471.056 7
  22462697.599    22462699.369    -9287156.815 8  16217507.808 7
  24471444.440    24471448.657   -14221508.267 9  16683361.176 7
 86  6 20  3  3 59.0800000  0  4G12G13G 9G 7
  20687136.570    20687139.677     4485377.084 8 -18353479.976 7
  21046918.603    21046921.458   -10686008.906 8  15269526.478 8
  22466952.260    22466949.875    -9264807.246 8  16234923.056 8
  24468012.752    24468017.200   -14239549.443 8  16669303.111 8
 86  6 20  3  4  5.0800000  0  4G12G13G 9G 7
  20687049.163    20687051.335     4484917.979 8 -18353837.729 7
  21048398.070    21048401.573   -10678231.212 7  15275587.017 8
  22471205.982    22471207.395    -9242446.282 8  16252347.187 8
  24464582.237    24464585.006   -14257574.773 8  16655257.385 7
 86  6 20  3  4 11.0800000  0  4G12G13G 9G 7
  20686967.268    20686968.586     4484485.146 8 -18354175.005 8
  21049879.923    21049882.979   -10670446.908 7  15281652.693 8
  22475464.775    22475463.467    -9220073.930 7  16269780.174 8
  24461153.348    24461157.577   -14275587.463 8  16641221.520 8
 86  6 20  3  4 17.0800000  0  4G12G13G 9G 7
  20686889.378    20686890.677     4484078.542 8 -18354491.839 6
  21051362.527    21051365.428   -10662656.101 7  15287723.448 8
  22479725.269    22479724.876    -9197690.187 8  16287222.040 7
  24457727.831    24457731.537   -14293589.783 7  16627193.748 6
 86  6 20  3  4 23.0800000  0  4G12G13G 9G 7
  20686816.786    20686819.725     4483698.106 7 -18354788.291 9
  21052846.604    21052850.039   -10654858.706 8  15293799.341 8
  22483984.320    22483985.876    -9175295.115 8  16304672.734 9
  24454304.005    24454307.324   -14311583.309 9  16613172.804 9
 86  6 20  3  4 29.0800000  0  4G12G13G 9G 7
  20686748.481    20686751.432     4483343.881 8 -18355064.304 7
  21054331.469    21054335.092   -10647054.787 8  15299880.311 8
  22488250.130    22488249.897    -9152888.815 9  16322132.190 6
  24450883.069    24450885.565   -14329566.684 8  16599159.787 8
 86  6 20  3  4 35.0800000  0  4G12G13G 9G 7
  20686686.668    20686689.264     4483015.897 8 -18355319.879 8
  21055818.258    21055821.449   -10639244.273 8  15305966.417 9
  22492513.651    22492516.115    -9130471.168 8  16339600.475 8
                  24447465.512                    16585158.957 7
 86  6 20  3  4 41.0800000  0  4G12G13G 9G 7
  20686631.035    20686633.540     4482714.086 8 -18355555.073 8
  21057304.609    21057309.625   -10631427.228 8  15312057.623 8
  22496782.163    22496784.418    -9108042.288 9  16357077.522 7
  24444048.364    24444050.130   -14383764.874 7  16571175.883 8
 86  6 20  3  4 47.0800000  0  4G12G13G 9G 7
  20686577.747    20686581.136     4482438.453 8 -18355769.844 7
  21058794.720    21058798.235   -10623603.690 7  15318153.868 7
  22501052.358    22501054.756    -9085602.172 7  16374563.324 7
  24440638.936    24440642.343   -14401683.051 9  16557213.658 7
 86  6 20  3  4 53.0800000  0  4G12G13G 9G 7
  20686531.674    20686533.448     4482189.030 8 -18355964.197 7
  21060284.243    21060288.590   -10615773.717 9  15324255.151 7
  22505324.036    22505327.503    -9063150.795 7  16392057.894 6
  24437232.280    24437235.463   -14419577.154 7  16543270.599 7
 86  6 20  3  4 59.0800000  0  4G12G13G 9G 7
  20686489.704    20686492.680     4481965.853 8 -18356138.100 7
  21061775.549    21061777.855   -10607937.275 8  15330361.462 6
  22509599.348    22509600.194    -9040688.331 9  16409561.110 6
  24433832.320    24433833.505   -14437450.443 7  16529343.363 6
 86  6 20  3  5  5.0800000  0  4G12G13G 9G 7
  20686449.627    20686453.803     4481768.969 8 -18356291.506 7
  21063268.004    21063271.010   -10600094.379 9  15336472.814 7
  22513875.232    22513877.970    -9018214.677 9  16427073.046 7
  24430434.013    24430437.327   -14455307.909 8  16515428.452 6
 86  6 20  3  5 11.0800000  0  4G12G13G 9G 7
  20686418.671    20686421.795     4481598.359 8 -18356424.463 7
  21064762.078    21064764.518   -10592245.090 8  15342589.131 7
  22518155.180    22518158.110    -8995729.824 8  16444593.706 7
  24427037.068    24427038.837   -14473152.667 7  16501523.463 7
 86  6 20  3  5 17.0800000  0  4G12G13G 9G 7
  20686389.904    20686394.028     4481453.919 7 -18356537.007 7
  21066257.272    21066259.113   -10584389.397 8  15348710.449 8
  22522436.021    22522439.154    -8973233.979 9  16462122.935 7
  24423641.846    24423646.417   -14490987.002 7  16487626.576 7
 86  6 20  3  5 23.0800000  0  4G12G13G 9G 7
  20686369.113    20686370.446     4481335.587 8 -18356629.206 8
  21067753.725    21067755.581   -10576527.347 8  15354836.729 8
  22526718.733    22526721.486    -8950727.099 8  16479660.764 8
  24420251.726    24420253.223   -14508812.260 7  16473736.767 7
 86  6 20  3  5 29.0800000  0  4G12G13G 9G 7
  20686351.222    20686351.618     4481243.585 9 -18356700.888 7
  21069251.213    21069251.812   -10568658.774 8  15360968.080 7
  22531004.279    22531006.293    -8928209.104 9  16497207.255 8
  24416862.327    24416863.355   -14526626.655 7  16459855.423 7
 86  6 20  3  5 35.0800000  0  4G12G13G 9G 7
  20686337.368    20686339.513     4481177.761 8 -18356752.181 7
  21070750.523    21070751.365   -10560783.875 8  15367104.365 9
  22535290.947    22535293.118    -8905680.139 7  16514762.285 8
                  24413476.776                    16445986.939 8
 86  6 20  3  5 41.0800000  0  4G12G13G 9G 7
  20686331.156    20686332.318     4481138.385 8 -18356782.877 4
  21072249.209    21072250.825   -10552902.341 8  15373245.831 6
  22539580.975    22539583.286    -8883139.993 8  16532326.041 6
  24410092.480    24410094.134   -14580650.436 8  16432137.172 5
 86  6 20  3  5 47.0800000  0  4G12G13G 9G 7
  20686328.040    20686329.257     4481125.074 9 -18356793.230 6
  21073750.135    21073751.848   -10545014.592 8  15379392.123 7
  22543872.152    22543873.611    -8860589.041 9  16549898.205 5
  24406716.046    24406718.908   -14598397.506 8  16418308.283 5
 86  6 20  3  5 53.0800000  0  4G12G13G 9G 7
  20686330.880    20686330.918     4481137.995 8 -18356783.184 4
  21075252.995    21075253.360   -10537120.516 8  15385543.356 7
  22548163.456    22548166.781    -8838027.169 8  16567478.888 6
  24403343.943    24403345.093   -14616119.996 7  16404498.567 6
 86  6 20  3  5 59.0800000  0  4G12G13G 9G 7
  20686337.947    20686340.130     4481177.271 8 -18356752.579 6
  21076756.208    21076756.312   -10529219.978 8  15391699.619 6
  22552458.017    22552461.402    -8815454.269 9  16585068.170 7
  24399975.396    24399976.168   -14633822.403 8  16390704.478 6
 86  6 20  3  6  5.0800000  0  4G12G13G 9G 7
  20686349.942    20686352.403     4481242.665 8 -18356701.617 6
  21078260.568    21078261.353   -10521313.260 7  15397860.707 7
  22556756.830    22556759.445    -8792870.617 9  16602665.810 7
  24396609.943    24396610.183   -14651509.315 7  16376922.470 7
 86  6 20  3  6 11.0800000  0  4G12G13G 9G 7
  20686367.658    20686369.199     4481334.346 9 -18356630.181 7
  21079766.802    21079768.356   -10513400.157 8  15404026.775 7
  22561054.379    22561058.244    -8770276.131 8  16620271.898 8
  24393246.279    24393247.472   -14669183.525 7  16363150.371 8
 86  6 20  3  6 17.0800000  0  4G12G13G 9G 7
  20686388.437    20686392.357     4481452.249 8 -18356538.321 7
  21081274.820    21081274.999   -10505480.799 9  15410197.704 5
  22565355.584    22565359.410    -8747670.665 9  16637886.549 5
  24389884.401    24389887.154   -14686847.572 8  16349386.177 7
 86  6 20  3  6 23.0800000  0  4G12G13G 9G 7
  20686416.953    20686420.476     4481596.503 7 -18356425.926 2
  21082782.524    21082782.723   -10497555.022 8  15416373.633 4
  22569660.316    22569663.231    -8725054.426 8  16655509.581 4
  24386524.603    24386528.425   -14704502.088 8  16335629.413 6
 86  6 20  3  6 29.0800000  0  4G12G13G 9G 7
  20686448.650    20686451.066     4481766.964 7 -18356293.086 6
  21084290.821    21084293.193   -10489622.981 7  15422554.440 6
  22573965.093    22573969.434    -8702427.562 8  16673140.918 6
  24383168.585    24383169.303   -14722145.156 7  16321881.582 6
 86  6 20  3  6 35.0800000  0  4G12G13G 9G 7
  20686486.158    20686488.934     4481963.763 7 -18356139.744 5
  21085803.266    21085803.122   -10481684.661 7  15428740.154 6
  22578272.939    22578277.591    -8679789.779 8  16690780.736 6
                  24379816.017                    16308147.479 5
 86  6 20  3  6 41.0800000  0  4G12G13G 9G 7
  20686526.597    20686530.847     4482186.769 7 -18355965.959 5
  21087313.871    21087315.944   -10473740.148 8  15434930.685 7
  22582584.584    22582586.323    -8657141.300 8  16708428.911 7
  24376465.033    24376468.263   -14775996.439 8  16294432.496 7
 86  6 20  3  6 47.0800000  0  4G12G13G 9G 7
  20686574.849    20686578.850     4482436.012 7 -18355771.747 6
  21088826.278    21088829.034   -10465789.463 7  15441126.023 6
  22586896.459    22586898.296    -8634482.190 8  16726085.374 7
  24373119.591    24373123.417   -14793570.197 7  16280738.688 6
 86  6 20  3  6 53.0800000  0  4G12G13G 9G 7
  20686626.318    20686632.222     4482711.459 7 -18355557.130 4
  21090339.472    21090342.603   -10457832.484 8  15447326.268 6
  22591211.871    22591211.438    -8611812.406 8  16743750.126 6
  24369779.664    24369782.584   -14811119.613 8  16267063.841 6
 86  6 20  3  6 59.0800000  0  4G12G13G 9G 7
  20686684.151    20686689.225     4483013.234 6 -18355321.965 5
  21091856.399    21091858.458   -10449869.208 8  15453531.420 7
  22595528.050    22595527.586    -8589131.921 9  16761423.231 7
  24366443.171    24366446.693   -14828649.144 7  16253404.453 6
 86  6 20  3  7  5.0800000  0  4G12G13G 9G 7
  20686748.013    20686750.457     4483341.259 7 -18355066.363 7
  21093373.341    21093373.952   -10441899.740 8  15459741.391 6
  22599847.560    22599845.911    -8566440.870 8  16779104.572 7
  24363110.243    24363115.620   -14846163.263 7  16239757.093 7
 86  6 20  3  7 11.0800000  0  4G12G13G 9G 7
  20686816.761    20686819.745     4483695.562 7 -18354790.292 6
  21094890.164    21094890.249   -10433924.137 8  15465956.129 6
  22604168.152    22604164.998    -8543739.113 8  16796794.250 6
  24359782.069    24359785.238   -14863664.809 7  16226119.522 5
 86  6 20  3  7 17.0800000  0  4G12G13G 9G 7
  20686886.984    20686891.115     4484076.131 7 -18354493.731 6
  21096409.668    21096409.578   -10425942.449 8  15472175.648 8
  22608490.152    22608488.088    -8521026.919 9  16814492.059 7
  24356451.968    24356456.227   -14881155.833 8  16212490.169 7
 86  6 20  3  7 23.0800000  0  4G12G13G 9G 7
  20686963.739    20686969.296     4484482.952 6 -18354176.733 6
  21097928.268    21097931.164   -10417954.512 7  15478399.989 6
  22612813.497    22612813.199    -8498304.066 9  16832198.172 7
  24353126.721    24353129.531   -14898636.909 7  16198868.555 6
 86  6 20  3  7 29.0800000  0  4G12G13G 9G 7
  20687047.999    20687052.282     4484916.006 7 -18353839.293 6
  21099448.881    21099451.110   -10409960.478 7  15484629.108 7
  22617138.553    22617137.751    -8475570.712 8  16849912.450 6
  24349800.704    24349805.996   -14916105.987 7  16185256.276 6
 86  6 20  3  7 35.0800000  0  4G12G13G 9G 7
  20687134.904    20687139.501     4485375.386 7 -18353481.316 5
  21100972.295    21100976.123   -10401960.250 9  15490863.045 5
  22621465.785    22621465.229    -8452826.869 9  16867634.922 5
                  24346485.773                    16171658.436 5
 86  6 20  3  7 41.0800000  0  4G12G13G 9G 7
  20687225.872    20687231.221     4485861.040 6 -18353102.898 6
  21102496.402    21102497.611   -10393953.911 8  15497101.749 7
  22625796.164    22625795.551    -8430072.538 9  16885365.564 5
  24343166.856    24343171.016   -14969660.349 8  16158080.814 5
 86  6 20  3  7 47.0800000  0  4G12G13G 9G 7
  20687325.056    20687328.552     4486372.963 7 -18352704.000 6
  21104020.302    21104022.824   -10385941.453 8  15503345.221 7
  22630128.141    22630126.717    -8407307.845 8  16903104.271 7
  24339856.073    24339858.814   -14987058.852 8  16144523.420 6
 86  6 20  3  7 53.0800000  0  4G12G13G 9G 7
  20687426.505    20687430.283     4486911.157 8 -18352284.615 6
  21105546.578    21105547.972   -10377922.939 8  15509593.417 6
  22634460.901    22634463.072    -8384532.799 9  16920851.065 4
  24336549.304    24336552.572   -15004432.615 8  16130985.428 6
 86  6 20  3  7 59.0800000  0  4G12G13G 9G 7
  20687536.234    20687536.534     4487475.715 7 -18351844.725 6
  21107075.229    21107076.381   -10369898.313 8  15515846.371 7
  22638797.078    22638794.851    -8361747.256 8  16938606.025 6
  24333247.897    24333249.920   -15021786.691 9  16117462.796 7
 86  6 20  3  8  5.0800000  0  4G12G13G 9G 7
  20687647.621    20687649.828     4488066.495 7 -18351384.365 6
  21108603.508    21108603.544   -10361867.612 8  15522104.051 7
  22643134.126    22643134.655    -8338951.381 9  16956369.040 5
  24329948.533    24329949.999   -15039125.359 8  16103952.168 6
 86  6 20  3  8 11.0800000  0  4G12G13G 9G 7
  20687765.706    20687767.551     4488683.571 7 -18350903.523 5
  21110132.285    21110133.573   -10353830.969 8  15528366.382 7
  22647474.825    22647474.698    -8316145.200 9  16974140.083 7
  24326652.191    24326653.237   -15056451.438 8  16090451.316 7
 86  6 20  3  8 17.0800000  0  4G12G13G 9G 7
  20687888.922    20687889.515     4489326.918 8 -18350402.219 7
  21111661.797    21111663.303   -10345788.310 9  15534633.393 8
  22651815.593    22651816.863    -8293328.657 9  16991919.198 7
  24323356.601    24323359.106   -15073767.007 8  16076958.666 8
 86  6 20  3  8 23.0800000  0  4G12G13G 9G 7
  20688015.430    20688018.558     4489996.636 7 -18349880.370 8
  21113193.514    21113195.237   -10337739.545 8  15540905.146 9
  22656160.711    22656160.673    -8270501.882 9  17009706.285 7
  24320064.028    24320065.335   -15091072.396 8  16063473.954 9
 86  6 20  3  8 29.0800000  0  4G12G13G 9G 7
  20688148.985    20688150.788     4490692.659 7 -18349338.009 8
  21114725.483    21114728.230   -10329684.734 8  15547181.625 9
  22660506.040    22660505.693    -8247664.879 8  17027501.357 8
  24316773.486    24316775.527   -15108364.910 8  16049999.269 8
 86  6 20  3  8 35.0800000  0  4G12G13G 9G 7
  20688286.246    20688289.109     4491414.977 7 -18348775.174 9
  21116260.337    21116263.283   -10321623.909 9  15553462.774 8
  22664853.414    22664854.386    -8224817.611 8  17045304.403 8
                  24313488.345                    16036539.884 8
 86  6 20  3  8 41.0800000  0  4G12G13G 9G 7
  20688427.940    20688429.760     4492163.557 8 -18348191.862 8
  21117794.699    21117797.535   -10313557.078 9  15559748.630 9
  22669202.607    22669204.758    -8201960.150 9  17063115.422 8
  24310204.187    24310206.794   -15161868.623 9  16023100.815 7
 86  6 20  3  8 47.0800000  0  4G12G13G 9G 7
  20688574.495    20688577.520     4492938.396 7 -18347588.087 7
  21119331.040    21119333.002   -10305484.263 8  15566039.141 7
  22673553.706    22673554.709    -8179092.465 8  17080934.380 7
  24306926.790    24306930.184   -15179088.044 8  16009683.067 7
 86  6 20  3  8 53.0800000  0  4G12G13G 9G 7
  20688726.995    20688730.927     4493739.508 8 -18346963.836 6
  21120867.855    21120870.663   -10297405.477 9  15572334.296 8
  22677907.329    22677908.565    -8156214.679 9  17098761.216 6
  24303656.090    24303659.032   -15196283.164 7  15996284.272 6
 86  6 20  3  8 59.0800000  0  4G12G13G 9G 7
  20688885.297    20688886.579     4494566.877 8 -18346319.156 5
  21122407.062    21122409.756   -10289320.728 9  15578634.101 6
  22682263.396    22682264.019    -8133326.894 8  17116595.835 5
  24300387.402    24300389.162   -15213458.888 7  15982900.601 6
 86  6 20  3  9  5.0800000  0  4G12G13G 9G 7
  20689047.138    20689049.274     4495420.586 7 -18345653.903 7
  21123945.989    21123948.522   -10281229.989 9  15584938.583 8
  22686621.244    22686622.136    -8110429.004 8  17134438.369 7
  24297120.834    24297122.861   -15230619.166 9  15969528.966 7
 86  6 20  3  9 11.0800000  0  4G12G13G 9G 7
  20689215.152    20689216.223     4496300.539 7 -18344968.234 7
  21125487.116    21125489.090   -10273133.321 8  15591247.675 8
  22690979.303    22690982.487    -8087521.022 7  17152288.743 7
  24293858.747    24293859.523   -15247766.852 9  15956167.124 7
 86  6 20  3  9 17.0800000  0  4G12G13G 9G 7
  20689388.662    20689389.966     4497206.808 7 -18344262.052 6
  21127029.990    21127031.110   -10265030.756 8  15597561.345 6
  22695340.733    22695340.543    -8064602.914 7  17170147.005 6
  24290596.978    24290599.393   -15264903.976 9  15942813.530 5
 86  6 20  3  9 23.0800000  0  4G12G13G 9G 7
  20689566.198    20689566.970     4498139.370 9 -18343535.402 7
  21128571.597    21128575.088   -10256922.263 8  15603879.654 7
  22699703.514    22699706.029    -8041674.898 8  17188012.977 6
  24287337.601    24287340.038   -15282030.586 7  15929468.127 7
 86  6 20  3  9 29.0800000  0  4G12G13G 9G 7
  20689748.750    20689749.893     4499098.233 8 -18342788.247 6
  21130116.056    21130118.808   -10248807.851 7  15610202.584 6
  22704068.573    22704071.100    -8018736.881 7  17205886.751 7
  24284080.553    24284083.477   -15299143.767 8  15916133.186 6
 86  6 20  3  9 35.0800000  0  4G12G13G 9G 7
  20689936.796    20689936.970     4500083.422 8 -18342020.571 7
  21131660.704    21131663.049   -10240687.612 9  15616530.044 7
  22708433.672    22708438.168    -7995788.905 7  17223768.283 7
                  24280829.624                    15902814.322 6
 86  6 20  3  9 41.0800000  0  4G12G13G 9G 7
  20690128.749    20690130.131     4501094.902 8 -18341232.400 6
  21133208.811    21133210.584   -10232561.494 7  15622862.075 6
  22712803.310    22712808.054    -7972830.910 8  17241657.632 7
  24277580.252    24277581.559   -15352463.045 8  15889516.338 6
 86  6 20  3  9 47.0800000  0  4G12G13G 9G 7
  20690324.738    20690327.837     4502132.664 8 -18340423.758 6
  21134755.514    21134758.057   -10224429.502 9  15629198.703 7
  22717174.769    22717178.294    -7949863.083 7  17259554.646 7
  24274337.465    24274339.947   -15369501.173 8  15876239.907 8
 86  6 20  3  9 53.0800000  0  4G12G13G 9G 7
  20690528.262    20690531.044     4503196.729 8 -18339594.618 7
  21136304.354    21136306.516   -10216291.581 8  15635539.940 9
  22721547.108    22721551.520    -7926885.391 8  17277459.339 7
  24271100.679    24271102.498   -15386515.331 8  15862982.127 7
 86  6 20  3  9 59.0800000  0  4G12G13G 9G 7
  20690734.974    20690736.459     4504287.020 7 -18338745.044 7
  21137853.518    21137856.561   -10208147.858 8  15641885.683 8
  22725920.055    22725925.844    -7903897.760 8  17295371.785 7
  24267866.641    24267867.542   -15403510.407 8  15849739.237 6
 86  6 20  3 10  5.0800000  0  4G12G13G 9G 7
  20690947.235    20690950.553     4505403.637 7 -18337874.960 6
  21139404.908    21139406.729   -10199998.310 8  15648235.996 7
  22730297.918    22730301.872    -7880900.362 7  17313291.827 7
  24264635.836    24264635.873   -15420490.214 9  15836508.215 7
 86  6 20  3 10 11.0800000  0  4G12G13G 9G 7
  20691164.675    20691167.532     4506546.576 7 -18336984.343 6
  21140956.636    21140959.379   -10191842.901 9  15654590.854 8
  22734676.010    22734681.650    -7857893.149 7  17331219.524 6
  24261405.869    24261407.756   -15437457.110 9  15823287.279 6
 86  6 20  3 10 17.0800000  0  4G12G13G 9G 7
  20691388.392    20691389.343     4507715.807 7 -18336073.255 7
  21142510.320    21142511.342   -10183681.696 8  15660950.235 8
  22739057.118    22739061.522    -7834876.097 7  17349154.877 8
  24258179.736    24258181.807   -15454413.263 8  15810074.679 7
 86  6 20  3 10 23.0800000  0  4G12G13G 9G 7
  20691616.170    20691615.765     4508911.393 8 -18335141.635 6
  21144064.650    21144065.226   -10175514.651 9  15667314.174 7
  22743438.845    22743443.137    -7811849.241 8  17367097.896 7
  24254954.950    24254957.719   -15471358.670 9  15796870.472 7
 86  6 20  3 10 29.0800000  0  4G12G13G 9G 7
  20691847.633    20691848.919     4510133.220 8 -18334189.570 6
  21145619.317    21145619.969   -10167341.848 8  15673682.593 8
  22747823.272    22747827.465    -7788812.804 7  17385048.359 7
  24251733.943    24251736.213   -15488289.820 8  15783677.365 6
 86  6 20  3 10 35.0800000  0  4G12G13G 9G 7
  20692086.517    20692085.860     4511381.384 8 -18333216.979 6
  21147174.702    21147177.369   -10159163.211 8  15680055.541 7
  22752207.380    22752211.804    -7765766.521 7  17403006.491 7
                  24248517.946                    15770501.198 6
 86  6 20  3 10 41.0800000  0  4G12G13G 9G 7
  20692328.619    20692327.781     4512655.862 7 -18332223.882 6
  21148732.333    21148734.073   -10150978.880 8  15686432.946 8
  22756595.506    22756601.160    -7742710.737 7  17420972.039 7
  24245302.090    24245305.101   -15541426.825 8  15757346.311 6
 86  6 20  3 10 47.0800000  0  4G12G13G 9G 7
  20692575.697    20692576.532     4513956.533 7 -18331210.376 6
  21150289.627    21150292.929   -10142788.946 7  15692814.716 8
  22760984.593    22760989.936    -7719645.284 8  17438945.107 8
  24242096.862    24242098.354   -15558281.480 9  15744212.831 7
 86  6 20  3 10 53.0800000  0  4G12G13G 9G 7
  20692828.084    20692829.060     4515283.544 8 -18330176.352 7
  21151849.341    21151852.349   -10134593.287 7  15699200.937 9
  22765375.901    22765380.814    -7696570.254 8  17456925.650 8
  24238893.691    24238894.601   -15575111.775 8  15731097.927 8
 86  6 20  3 10 59.0800000  0  4G12G13G 9G 7
  20693084.779    20693087.056     4516636.936 7 -18329121.754 7
  21153410.626    21153413.069   -10126391.819 8  15705591.687 9
  22769768.766    22769773.201    -7673485.526 9  17474913.737 8
  24235693.288    24235696.317   -15591923.386 8  15717997.963 8
 86  6 20  3 11  5.0800000  0  4G12G13G 9G 7
  20693346.535    20693349.142     4518016.646 7 -18328046.660 6
  21154972.142    21154975.416   -10118184.562 8  15711986.948 8
  22774163.994    22774167.494    -7650391.243 7  17492909.278 8
  24232497.052    24232500.868   -15608719.699 8  15704909.931 8
 86  6 20  3 11 11.0800000  0  4G12G13G 9G 7
  20693615.025    20693616.380     4519422.620 7 -18326951.097 8
  21156535.873    21156538.119   -10109971.538 7  15718386.710 9
  22778559.171    22778563.472    -7627287.364 8  17510912.296 9
  24229303.881    24229306.417   -15625503.128 8  15691831.928 9
 86  6 20  3 11 17.0800000  0  4G12G13G 9G 7
  20693887.026    20693889.444     4520854.892 7 -18325835.052 7
  21158098.879    21158102.759   -10101752.829 8  15724790.897 9
  22782959.265    22782962.098    -7604174.005 8  17528922.691 8
  24226112.226    24226115.243   -15642275.646 8  15678762.421 8
 86  6 20  3 11 23.0800000  0  4G12G13G 9G 7
  20694164.905    20694167.153     4522313.382 7 -18324698.570 7
  21159665.355    21159667.482   -10093528.505 8  15731199.456 8
  22787358.368    22787361.132    -7581051.213 7  17546940.456 7
  24222923.088    24222926.651   -15659037.105 8  15665701.548 9
 86  6 20  3 11 29.0800000  0  4G12G13G 9G 7
  20694446.197    20694449.421     4523798.191 8 -18323541.578 7
  21161231.571    21161232.552   -10085298.541 8  15737612.420 8
  22791759.670    22791763.456    -7557918.966 8  17564965.574 8
                  24219739.483                    15652652.643 8
 86  6 20  3 11 35.0800000  0  4G12G13G 9G 7
  20694733.900    20694736.763     4525309.387 8 -18322364.015 7
  21162798.240    21162800.582   -10077062.831 8  15744029.862 9
  22796163.839    22796166.792    -7534777.232 7  17582998.080 8
  24216484.696    24216558.002   -15711905.855 8  15639621.229 8
 86  6 20  3 11 41.0800000  0  4G12G13G 9G 7
  20695028.072    20695028.241     4526846.953 8 -18321165.916 7
  21164366.400    21164368.968   -10068821.496 8  15750451.675 8
  22800568.684    22800572.352    -7511626.131 7  17601037.898 8
  24213375.089    24213380.442   -15728601.414 8  15626611.731 8
 86  6 20  3 11 47.0800000  0  4G12G13G 9G 7
  20695325.526    20695324.821     4528410.687 7 -18319947.427 8
  21165935.370    21165937.178   -10060574.636 8  15756877.788 9
  22804976.006    22804978.453    -7488465.744 7  17619084.938 7
  24210203.857    24210207.527   -15745269.524 7  15613623.594 8
 86  6 20  3 11 53.0800000  0  4G12G13G 9G 7
  20695627.944    20695628.206     4530000.769 7 -18318708.406 7
  21167505.502    21167509.467   -10052322.114 9  15763308.335 8
  22809384.978    22809388.643    -7465295.943 7  17637139.313 8
  24207036.165    24207041.017   -15761914.115 9  15600653.799 8
 86  6 20  3 11 59.0800000  0  4G12G13G 9G 7
  20695935.188    20695936.513     4531617.121 8 -18317448.904 7
  21169075.744    21169078.989   -10044064.007 9  15769743.220 8
  22813796.708    22813797.700    -7442116.814 8  17655200.978 7
  24203873.165    24203876.095   -15778539.764 8  15587698.761 9
 86  6 20  3 12  5.0800000  0  4G12G13G 9G 7
  20696247.634    20696249.279     4533259.768 8 -18316168.938 8
  21170649.659    21170652.608   -10035800.355 9  15776182.424 8
  22818210.390    22818211.680    -7418928.368 8  17673269.885 8
  24200712.143    24200714.122   -15795150.219 8  15574755.558 7
 86  6 20  3 12 11.0800000  0  4G12G13G 9G 7
  20696566.580    20696566.733     4534928.667 8 -18314868.496 8
  21172223.903    21172225.320   -10027531.164 9  15782625.957 8
  22822623.230    22822626.337    -7395730.634 8  17691346.029 8
  24197553.696    24197556.976   -15811747.885 7  15561822.323 8
 86  6 20  3 12 17.0800000  0  4G12G13G 9G 7
  20696888.112    20696891.816     4536623.880 7 -18313547.566 7
  21173797.505    21173801.215   -10019256.375 9  15789073.849 8
  22827039.144    22827042.228    -7372523.626 8  17709429.413 7
  24194396.714    24194401.569   -15828334.412 8  15548897.766 8
 86  6 20  3 12 23.0800000  0  4G12G13G 9G 7
  20697215.881    20697218.874     4538345.350 8 -18312206.145 8
  21175373.962    21175376.551   -10010976.074 8  15795526.024 8
  22831458.240    22831459.754    -7349307.396 8  17727519.961 6
  24191242.279    24191245.554   -15844909.276 8  15535982.293 7
 86  6 20  3 12 29.0800000  0  4G12G13G 9G 7
  20697548.824    20697550.887     4540093.116 8 -18310844.266 7
  21176951.451    21176953.211   -10002690.300 9  15801982.478 9
  22835878.258    22835880.143    -7326082.029 8  17745617.655 7
                  24188093.496                    15523079.328 7
 86  6 20  3 12 35.0800000  0  4G12G13G 9G 7
  20697887.783    20697889.468     4541867.115 7 -18309461.915 7
  21178528.831    21178530.672    -9994398.995 8  15808443.230 9
  22840299.410    22840300.064    -7302847.505 6  17763722.459 8
  24184889.654    24184948.322   -15897592.546 7  15510194.380 7
 86  6 20  3 12 41.0800000  0  4G12G13G 9G 7
  20698229.544    20698233.619     4543667.447 7 -18308059.067 7
  21180106.677    21180110.289    -9986102.222 8  15814908.244 8
  22844721.745    22844724.131    -7279603.925 7  17781834.346 6
  24181802.999    24181806.441   -15914099.812 8  15497331.780 7
 86  6 20  3 12 47.0800000  0  4G12G13G 9G 7
  20698577.227    20698579.342     4545494.090 8 -18306635.704 8
  21181687.847    21181690.719    -9977799.902 7  15821377.595 7
  22849144.728    22849149.747    -7256351.121 6  17799953.410 8
  24178667.111    24178670.842   -15930579.380 8  15484490.566 8
 86  6 20  3 12 53.0800000  0  4G12G13G 9G 7
  20698929.887    20698932.175     4547347.050 7 -18305191.853 7
  21183267.813    21183272.146    -9969492.120 9  15827851.189 7
  22853571.901    22853574.905    -7233089.144 8  17818079.605 7
  24175537.387    24175539.161   -15947035.614 8  15471667.518 7
 86  6 20  3 12 59.0800000  0  4G12G13G 9G 7
  20699286.657    20699290.588     4549226.280 7 -18303727.509 7
  21184851.466    21184853.982    -9961178.811 9  15834329.090 6
  22858000.647    22858003.600    -7209818.167 7  17836212.833 7
  24172409.386    24172411.288   -15963473.023 7  15458859.157 7
 86  6 20  3 13  5.0800000  0  4G12G13G 9G 7
  20699649.255    20699651.772     4551131.770 8 -18302242.708 7
  21186433.035    21186436.178    -9952860.033 9  15840811.262 8
  22862430.544    22862432.942    -7186538.152 8  17854353.113 8
  24169283.746    24169287.379   -15979895.201 7  15446062.661 8
 86  6 20  3 13 11.0800000  0  4G12G13G 9G 7
  20700017.229    20700020.817     4553063.541 7 -18300737.432 7
  21188017.267    21188019.847    -9944535.829 9  15847297.644 6
  22866860.372    22866865.076    -7163249.211 7  17872500.318 6
  24166161.231    24166164.083   -15996304.498 8  15433276.204 7
 86  6 20  3 13 17.0800000  0  4G12G13G 9G 7
  20700389.498    20700392.507     4555021.574 6 -18299211.687 7
  21189603.747    21189605.063    -9936206.135 8  15853788.322 7
  22871294.184    22871296.919    -7139951.309 8  17890654.535 7
  24163040.777    24163042.046   -16012702.615 7  15420498.459 7
 86  6 20  3 13 23.0800000  0  4G12G13G 9G 7
  20700767.092    20700769.678     4557005.895 7 -18297665.460 7
  21191189.201    21191191.891    -9927870.986 9  15860283.250 8
  22875729.193    22875735.038    -7116644.493 7  17908815.691 7
  24159921.831    24159927.515   -16029088.639 8  15407730.125 7
 86  6 20  3 13 29.0800000  0  4G12G13G 9G 7
  20701149.989    20701153.295     4559016.594 8 -18296098.698 7
  21192775.575    21192778.061    -9919530.283 9  15866782.501 7
  22880167.217    22880171.206    -7093328.636 8  17926983.894 6
                  24156811.862                    15394975.151 7
 86  6 20  3 13 35.0800000  0  4G12G13G 9G 7
  20701537.850    20701539.871     4561053.518 8 -18294511.478 7
  21194364.477    21194366.647    -9911184.299 9  15873285.875 7
  22884605.860    22884610.240    -7070003.812 8  17945159.079 8
  24153694.189    24153700.087   -16081580.270 8  15382238.974 7
 86  6 20  3 13 41.0800000  0  4G12G13G 9G 7
  20701929.940    20701933.453     4563116.685 8 -18292903.810 8
  21195953.234    21195955.045    -9902832.972 9  15879793.401 9
  22889046.735    22889051.716    -7046670.174 7  17963341.121 7
  24150593.380    24150595.462   -16097896.089 8  15369525.368 8
 86  6 20  3 13 47.0800000  0  4G12G13G 9G 7
  20702328.797    20702328.950     4565206.146 9 -18291275.670 7
  21197544.625    21197545.860    -9894476.279 9  15886305.119 8
  22893488.468    22893491.321    -7023327.847 7  17981529.948 7
  24147492.988    24147495.397   -16114184.460 8  15356833.133 8
 86  6 20  3 13 53.0800000  0  4G12G13G 9G 7
  20702731.798    20702732.156     4567321.957 8 -18289626.990 6
  21199135.985    21199137.372    -9886114.168 9  15892821.054 7
  22897931.444    22897935.779    -6999976.623 8  17999725.701 6
  24144398.434    24144400.868   -16130449.746 7  15344158.883 8
 86  6 20  3 13 59.0800000  0  4G12G13G 9G 7
  20703140.485    20703140.363     4569463.985 8 -18287957.890 6
  21200728.600    21200730.586    -9877746.753 8  15899341.101 7
  22902377.848    22902381.645    -6976616.532 7  18017928.354 5
  24141306.658    24141308.213   -16146696.461 7  15331499.117 7
 86  6 20  3 14  5.0800000  0  4G12G13G 9G 7
  20703551.734    20703552.116     4571632.331 7 -18286268.274 7
  21202321.132    21202321.491    -9869374.062 9  15905865.312 8
  22906825.340    22906827.886    -6953247.714 7  18036137.817 8
  24138218.047    24138219.526   -16162927.943 8  15318851.218 8
 86  6 20  3 14 11.0800000  0  4G12G13G 9G 7
  20703969.218    20703970.179     4573826.971 8 -18284558.177 5
  21203915.403    21203915.968    -9860995.970 8  15912393.690 6
  22911272.819    22911278.362    -6929870.105 7  18054354.140 5
  24135131.678    24135133.136   -16179146.428 8  15306213.447 6
 86  6 20  3 14 17.0800000  0  4G12G13G 9G 7
  20704392.060    20704393.539     4576047.822 8 -18282827.623 8
  21205509.847    21205511.659    -9852612.477 9  15918926.281 7
  22915723.035    22915727.768    -6906483.782 8  18072577.216 7
  24132047.989    24132050.333   -16195353.434 9  15293584.622 7
 86  6 20  3 14 23.0800000  0  4G12G13G 9G 7
  20704818.979    20704820.278     4578294.958 9 -18281076.631 7
  21207106.003    21207107.201    -9844223.592 9  15925463.079 7
  22920174.288    22920177.023    -6883088.795 7  18090807.089 6
  24128966.535    24128966.810   -16211547.660 8  15280965.745 7
 86  6 20  3 14 29.0800000  0  4G12G13G 9G 7
  20705251.380    20705252.184     4580568.361 9 -18279305.158 7
  21208703.017    21208705.006    -9835829.428 9  15932004.004 8
  22924628.625    22924632.914    -6859685.219 7  18109043.630 6
                  24125889.047                    15268360.837 7
 86  6 20  3 14 35.0800000  0  4G12G13G 9G 7
  20705689.557    20705689.812     4582868.000 8 -18277513.223 7
  21210301.366    21210304.474    -9827429.968 8  15938549.035 7
  22929083.454    22929086.504    -6836272.932 8  18127286.971 7
  24122727.211    24122815.184   -16263981.118 7  15255775.477 7
 86  6 20  3 14 41.0800000  0  4G12G13G 9G 7
  20706133.089    20706132.561     4585193.894 9 -18275700.847 7
  21211901.326    21211902.709    -9819025.303 9  15945098.135 8
  22933541.969    22933543.665    -6812852.054 7  18145537.003 7
  24119746.368    24119748.349   -16280103.151 8  15243212.918 8
 86  6 20  3 14 47.0800000  0  4G12G13G 9G 7
  20706581.657    20706579.917     4587546.044 7 -18273867.998 8
  21213502.095    21213503.323    -9810615.420 9  15951651.285 8
  22937998.699    22938001.929    -6789422.537 7  18163793.762 8
  24116684.050    24116685.323   -16296197.709 8  15230671.700 8
 86  6 20  3 14 53.0800000  0  4G12G13G 9G 7
  20707032.135    20707034.039     4589924.468 9 -18272014.683 8
  21215103.230    21215105.519    -9802200.296 9  15958208.532 8
  22942459.481    22942461.916    -6765984.559 7  18182057.117 8
  24113626.099    24113628.417   -16312269.393 7  15218148.304 7
 86  6 20  3 14 59.0800000  0  4G12G13G 9G 7
  20707491.173    20707489.113     4592329.217 8 -18270140.864 7
  21216705.864    21216707.573    -9793779.846 9  15964769.925 8
  22946921.201    22946923.922    -6742538.065 8  18200327.104 7
  24110570.695    24110571.950   -16328322.770 8  15205639.186 7
 86  6 20  3 15  5.0800000  0  4G12G13G 9G 7
  20707952.957    20707952.514     4594760.184 8 -18268246.597 8
  21218310.164    21218311.089    -9785354.127 9  15971335.409 8
  22951383.883    22951387.792    -6719083.064 8  18218603.723 7
  24107518.344    24107520.859   -16344360.863 7  15193141.982 8
 86  6 20  3 15 11.0800000  0  4G12G13G 9G 7
  20708419.220    20708422.485     4597217.331 8 -18266331.949 8
  21219914.561    21219915.321    -9776923.148 8  15977905.016 8
  22955848.901    22955853.161    -6695619.595 7  18236886.944 7
  24104468.598    24104470.643   -16360385.903 8  15180654.945 7
 86  6 20  3 15 17.0800000  0  4G12G13G 9G 7
  20708892.975    20708893.099     4599700.663 7 -18264396.889 7
  21221519.760    21221519.716    -9768486.994 9  15984478.647 8
  22960314.565    22960318.949    -6672147.648 7  18255176.770 8
  24101421.561    24101425.095   -16376399.244 8  15168177.012 8
 86  6 20  3 15 23.0800000  0  4G12G13G 9G 7
  20709368.811    20709371.085     4602210.194 8 -18262441.419 7
  21223125.752    21223126.840    -9760045.684 8  15991056.287 8
  22964783.618    22964786.817    -6648667.252 7  18273473.178 7
  24098376.537    24098380.013   -16392399.532 8  15155709.251 8
 86  6 20  3 15 29.0800000  0  4G12G13G 9G 7
  20709851.771    20709856.726     4604745.996 6 -18260465.462 1
  21224734.054    21224736.958    -9751599.124 7  15997637.975 3
  22969254.845    22969257.278    -6625178.396 5  18291776.160 1
                  24095339.029                    15143256.178 2
 86  6 20  3 15 35.0800000  0  4G12G13G 9G 7
  20710341.297    20710338.323     4607308.058 6 -18258469.069 1
  21226341.099    21226344.503    -9743147.431 7  16004223.739 3
  22973726.829    22973730.540    -6601681.270 6  18310085.598 1
  24092300.248    24092304.611   -16444495.343 6  15130823.455 2
 86  6 20  3 15 41.0800000  0  4G12G13G 9G 7
  20710832.501    20710835.810     4609896.423 7 -18256452.194 1
  21227950.777    21227950.226    -9734690.521 7  16010813.589 4
  22978197.908    22978200.977    -6578175.813 7  18328401.519 1
  24089269.742    24089270.433   -16460421.283 6  15118413.608 2
 86  6 20  3 15 47.0800000  0  4G12G13G 9G 7
  20711330.901    20711331.690     4612510.933 6 -18254414.912 1
  21229558.734    21229562.293    -9726228.400 7  16017407.389 4
  22982674.132    22982673.862    -6554661.941 6  18346724.033 2
  24086244.451    24086244.072   -16476320.209 7  15106024.828 1
 86  6 20  3 15 53.0800000  0  4G12G13G 9G 7
  20711831.785    20711832.793     4615151.728 6 -18252357.129 1
  21231171.788    21231173.916    -9717761.185 8  16024005.240 2
  22987148.439    22987150.748    -6531139.842 5  18365052.929 1
  24083220.939    24083224.272   -16492196.464 7  15093653.740 2
 86  6 20  3 15 59.0800000  0  4G12G13G 9G 7
  20712339.550    20712342.697     4617818.762 6 -18250278.953 1
  21232783.756    21232786.435    -9709288.948 8  16030606.985 2
  22991627.204    22991626.251    -6507609.429 6  18383388.304 2
  24080205.895    24080207.167   -16508054.341 7  15081296.920 1
 86  6 20  3 16  5.0800000  0  4G12G13G 9G 7
  20712850.340    20712852.766     4620511.989 7 -18248180.318 1
  21234396.255    21234397.062    -9700811.548 9  16037212.737 4
  22996105.959    22996110.053    -6484070.902 7  18401730.050 1
  24077188.421    24077192.077   -16523896.912 8  15068952.044 3
 86  6 20  3 16 11.0800000  0  4G12G13G 9G 7
  20713367.468    20713371.899     4623231.478 5 -18246061.221 1
  21236010.761    21236012.103    -9692329.104 8  16043822.467 3
  23000588.010    23000591.074    -6460524.099 5  18420078.143 3
  24074177.222    24074182.929   -16539726.163 7  15056617.552 3
 86  6 20  3 16 17.0800000  0  4G12G13G 9G 7
  20713892.047    20713896.265     4625977.140 6 -18243921.742 1
  21237626.718    21237627.717    -9683841.498 7  16050436.171 2
  23005069.488    23005074.736    -6436969.032 6  18438432.721 3
  24071168.354    24071169.168   -16555543.565 6  15044292.356 3
 86  6 20  3 16 23.0800000  0  4G12G13G 9G 7
  20714418.019    20714421.889     4628748.971 6 -18241761.908 1
  21239243.887    21239241.762    -9675348.860 7  16057053.808 5
  23009556.822    23009553.551    -6413405.943 6  18456793.591 1
  24068160.370    24068164.722   -16571347.348 7  15031977.694 2
 86  6 20  3 16 29.0800000  0  4G12G13G 9G 7
  20714951.465    20714955.074     4631547.099 6 -18239581.518 2
  21240858.427    21240860.584    -9666851.075 8  16063675.454 3
  23014039.561    23014043.269    -6389834.691 6  18475160.786 1
                  24065157.216                    15019678.517 2
 86  6 20  3 16 35.0800000  0  4G12G13G 9G 7
  20715488.501    20715491.168     4634371.405 6 -18237380.759 2
  21242476.987    21242477.917    -9658348.267 7  16070301.008 5
  23018525.647    23018529.264    -6366255.287 6  18493534.349 1
  24062157.703    24062161.137   -16623381.705 6  15007400.067 3
 86  6 20  3 16 41.0800000  0  4G12G13G 9G 7
  20716030.188    20716033.688     4637221.948 6 -18235159.556 1
  21244095.473    21244096.489    -9649840.374 7  16076930.523 5
  23023016.547    23023016.615    -6342667.885 6  18511914.135 1
  24059164.714    24059170.335   -16639109.232 7  14995144.836 1
 86  6 20  3 16 47.0800000  0  4G12G13G 9G 7
  20716578.195    20716582.906     4640098.734 7 -18232917.912 1
  21245716.171    21245716.809    -9641327.403 7  16083564.008 4
  23027505.816    23027506.347    -6319072.423 8  18530300.240 3
  24056178.226    24056178.409   -16654809.681 7  14982910.728 3
 86  6 20  3 16 53.0800000  0  4G12G13G 9G 7
  20717130.007    20717135.260     4643001.704 6 -18230655.851 2
  21247336.817    21247341.047    -9632809.359 7  16090201.443 3
  23031997.517    23031998.238    -6295468.893 7  18548692.563 3
  24053193.969    24053196.896   -16670487.561 7  14970694.225 1
 86  6 20  3 16 59.0800000  0  4G12G13G 9G 7
  20717688.594    20717693.250     4645930.875 6 -18228373.400 1
  21248959.076    21248963.965    -9624286.357 7  16096842.737 5
  23036488.726    23036490.911    -6271857.416 6  18567091.117 1
  24050214.565    24050216.782   -16686147.073 6  14958491.995 1
 86  6 20  3 17  5.0800000  0  4G12G13G 9G 7
  20718250.560    20718252.518     4648886.196 6 -18226070.556 1
  21250581.527    21250585.092    -9615758.384 6  16103487.911 3
  23040984.039    23040986.834    -6248237.994 6  18585495.873 2
  24047238.971    24047240.943   -16701791.392 7  14946301.568 1
 86  6 20  3 17 11.0800000  0  4G12G13G 9G 7
  20718816.320    20718819.947     4651867.747 5 -18223747.269 1
  21252204.768    21252209.915    -9607225.440 8  16110136.943 3
  23045481.887    23045479.308    -6224610.507 6  18603906.894 1
  24044263.335    24044261.467   -16717422.829 6  14934121.292 1
 86  6 20  3 17 17.0800000  0  4G12G13G 9G 7
  20719387.561    20719393.325     4654875.460 7 -18221403.608 1
  21253830.843    21253832.960    -9598687.465 8  16116789.912 5
  23049976.582    23049979.185    -6200975.156 7  18622324.013 1
  24041290.257    24041293.179   -16733041.857 6  14921950.598 1
 86  6 20  3 17 23.0800000  0  4G12G13G 9G 7
  20719966.892    20719968.782     4657909.444 6 -18219039.440 1
  21255455.865    21255459.236    -9590144.535 8  16123446.753 5
  23054475.952    23054477.254    -6177331.874 6  18640747.376 1
  24038320.254    24038324.499   -16748646.487 6  14909791.162 3
 86  6 20  3 17 29.0800000  0  4G12G13G 9G 7
  20720550.468    20720550.721     4660969.602 6 -18216654.911 1
  21257083.305    21257083.649    -9581596.684 7  16130107.401 3
  23058977.825    23058977.595    -6153680.810 6  18659176.748 3
                  24035359.258                    14897647.994 1
 86  6 20  3 17 35.0800000  0  4G12G13G 9G 7
  20721135.834    20721136.797     4664055.899 6 -18214250.011 1
  21258711.108    21258709.940    -9573043.884 8  16136771.944 3
  23063481.070    23063480.890    -6130021.841 6  18677612.299 1
  24032396.207    24032400.742   -16800478.645 6  14885526.134 3
 86  6 20  3 17 41.0800000  0  4G12G13G 9G 7
  20721729.813    20721734.448     4667168.325 7 -18211824.742 1
  21260338.082    21260340.268    -9564486.135 7  16143440.313 5
  23067982.485    23067986.056    -6106355.160 7  18696053.888 1
  24029439.223    24029441.860   -16816005.013 7  14873427.675 1
 86  6 20  3 17 47.0800000  0  4G12G13G 9G 7
  20722327.138    20722329.856     4670306.947 6 -18209379.059 3
  21261970.445    21261971.570    -9555923.447 8  16150112.551 3
  23072489.640    23072489.067    -6082680.634 6  18714501.539 1
  24026491.471    24026490.965   -16831504.369 6  14861350.214 4
 86  6 20  3 17 53.0800000  0  4G12G13G 9G 7
  20722930.386    20722934.753     4673471.728 7 -18206912.970 2
  21263598.836    21263602.090    -9547355.844 8  16156788.568 4
  23076997.745    23076994.131    -6058998.383 6  18732955.246 1
  24023543.358    24023546.177   -16846981.435 8  14849290.179 1
 86  6 20  3 17 59.0800000  0  4G12G13G 9G 7
  20723537.562    20723541.409     4676662.671 7 -18204426.538 3
  21265229.277    21265232.749    -9538783.422 7  16163468.379 4
  23081503.160    23081508.787    -6035308.350 6  18751415.013 1
  24020602.698    24020602.976   -16862440.430 7  14837244.210 3
 86  6 20  3 18  5.0800000  0  4G12G13G 9G 7
  20724150.101    20724150.067     4679879.782 7 -18201919.696 2
  21266861.126    21266863.714    -9530206.071 7  16170152.051 5
  23086012.456    23086015.054    -6011610.654 6  18769880.745 1
  24017662.040    24017665.658   -16877883.899 7  14825210.348 2
 86  6 20  3 18 11.0800000  0  4G12G13G 9G 7
  20724766.921    20724766.739     4683123.097 6 -18199392.445 1
  21268494.071    21268497.296    -9521623.860 7  16176839.485 3
  23090525.095    23090527.421    -5987905.236 6  18788352.509 1
  24014727.735    24014732.465   -16893314.186 7  14813186.740 1
 86  6 20  3 18 17.0800000  0  4G12G13G 9G 7
  20725389.688    20725391.368     4686392.512 6 -18196844.842 1
  21270128.701    21270130.102    -9513036.708 8  16183530.757 4
  23095038.964    23095043.662    -5964192.234 7  18806830.158 1
  24011795.074    24011798.281   -16908731.920 5  14801172.924 4
 86  6 20  3 18 23.0800000  0  4G12G13G 9G 7
  20726017.753    20726017.488     4689688.017 8 -18194276.887 6
  21271762.365    21271766.841    -9504444.695 8  16190225.859 7
  23099550.263    23099553.004    -5940471.557 8  18825313.822 7
  24008861.535    24008865.176   -16924134.598 7  14789170.851 6
 86  6 20  3 18 29.0800000  0  4G12G13G 9G 7
  20726648.303    20726649.840     4693009.691 8 -18191688.579 5
  21273399.099    21273402.631    -9495847.759 8  16196924.765 7
  23104065.408    23104068.996    -5916743.312 7  18843803.356 6
                  24005938.674                    14777185.672 6
 86  6 20  3 18 35.0800000  0  4G12G13G 9G 7
  20727283.420    20727285.997     4696357.530 8 -18189079.880 6
  21275035.862    21275039.926    -9487246.068 8  16203627.383 7
  23108582.614    23108585.876    -5893007.473 7  18862298.804 6
  24003014.703    24003016.929   -16975770.350 8  14765222.451 6
 86  6 20  3 18 41.0800000  0  4G12G13G 9G 7
  20727927.409    20727928.767     4699731.502 8 -18186450.815 7
  21276673.932    21276676.390    -9478639.598 8  16210333.726 8
  23113098.721    23113104.135    -5869264.133 7  18880800.121 7
  24000099.199    24000102.610   -16991093.111 7  14753282.658 7
 86  6 20  3 18 47.0800000  0  4G12G13G 9G 7
  20728575.075    20728576.235     4703131.556 7 -18183801.419 7
  21278313.013    21278314.429    -9470028.312 8  16217043.820 9
  23117617.707    23117622.844    -5845513.240 8  18899307.309 6
  23997187.175    23997190.507   -17006389.051 7  14741363.753 7
 86  6 20  3 18 53.0800000  0  4G12G13G 9G 7
  20729226.190    20729228.391     4706557.671 8 -18181131.716 7
  21279952.437    21279953.384    -9461412.124 8  16223757.724 6
  23122140.625    23122143.824    -5821754.898 7  18917820.291 6
  23994282.112    23994284.054   -17021662.878 7  14729462.072 7
 86  6 20  3 18 59.0800000  0  4G12G13G 9G 7
  20729881.603    20729886.018     4710010.030 8 -18178441.585 8
  21281593.025    21281595.445    -9452791.095 8  16230475.422 8
  23126663.475    23126667.481    -5797989.074 7  18936339.121 7
  23991378.072    23991380.742   -17036918.625 8  14717574.477 7
 86  6 20  3 19  5.0800000  0  4G12G13G 9G 7
  20730545.648    20730546.738     4713488.444 8 -18175731.131 8
  21283234.758    21283235.708    -9444165.217 9  16237196.876 8
  23131186.370    23131190.522    -5774215.755 7  18954863.781 6
  23988478.790    23988480.508   -17052158.846 8  14705698.992 7
 86  6 20  3 19 11.0800000  0  4G12G13G 9G 7
  20731210.798    20731215.031     4716992.994 7 -18173000.313 7
  21284876.586    21284878.260    -9435534.604 9  16243922.039 7
  23135713.701    23135713.760    -5750435.103 6  18973394.139 6
  23985581.152    23985583.479   -17067385.815 8  14693833.824 7
 86  6 20  3 19 17.0800000  0  4G12G13G 9G 7
  20731883.020    20731886.373     4720523.681 7 -18170249.132 9
  21286520.483    21286521.728    -9426899.335 9  16250650.831 9
  23140241.691    23140242.282    -5726646.986 6  18991930.349 7
  23982685.380    23982688.492   -17082599.841 8  14681978.755 7
 86  6 20  3 19 23.0800000  0  4G12G13G 9G 7
  20732560.642    20732564.187     4724080.425 8 -18167477.636 7
  21288164.256    21288165.314    -9418259.358 9  16257383.277 9
  23144769.428    23144769.015    -5702851.557 8  19010472.233 7
  23979794.150    23979796.621   -17097798.290 7  14670135.804 8
 86  6 20  3 19 29.0800000  0  4G12G13G 9G 7
  20733243.906    20733246.881     4727663.309 8 -18164685.797 7
  21289808.549    21289810.986    -9409614.589 9  16264119.467 9
  23149297.704    23149299.471    -5679048.774 7  19029019.838 8
                  23976908.786                    14658310.440 7
 86  6 20  3 19 35.0800000  0  4G12G13G 9G 7
  20733929.985    20733933.124     4731272.265 8 -18161873.634 8
  21291454.916    21291456.939    -9400965.146 9  16270859.295 8
  23153828.223    23153829.364    -5655238.712 7  19047573.137 7
  23974025.483    23974027.162   -17149226.141 8  14646507.640 8
 86  6 20  3 19 41.0800000  0  4G12G13G 9G 7
  20734621.279    20734624.084     4734907.285 8 -18159041.154 8
  21293101.156    21293103.044    -9392310.920 8  16277602.853 9
  23158362.033    23158362.227    -5631421.332 7  19066132.122 8
  23971147.207    23971148.614   -17164343.081 7  14634728.228 8
 86  6 20  3 19 47.0800000  0  4G12G13G 9G 7
  20735319.010    20735322.414     4738568.426 8 -18156188.328 8
  21294749.854    21294751.242    -9383652.000 9  16284350.067 9
  23162896.198    23162895.937    -5607596.689 7  19084696.769 7
  23968276.146    23968277.461   -17179433.317 8  14622969.605 8
 86  6 20  3 19 53.0800000  0  4G12G13G 9G 7
  20736021.179    20736023.214     4742255.665 8 -18153315.162 7
  21296398.709    21296400.815    -9374988.415 9  16291100.920 8
  23167429.247    23167431.296    -5583764.866 7  19103267.012 7
  23965407.839    23965410.725   -17194501.576 8  14611228.103 7
 86  6 20  3 19 59.0800000  0  4G12G13G 9G 7
  20736727.208    20736729.680     4745968.985 8 -18150421.672 6
  21298048.960    21298050.035    -9366320.106 9  16297855.434 8
  23171965.250    23171968.088    -5559925.872 7  19121842.844 7
  23962545.342    23962547.389   -17209551.812 8  14599500.667 7
 86  6 20  3 20  5.0800000  0  4G12G13G 9G 7
  20737438.456    20737442.304     4749708.380 8 -18147507.853 8
  21299699.672    21299700.343    -9357647.141 9  16304613.599 9
  23176502.237    23176506.629    -5536079.720 7  19140424.253 8
  23959684.514    23959685.942   -17224586.512 8  14587785.330 8
 86  6 20  3 20 11.0800000  0  4G12G13G 9G 7
  20738154.170    20738158.031     4753473.833 8 -18144573.740 7
  21301350.863    21301351.770    -9348969.557 9  16311375.358 9
  23181041.124    23181045.004    -5512226.405 7  19159011.250 8
  23956826.033    23956827.632   -17239607.828 8  14576080.408 8
 86  6 20  3 20 17.0800000  0  4G12G13G 9G 7
  20738876.275    20738879.379     4757265.429 8 -18141619.245 8
  21303003.027    21303004.302    -9340287.357 9  16318140.710 9
  23185581.402    23185586.593    -5488365.849 7  19177603.875 7
  23953970.064    23953971.508   -17254615.895 9  14564385.813 7
 86  6 20  3 20 23.0800000  0  4G12G13G 9G 7
  20739603.448    20739605.570     4761083.023 7 -18138644.492 8
  21304656.260    21304657.370    -9331600.476 9  16324909.706 9
  23190124.101    23190128.682    -5464498.285 8  19196201.976 8
  23951116.735    23951118.753   -17269607.487 8  14552704.058 7
 86  6 20  3 20 29.0800000  0  4G12G13G 9G 7
  20740334.032    20740336.770     4764926.742 8 -18135649.393 9
  21306310.345    21306310.817    -9322908.926 9  16331682.344 9
  23194666.434    23194671.673    -5440623.599 7  19214805.635 8
                  23948270.818                    14541040.671 8
 86  6 20  3 20 35.0800000  0  4G12G13G 9G 7
  20741069.929    20741072.666     4768796.528 8 -18132633.983 7
  21307964.545    21307965.867    -9314212.742 9  16338458.595 8
  23199210.032    23199216.444    -5416741.948 7  19233414.706 6
  23945423.375    23945429.953   -17320829.525 8  14529400.257 7
 86  6 20  3 20 41.0800000  0  4G12G13G 9G 7
  20741813.277    20741814.470     4772692.299 8 -18129598.315 8
  21309619.511    21309622.037    -9305511.890 9  16345238.482 8
  23203754.786    23203762.435    -5392853.229 6  19252029.268 6
  23942588.820    23942590.022   -17335737.845 8  14517783.383 8
 86  6 20  3 20 47.0800000  0  4G12G13G 9G 7
  20742559.961    20742561.239     4776614.070 8 -18126542.396 7
  21311276.839    21311278.686    -9296806.500 8  16352021.907 9
  23208302.671    23208309.444    -5368957.539 7  19270649.298 7
  23939756.668    23939758.691   -17350620.300 8  14506187.043 7
 86  6 20  3 20 53.0800000  0  4G12G13G 9G 7
  20743310.592    20743310.772     4780561.931 8 -18123466.141 7
  21312934.878    21312935.785    -9288096.453 9  16358808.950 8
  23212852.565    23212858.585    -5345054.813 7  19289274.797 7
  23936929.526    23936931.195   -17365480.271 8  14494607.862 7
 86  6 20  3 20 59.0800000  0  4G12G13G 9G 7
  20744065.661    20744067.430     4784535.866 8 -18120369.562 7
  21314591.880    21314594.135    -9279381.847 8  16365599.557 8
  23217400.541    23217407.065    -5321145.256 7  19307905.609 7
  23934104.844    23934105.115   -17380322.280 8  14483042.648 7
 86  6 20  3 21  5.0800000  0  4G12G13G 9G 7
  20744826.910    20744827.342     4788535.860 8 -18117252.681 7
  21316251.296    21316253.620    -9270662.641 8  16372393.748 8
  23221951.540    23221959.409    -5297228.811 7  19326541.806 8
  23931282.745    23931284.419   -17395148.721 8  14471489.572 8
 86  6 20  3 21 11.0800000  0  4G12G13G 9G 7
  20745592.140    20745593.976     4792561.849 7 -18114115.545 8
  21317911.543    21317913.724    -9261938.858 9  16379191.507 8
  23226504.982    23226510.413    -5273305.481 7  19345183.347 7
  23928463.740    23928464.828   -17409961.633 8  14459947.041 7
 86  6 20  3 21 17.0800000  0  4G12G13G 9G 7
  20746363.384    20746364.935     4796613.854 7 -18110958.146 7
  21319572.382    21319575.270    -9253210.529 8  16385992.802 9
  23231057.206    23231064.786    -5249375.241 6  19363830.281 8
  23925647.052    23925649.270   -17424761.199 8  14448414.908 7
 86  6 20  3 21 23.0800000  0  4G12G13G 9G 7
  20747138.334    20747140.173     4800691.876 7 -18107780.475 7
  21321233.351    21321235.558    -9244477.612 8  16392797.672 7
  23235614.500    23235619.033    -5225438.162 7  19382482.542 8
                  23922836.541                    14436896.167 7
 86  6 20  3 21 29.0800000  0  4G12G13G 9G 7
  20747919.191    20747922.259     4804795.897 8 -18104582.532 7
  21322897.160    21322899.332    -9235740.181 9  16399606.053 8
  23240170.043    23240175.311    -5201494.306 7  19401140.088 8
  23920019.997    23920027.409   -17475823.535 8  14425396.292 7
 86  6 20  3 21 35.0800000  0  4G12G13G 9G 7
  20748704.219    20748708.797     4808925.869 8 -18101364.379 7
  21324559.604    21324562.273    -9226998.326 9  16406417.883 8
  23244729.175    23244731.968    -5177543.703 7  19419802.891 7
  23917224.790    23917224.041   -17490551.794 7  14413919.885 6
 86  6 20  3 21 41.0800000  0  4G12G13G 9G 7
  20749496.003    20749499.531     4813081.847 8 -18098125.938 8
  21326223.918    21326226.960    -9218252.007 8  16413233.200 8
  23249286.406    23249291.903    -5153586.347 7  19438470.954 8
  23914427.697    23914428.308   -17505249.773 8  14402466.939 7
 86  6 20  3 21 47.0800000  0  4G12G13G 9G 7
  20750291.715    20750295.702     4817263.785 7 -18094867.295 7
  21327889.697    21327892.582    -9209501.190 9  16420052.024 8
  23253848.160    23253849.765    -5129622.310 8  19457144.232 7
  23911635.288    23911635.342   -17519921.304 7  14391034.581 7
 86  6 20  3 21 53.0800000  0  4G12G13G 9G 7
  20751093.180    20751096.616     4821471.713 7 -18091588.386 8
  21329556.249    21329558.876    -9200745.862 9  16426874.351 9
  23258409.930    23258412.494    -5105651.598 7  19475822.681 6
  23908847.198    23908848.706   -17534571.265 8  14379619.035 6
 86  6 20  3 21 59.0800000  0  4G12G13G 9G 7
  20751896.405    20751902.172     4825705.602 7 -18088289.237 8
  21331222.468    21331225.385    -9191986.069 9  16433700.157 8
  23262973.498    23262975.449    -5081674.144 8  19494506.406 7
  23906062.219    23906063.565   -17549203.297 8  14368217.455 7
 86  6 20  3 22  5.0800000  0  4G12G13G 9G 7
  20752709.378    20752712.334     4829965.479 7 -18084969.875 7
  21332891.033    21332893.906    -9183221.863 8  16440529.406 8
  23267538.233    23267540.230    -5057690.050 8  19513195.320 8
  23903280.647    23903282.105   -17563819.983 8  14356827.833 7
 86  6 20  3 22 11.0800000  0  4G12G13G 9G 7
  20753524.364    20753528.259     4834251.293 7 -18081630.279 8
  21334558.797    21334562.542    -9174453.133 9  16447362.183 9
  23272102.225    23272105.404    -5033699.374 8  19531889.348 7
  23900502.125    23900503.275   -17578422.913 9  14345448.934 7
 86  6 20  3 22 17.0800000  0  4G12G13G 9G 7
  20754344.621    20754348.818     4838563.075 6 -18078270.447 7
  21336228.911    21336231.885    -9165679.955 8  16454198.431 9
  23276668.981    23276672.022    -5009702.070 7  19550588.548 8
  23897725.503    23897728.838   -17593011.663 8  14334081.077 8
 86  6 20  3 22 23.0800000  0  4G12G13G 9G 7
  20755171.066    20755172.677     4842900.813 8 -18074890.393 7
  21337898.676    21337902.675    -9156902.389 8  16461038.101 8
  23281236.910    23281240.065    -4985698.202 8  19569292.852 8
                  23894956.756                    14322727.247 8
 86  6 20  3 22 29.0800000  0  4G12G13G 9G 7
  20756002.242    20756004.544     4847264.504 8 -18071490.112 7
  21339570.705    21339573.830    -9148120.368 8  16467881.233 8
  23285806.670    23285808.021    -4961687.833 8  19588002.241 7
  23892240.008    23892188.724   -17643867.970 7  14311393.174 8
 86  6 20  3 22 35.0800000  0  4G12G13G 9G 7
  20756837.728    20756839.905     4851654.136 8 -18068069.635 8
  21341242.681    21341243.868    -9139333.978 8  16474727.774 9
  23290376.208    23290379.078    -4937670.979 7  19606716.669 7
  23889423.111    23889426.627   -17658383.220 8  14300082.857 9
 86  6 20  3 22 41.0800000  0  4G12G13G 9G 7
  20757677.730    20757679.158     4856069.671 8 -18064628.948 7
  21342916.218    21342917.663    -9130543.157 9  16481577.775 7
  23294947.800    23294951.423    -4913647.542 7  19625436.236 7
  23886666.960    23886670.914   -17672868.140 8  14288795.927 8
 86  6 20  3 22 47.0800000  0  4G12G13G 9G 7
  20758522.407    20758524.545     4860511.151 8 -18061168.056 7
  21344589.412    21344590.817    -9121747.978 9  16488431.151 9
  23299520.743    23299525.193    -4889617.707 7  19644160.782 7
  23883916.067    23883918.718   -17687326.318 8  14277529.426 8
 86  6 20  3 22 53.0800000  0  4G12G13G 9G 7
  20759373.294    20759374.339     4864978.536 8 -18057686.978 7
  21346264.285    21346266.268    -9112948.451 8  16495287.925 8
  23304093.755    23304098.413    -4865581.450 6  19662890.326 7
  23881168.539    23881171.492   -17701763.535 8  14266279.640 7
 86  6 20  3 22 59.0800000  0  4G12G13G 9G 7
  20760227.014    20760229.150     4869471.843 7 -18054185.709 7
  21347939.493    21347940.545    -9104144.568 9  16502148.103 8
  23308669.606    23308673.363    -4841538.839 7  19681624.834 8
  23878424.743    23878427.809   -17716182.892 8  14255043.786 7
 86  6 20  3 23  5.0800000  0  4G12G13G 9G 7
  20761086.670    20761089.391     4873991.095 8 -18050664.224 7
  21349615.570    21349616.601    -9095336.307 8  16509011.684 7
  23313245.594    23313250.146    -4817489.803 8  19700364.332 7
  23875685.000    23875686.993   -17730586.666 8  14243820.072 8
 86  6 20  3 23 11.0800000  0  4G12G13G 9G 7
  20761949.310    20761953.986     4878536.246 8 -18047122.540 6
  21351291.738    21351293.603    -9086523.614 9  16515878.726 8
  23317824.020    23317828.364    -4793434.422 8  19719108.788 9
  23872946.992    23872949.813   -17744976.546 8  14232607.180 8
 86  6 20  3 23 17.0800000  0  4G12G13G 9G 7
  20762821.495    20762825.380     4883107.344 8 -18043560.646 7
  21352970.550    21352971.710    -9077706.600 8  16522749.122 8
  23322403.580    23322407.128    -4769372.737 7  19737858.151 7
  23870210.798    23870212.774   -17759352.138 8  14221405.410 8
 86  6 20  3 23 23.0800000  0  4G12G13G 9G 7
  20763696.326    20763699.577     4887704.329 7 -18039978.588 6
  21354647.933    21354650.400    -9068885.267 9  16529622.887 7
  23326980.999    23326986.493    -4745304.727 7  19756612.428 8
                  23867481.721                    14210218.313 6
 86  6 20  3 23 29.0800000  0  4G12G13G 9G 7
  20764577.013    20764578.720     4892327.251 8 -18036376.316 7
  21356328.576    21356330.193    -9060059.584 8  16536500.056 8
  23331562.104    23331568.251    -4721230.378 8  19775371.656 7
  23864724.031    23864753.436   -17809993.259 8  14199051.297 8
 86  6 20  3 23 35.0800000  0  4G12G13G 9G 7
  20765462.526    20765464.174     4896975.937 8 -18032753.968 7
  21358008.156    21358010.451    -9051229.646 9  16543380.530 7
  23336145.390    23336150.437    -4697149.903 8  19794135.669 7
  23862029.525    23862032.604   -17824293.240 8  14187908.586 8
 86  6 20  3 23 41.0800000  0  4G12G13G 9G 7
  20766352.157    20766352.268     4901650.494 7 -18029111.450 7
  21359689.995    21359692.145    -9042395.367 9  16550264.392 8
  23340729.110    23340733.288    -4673063.245 8  19812904.493 7
  23859314.412    23859317.626   -17838563.377 8  14176789.398 9
 86  6 20  3 23 47.0800000  0  4G12G13G 9G 7
  20767245.078    20767245.967     4906350.889 8 -18025448.803 5
  21361371.605    21361372.948    -9033556.800 9  16557151.600 6
  23345315.184    23345316.548    -4648970.330 8  19831678.197 6
  23856605.033    23856605.473   -17852807.042 8  14165690.438 7
 86  6 20  3 23 53.0800000  0  4G12G13G 9G 7
  20768144.622    20768145.214     4911077.093 7 -18021766.062 7
  21363053.806    21363056.207    -9024713.956 9  16564042.128 6
  23349901.080    23349903.735    -4624871.190 8  19850456.737 8
  23853898.775    23853898.531   -17867029.310 8  14154608.158 7
 86  6 20  3 23 59.0800000  0  4G12G13G 9G 7
  20769049.640    20769049.367     4915829.175 8 -18018063.139 7
  21364737.775    21364739.095    -9015866.819 9  16570936.011 7
  23354490.850    23354489.344    -4600766.007 8  19869239.998 6
  23851194.537    23851195.810   -17881233.980 8  14143539.582 7
 86  6 20  3 24  5.0800000  0  4G12G13G 9G 7
  20769958.342    20769959.122     4920607.175 8 -18014340.027 6
  21366421.816    21366423.520    -9007015.522 7  16577833.130 8
  23359079.756    23359078.436    -4576654.698 8  19888028.034 8
  23848494.202    23848495.344   -17895423.102 8  14132483.125 7
 86  6 20  3 24 11.0800000  0  4G12G13G 9G 7
  20770872.598    20770872.889     4925411.077 7 -18010596.728 6
  21368108.344    21368107.520    -8998159.978 8  16584733.561 7
  23363668.245    23363667.792    -4552537.284 9  19906820.826 7
  23845797.320    23845798.208   -17909598.143 8  14121437.622 7
 86  6 20  3 24 17.0800000  0  4G12G13G 9G 7
  20771792.070    20771792.301     4930240.809 8 -18006833.298 6
  21369793.493    21369795.015    -8989300.191 8  16591637.286 7
  23368260.031    23368257.717    -4528413.856 8  19925618.288 7
  23843101.431    23843103.211   -17923758.309 8  14110403.739 7
 86  6 20  3 24 23.0800000  0  4G12G13G 9G 7
  20772716.814    20772717.538     4935096.367 9 -18003049.755 7
  21371479.858    21371482.118    -8980436.163 9  16598544.326 7
  23372851.977    23372850.390    -4504284.310 8  19944420.527 7
                  23840412.910                    14099385.082 6
 86  6 20  3 24 29.0800000  0  4G12G13G 9G 7
  20773645.056    20773646.429     4939977.715 7 -17999246.106 6
  21373167.066    21373168.154    -8971567.889 7  16605454.657 6
  23377445.473    23377442.805    -4480148.772 9  19963227.444 7
  23837725.510    23837727.650   -17974033.581 8  14088387.412 6
 86  6 20  3 24 35.0800000  0  4G12G13G 9G 7
  20774578.211    20774581.048     4944884.856 8 -17995422.360 6
  21374855.563    21374857.444    -8962695.474 9  16612368.232 7
  23382039.182    23382035.123    -4456007.270 9  19982038.997 7
  23835044.723    23835046.582   -17988115.770 7  14077414.295 6
 86  6 20  3 24 41.0800000  0  4G12G13G 9G 7
  20775517.414    20775520.128     4949817.786 8 -17991578.533 6
  21376544.858    21376546.859    -8953818.840 8  16619285.087 6
  23386634.127    23386631.548    -4431859.813 8  20000855.193 7
  23832370.964    23832372.253   -18002167.891 8  14066464.594 6
 86  6 20  3 24 47.0800000  0  4G12G13G 9G 7
  20776459.810    20776464.118     4954776.464 7 -17987714.618 7
  21378234.019    21378237.345    -8944938.006 8  16626205.224 6
  23391230.898    23391228.713    -4407706.468 9  20019675.989 7
  23829702.148    23829703.445   -18016194.229 8  14055534.992 7
 86  6 20  3 24 53.0800000  0  4G12G13G 9G 7
  20777409.521    20777412.901     4959760.874 8 -17983830.656 7
  21379926.158    21379927.469    -8936052.954 8  16633128.631 7
  23395826.632    23395827.493    -4383547.121 8  20038501.444 7
  23827036.908    23827037.865   -18030199.349 9  14044621.919 7
 86  6 20  3 24 59.0800000  0  4G12G13G 9G 7
  20778362.909    20778365.880     4964771.153 8 -17979926.561 7
  21381616.780    21381618.349    -8927163.767 8  16640055.278 8
  23400424.221    23400423.454    -4359381.917 9  20057331.465 7
  23824375.924    23824377.311   -18044186.520 8  14033722.820 7
 86  6 20  3 25  5.0800000  0  4G12G13G 9G 7
  20779320.512    20779324.293     4969807.205 7 -17976002.366 7
  21383309.007    21383310.166    -8918270.428 8  16646985.150 7
  23405021.501    23405023.536    -4335210.965 7  20076165.952 7
  23821717.246    23821718.593   -18058158.034 8  14022835.932 6
 86  6 20  3 25 11.0800000  0  4G12G13G 9G 7
  20780283.155    20780288.751     4974868.990 7 -17972058.129 6
  21385002.089    21385003.920    -8909372.990 7  16653918.211 7
  23409623.029    23409623.666    -4311034.130 8  20095005.049 7
  23819061.185    23819061.379   -18072115.487 7  14011959.991 7
 86  6 20  3 25 17.0800000  0  4G12G13G 9G 7
  20781252.255    20781255.524     4979956.579 8 -17968093.762 7
  21386695.110    21386697.372    -8900471.345 8  16660854.569 7
  23414224.373    23414225.969    -4286851.490 7  20113848.637 7
  23816406.629    23816408.366   -18086057.727 8  14001095.907 7
 86  6 20  3 25 23.0800000  0  4G12G13G 9G 7
  20782224.227    20782229.520     4985069.870 8 -17964109.375 8
  21388390.404    21388391.896    -8891565.554 8  16667794.133 8
  23418828.121    23418830.269    -4262663.021 7  20132696.802 7
                  23813760.531                    13990247.556 7
 86  6 20  3 25 29.0800000  0  4G12G13G 9G 7
  20783202.379    20783206.933     4990208.946 8 -17960104.907 7
  21390085.863    21390088.017    -8882655.674 8  16674736.911 7
  23423430.873    23423434.014    -4238468.906 7  20151549.367 7
  23811112.841    23811113.980   -18136258.583 8  13979420.831 7
 86  6 20  3 25 35.0800000  0  4G12G13G 9G 7
  20784185.676    20784189.783     4995373.786 8 -17956080.363 6
  21391782.590    21391782.144    -8873741.689 8  16681682.878 6
  23428037.826    23428039.656    -4214269.167 7  20170406.288 5
  23808475.715    23808478.294   -18150121.090 7  13968618.872 6
 86  6 20  3 25 41.0800000  0  4G12G13G 9G 7
  20785174.065    20785180.139     5000564.307 8 -17952035.805 8
  21393480.622    21393480.972    -8864823.574 8  16688632.059 7
  23432643.297    23432645.222    -4190063.699 7  20189267.700 7
  23805843.837    23805845.985   -18163953.054 8  13957840.330 8
 86  6 20  3 25 47.0800000  0  4G12G13G 9G 7
  20786166.558    20786172.084     5005780.610 7 -17947971.145 8
  21395178.179    21395178.320    -8855901.363 8  16695584.429 8
  23437251.967    23437252.392    -4165852.470 7  20208133.575 7
  23803216.249    23803218.617   -18177759.912 8  13947081.747 7
 86  6 20  3 25 53.0800000  0  4G12G13G 9G 7
  20787166.547    20787168.785     5011022.657 7 -17943886.427 7
  21396876.662    21396877.356    -8846975.101 8  16702539.962 7
  23441861.118    23441860.711    -4141635.688 8  20227003.797 7
  23800593.593    23800594.668   -18191545.561 9  13936339.673 8
 86  6 20  3 25 59.0800000  0  4G12G13G 9G 7
  20788167.583    20788169.825     5016290.411 7 -17939781.686 7
  21398576.183    21398576.087    -8838044.885 8  16709498.574 7
  23446469.553    23446470.197    -4117413.271 7  20245878.400 7
  23797973.429    23797974.488   -18205313.277 8  13925611.589 8
 86  6 20  3 26  5.0800000  0  4G12G13G 9G 7
  20789174.035    20789178.295     5021583.841 9 -17935656.926 8
  21400275.586    21400275.802    -8829110.606 7  16716460.348 8
  23451081.761    23451080.584    -4093185.307 7  20264757.318 7
  23795356.773    23795357.233   -18219065.281 9  13914895.754 8
 86  6 20  3 26 11.0800000  0  4G12G13G 9G 7
  20790186.654    20790189.836     5026903.070 8 -17931512.080 8
  21401976.482    21401977.500    -8820172.190 8  16723425.352 7
  23455691.736    23455691.432    -4068951.708 8  20283640.642 8
  23792743.609    23792743.191   -18232802.812 8  13904191.185 8
 86  6 20  3 26 17.0800000  0  4G12G13G 9G 7
  20791203.289    20791206.165     5032247.906 7 -17927347.286 8
  21403679.017    21403679.480    -8811229.704 8  16730393.525 8
  23460304.001    23460305.116    -4044712.595 7  20302528.246 9
  23790131.848    23790133.295   -18246524.615 9  13893498.869 7
 86  6 20  3 26 23.0800000  0  4G12G13G 9G 7
  20792225.429    20792228.171     5037618.389 8 -17923162.490 8
  21405381.169    21405382.565    -8802283.179 8  16737364.850 8
  23464916.008    23464916.554    -4020467.971 8  20321420.162 8
                  23787525.556                    13882823.117 7
 86  6 20  3 26 29.0800000  0  4G12G13G 9G 7
  20793250.374    20793254.642     5043014.548 7 -17918957.695 8
  21407084.774    21407086.168    -8793332.625 8  16744339.297 7
  23469530.832    23469532.903    -3996217.889 7  20340316.313 8
  23784922.772    23784925.190   -18296509.753 7  13872169.575 8
 86  6 20  3 26 35.0800000  0  4G12G13G 9G 7
  20794282.118    20794286.316     5048436.387 8 -17914732.874 7
  21408788.662    21408789.158    -8784378.067 8  16751316.867 8
  23474146.210    23474147.978    -3971962.364 7  20359216.726 8
  23782327.885    23782329.454   -18310149.943 7  13861540.823 8
 86  6 20  3 26 41.0800000  0  4G12G13G 9G 7
  20795319.831    20795323.598     5053883.850 7 -17910488.101 7
  21410493.459    21410494.818    -8775419.564 9  16758297.525 7
  23478763.924    23478765.466    -3947701.344 7  20378121.396 7
  23779737.558    23779739.968   -18323760.718 8  13850935.411 8
 86  6 20  3 26 47.0800000  0  4G12G13G 9G 7
  20796359.731    20796364.185     5059356.907 7 -17906223.381 7
  21412198.434    21412200.249    -8766457.118 8  16765281.246 7
  23483379.943    23483382.321    -3923435.001 7  20397030.239 7
  23777152.316    23777153.849   -18337345.595 7  13840349.791 8
 86  6 20  3 26 53.0800000  0  4G12G13G 9G 7
  20797406.905    20797411.760     5064855.655 7 -17901938.639 7
  21413905.193    21413905.880    -8757490.681 8  16772268.082 8
  23487998.172    23488001.036    -3899163.259 8  20415943.276 7
  23774571.131    23774571.726   -18350909.352 8  13829780.631 8
 86  6 20  3 26 59.0800000  0  4G12G13G 9G 7
  20798459.471    20798462.832     5070380.035 8 -17897633.934 8
  21415612.912    21415613.097    -8748520.331 8  16779257.960 8
  23492617.843    23492621.380    -3874886.168 7  20434860.482 7
  23771992.414    23771994.846   -18364455.251 7  13819225.387 7
 86  6 20  3 27  5.0800000  0  4G12G13G 9G 7
  20799515.653    20799518.783     5075930.023 7 -17893309.257 7
  21417320.643    21417322.432    -8739545.984 8  16786250.951 8
  23497237.028    23497241.875    -3850603.770 6  20453781.824 7
  23769416.233    23769421.128   -18377985.549 7  13808682.285 7
 86  6 20  3 27 11.0800000  0  4G12G13G 9G 7
  20800576.087    20800578.038     5081505.582 7 -17888964.667 6
  21419026.958    21419028.457    -8730567.729 8  16793246.999 6
  23501859.292    23501862.362    -3826316.127 7  20472707.272 6
  23766845.864    23766848.076   -18391501.239 7  13798150.588 6
 86  6 20  3 27 17.0800000  0  4G12G13G 9G 7
  20801641.139    20801643.917     5087106.824 7 -17884600.078 6
  21420736.012    21420739.709    -8721585.538 7  16800246.107 7
  23506483.004    23506485.871    -3802023.090 7  20491636.908 6
  23764276.877    23764280.202   -18405000.747 8  13787631.477 7
 86  6 20  3 27 23.0800000  0  4G12G13G 9G 7
  20802712.668    20802715.481     5092733.637 8 -17880215.565 7
  21422446.189    21422450.397    -8712599.371 8  16807248.312 7
  23511104.873    23511111.352    -3777724.926 7  20510570.531 7
                  23761716.568                    13777129.640 6
 86  6 20  3 27 29.0800000  0  4G12G13G 9G 7
  20803787.676    20803790.041     5098386.033 8 -17875811.095 7
  21424156.759    21424159.749    -8703609.417 7  16814253.473 6
  23515730.451    23515736.091    -3753421.562 8  20529508.227 7
  23759153.151    23759157.274   -18454761.831 7  13766650.531 7
 86  6 20  3 27 35.0800000  0  4G12G13G 9G 7
  20804868.264    20804871.198     5104063.999 7 -17871386.704 7
  21425868.087    21425869.571    -8694615.569 7  16821261.654 6
  23520358.433    23520360.753    -3729113.014 7  20548449.952 7
  23756600.851    23756603.179   -18468177.862 7  13756196.480 8
 86  6 20  3 27 41.0800000  0  4G12G13G 9G 7
  20805954.898    20805955.797     5109767.544 8 -17866942.378 7
  21427581.769    21427582.642    -8685617.797 8  16828272.910 6
  23524984.429    23524988.715    -3704799.277 6  20567395.707 7
  23754053.653    23754055.981   -18481563.561 8  13745765.663 7
 86  6 20  3 27 47.0800000  0  4G12G13G 9G 7
  20807045.531    20807046.660     5115496.609 8 -17862478.174 7
  21429295.651    21429294.647    -8676616.101 7  16835287.219 8
  23529613.384    23529615.730    -3680480.420 7  20586345.469 7
  23751512.246    23751513.310   -18494924.518 9  13735354.528 7
 86  6 20  3 27 53.0800000  0  4G12G13G 9G 7
  20808139.673    20808140.283     5121251.278 8 -17857994.028 7
  21431008.147    21431007.936    -8667610.482 7  16842304.581 7
  23534241.675    23534243.780    -3656156.526 7  20605299.149 7
  23748974.330    23748975.160   -18508264.560 7  13724959.698 6
 86  6 20  3 27 59.0800000  0  4G12G13G 9G 7
  20809240.400    20809241.003     5127031.493 7 -17853489.970 7
  21432722.901    21432723.460    -8658601.028 7  16849324.926 7
  23538870.939    23538874.429    -3631827.458 7  20624256.859 8
  23746439.123    23746439.599   -18521586.606 8  13714578.891 7
 86  6 20  3 28  5.0800000  0  4G12G13G 9G 7
  20810346.214    20810346.035     5132837.305 7 -17848965.969 7
  21434438.677    21434437.666    -8649587.643 8  16856348.346 7
  23543500.398    23543504.386    -3607493.356 8  20643218.492 7
  23743907.740    23743908.178   -18534892.815 8  13704210.417 7
 86  6 20  3 28 11.0800000  0  4G12G13G 9G 7
  20811454.926    20811456.358     5138668.641 8 -17844422.071 7
  21436155.236    21436153.905    -8640570.293 8  16863374.866 7
  23548134.332    23548137.071    -3583154.229 6  20662184.033 7
  23741378.525    23741378.366   -18548184.201 9  13693853.499 7
 86  6 20  3 28 17.0800000  0  4G12G13G 9G 7
  20812568.802    20812570.800     5144525.465 7 -17839858.306 7
  21437871.197    21437871.949    -8631549.087 8  16870404.385 7
  23552765.863    23552768.876    -3558810.168 7  20681153.418 7
  23738852.771    23738852.422   -18561458.718 8  13683509.735 7
 86  6 20  3 28 23.0800000  0  4G12G13G 9G 7
  20813688.359    20813691.998     5150407.876 8 -17835274.617 7
  21439588.527    21439588.864    -8622524.041 9  16877436.882 7
  23557399.866    23557402.770    -3534461.050 7  20700126.764 8
                  23736332.797                    13673183.811 7
 86  6 20  3 28 29.0800000  0  4G12G13G 9G 7
  20814812.355    20814816.108     5156315.726 8 -17830671.106 6
  21441306.717    21441307.954    -8613495.186 8  16884472.360 7
  23562033.469    23562037.332    -3510106.912 7  20719104.004 8
  23733814.059    23733813.137   -18610844.738 8  13662881.030 7
 86  6 20  3 28 35.0800000  0  4G12G13G 9G 7
  20815940.433    20815944.058     5162249.069 8 -17826047.706 6
  21443025.022    21443027.383    -8604462.514 9  16891510.802 7
  23566668.548    23566671.558    -3485747.940 7  20738085.010 7
  23731304.600    23731304.936   -18624034.128 9  13652603.588 7
 86  6 20  3 28 41.0800000  0  4G12G13G 9G 7
  20817074.538    20817078.108     5168207.928 8 -17821404.440 7
  21444744.470    21444746.347    -8595426.129 8  16898552.148 7
  23571304.858    23571310.567    -3461384.041 7  20757069.861 6
  23728799.224    23728800.841   -18637194.441 9  13642349.194 6
 86  6 20  3 28 47.0800000  0  4G12G13G 9G 7
  20818214.886    20818216.347     5174192.215 7 -17816741.372 7
  21446463.761    21446467.496    -8586385.947 8  16905596.444 5
  23575942.873    23575946.404    -3437015.292 7  20776058.493 8
  23726300.877    23726299.270   -18650328.977 8  13632114.494 7
 86  6 20  3 28 53.0800000  0  4G12G13G 9G 7
  20819359.331    20819360.224     5180201.971 7 -17812058.440 6
  21448185.082    21448187.903    -8577342.053 8  16912643.627 7
  23580579.630    23580584.045    -3412641.729 8  20795050.874 6
  23723805.192    23723805.327   -18663442.702 8  13621896.008 7
 86  6 20  3 28 59.0800000  0  4G12G13G 9G 7
  20820506.124    20820508.657     5186237.137 7 -17807355.714 6
  21449907.227    21449909.394    -8568294.411 8  16919693.744 7
  23585221.526    23585223.429    -3388263.304 7  20814047.043 8
  23721314.409    23721312.359   -18676538.462 8  13611691.527 6
 86  6 20  3 29  5.0800000  0  4G12G13G 9G 7
  20821659.791    20821660.139     5192297.741 7 -17802633.188 6
  21451631.750    21451631.504    -8559242.867 9  16926746.905 6
  23589859.582    23589864.469    -3363880.147 7  20833046.902 6
  23718824.050    23718823.413   -18689618.593 8  13601499.208 6
 86  6 20  3 29 11.0800000  0  4G12G13G 9G 7
  20822818.180    20822819.925     5198383.806 7 -17797890.802 7
  21453354.023    21453354.319    -8550187.489 8  16933803.043 7
  23594501.438    23594504.351    -3339492.188 7  20852050.512 8
  23716338.504    23716337.263   -18702683.672 7  13591318.627 8
 86  6 20  3 29 17.0800000  0  4G12G13G 9G 7
  20823980.662    20823982.182     5204495.240 8 -17793128.652 7
  21455077.937    21455079.113    -8541128.424 8  16940862.068 7
  23599143.729    23599146.210    -3315099.374 8  20871057.894 8
  23713855.030    23713854.610   -18715731.476 7  13581151.493 8
 86  6 20  3 29 23.0800000  0  4G12G13G 9G 7
  20825148.036    20825151.072     5210632.081 7 -17788346.696 7
  21456801.908    21456803.807    -8532065.583 8  16947924.015 7
  23603786.535    23603789.254    -3290701.992 7  20890068.858 7
                  23711376.019                    13571002.941 8
 86  6 20  3 29 29.0800000  0  4G12G13G 9G 7
  20826319.621    20826322.383     5216794.337 8 -17783544.933 7
  21458527.936    21458528.016    -8522999.070 9  16954988.825 8
  23608428.277    23608431.742    -3266299.891 7  20909083.468 8
  23708903.761    23708902.150   -18765036.420 7  13560878.146 8
 86  6 20  3 29 35.0800000  0  4G12G13G 9G 7
  20827496.633    20827500.935     5222982.058 7 -17778723.343 7
  21460252.781    21460253.267    -8513928.883 8  16962056.516 7
  23613074.134    23613076.898    -3241893.127 7  20928101.730 8
  23706436.717    23706436.553   -18777997.372 7  13550778.728 8
 86  6 20  3 29 41.0800000  0  4G12G13G 9G 7
  20828677.776    20828684.171     5229195.154 7 -17773881.964 8
  21461981.094    21461981.228    -8504854.952 9  16969127.108 7
  23617719.052    23617722.125    -3217481.720 7  20947123.590 7
  23703974.876    23703976.198   -18790928.250 7  13540702.330 7
 86  6 20  3 29 47.0800000  0  4G12G13G 9G 7
  20829865.867    20829870.092     5235433.633 8 -17769020.806 7
  21463706.677    21463708.381    -8495777.329 8  16976200.571 7
  23622364.526    23622367.336    -3193065.692 8  20966149.074 8
  23701519.200    23701522.502   -18803834.660 7  13530645.379 8
 86  6 20  3 29 53.0800000  0  4G12G13G 9G 7
  20831057.039    20831062.140     5241697.480 7 -17764139.876 8
  21465435.672    21465437.132    -8486695.979 8  16983276.959 8
  23627011.762    23627014.990    -3168645.025 7  20985178.157 8
  23699067.692    23699070.125   -18816720.323 7  13520604.602 8
 86  6 20  3 29 59.0800000  0  4G12G13G 9G 7
  20832255.024    20832258.643     5247986.608 6 -17759239.256 7
  21467164.114    21467165.629    -8477610.934 9  16990356.204 8
  23631660.750    23631662.676    -3144219.897 7  21004210.716 6
  23696618.875    23696620.139   -18829588.067 8  13510577.791 7
 86  6 20  3 30  5.0800000  0  4G12G13G 9G 7
  20833458.392    20833460.761     5254301.094 7 -17754318.869 7
  21468893.761    21468895.193    -8468522.275 8  16997438.272 6
  23636308.307    23636311.695    -3119790.180 8  21023246.851 7
  23694173.500    23694174.770   -18842439.873 7  13500563.393 6
 86  6 20  3 30 11.0800000  0  4G12G13G 9G 7
  20834665.614    20834667.292     5260640.978 7 -17749378.692 6
  21470622.947    21470625.546    -8459429.958 8  17004523.199 8
  23640958.543    23640961.435    -3095355.874 8  21042286.556 7
  23691730.406    23691732.414   -18855276.444 8  13490560.867 7
 86  6 20  3 30 17.0800000  0  4G12G13G 9G 7
  20835876.425    20835878.937     5267006.244 7 -17744418.754 7
  21472353.828    21472356.739    -8450333.943 8  17011611.001 8
  23645607.748    23645611.674    -3070917.216 8  21061329.665 7
  23689291.615    23689292.363   -18868095.015 8  13480572.359 8
 86  6 20  3 30 23.0800000  0  4G12G13G 9G 7
  20837091.812    20837094.898     5273396.893 7 -17739439.018 7
  21474084.676    21474087.677    -8441234.233 9  17018701.659 6
  23650259.518    23650261.944    -3046474.043 7  21080376.287 6
                  23686857.564                    13470603.024 6
 86  6 20  3 30 29.0800000  0  4G12G13G 9G 7
  20838312.747    20838315.299     5279812.860 8 -17734439.587 8
  21475818.157    21475821.504    -8432130.900 7  17025795.184 8
  23654910.910    23654913.470    -3022026.456 7  21099426.359 8
  23684427.445    23684430.130   -18917174.942 9  13460657.870 7
 86  6 20  3 30 35.0800000  0  4G12G13G 9G 7
  20839538.068    20839540.868     5286254.036 7 -17729420.487 7
  21477548.997    21477554.417    -8423023.983 8  17032891.476 7
  23659563.560    23659567.014    -2997574.562 7  21118479.758 6
  23682005.823    23682007.049   -18929905.212 8  13450738.187 7
 86  6 20  3 30 41.0800000  0  4G12G13G 9G 7
  20840767.504    20840773.151     5292720.518 7 -17724381.668 7
  21479285.101    21479288.245    -8413913.456 8  17039990.583 7
  23664217.288    23664221.139    -2973118.209 7  21137536.666 7
  23679589.652    23679589.221   -18942605.955 8  13440841.490 7
 86  6 20  3 30 47.0800000  0  4G12G13G 9G 7
  20842002.891    20842008.486     5299212.309 8 -17719323.133 6
  21481018.719    21481021.706    -8404799.311 8  17047092.521 7
  23668870.969    23668876.131    -2948657.541 7  21156596.912 7
  23677175.947    23677178.038   -18955281.990 8  13430964.076 7
 86  6 20  3 30 53.0800000  0  4G12G13G 9G 7
  20843242.372    20843247.828     5305729.323 7 -17714244.941 7
  21482754.972    21482756.152    -8395681.514 8  17054197.280 7
  23673528.273    23673531.841    -2924192.638 7  21175660.474 8
  23674767.701    23674768.946   -18967937.389 7  13421102.727 8
 86  6 20  3 30 59.0800000  0  4G12G13G 9G 7
  20844487.737    20844492.262     5312271.620 7 -17709147.059 8
  21484490.486    21484493.463    -8386560.030 9  17061304.954 7
  23678186.854    23678188.507    -2899723.369 7  21194727.436 7
  23672363.243    23672365.683   -18980574.690 9  13411255.470 7
 86  6 20  3 31  5.0800000  0  4G12G13G 9G 7
  20845738.868    20845743.198     5318839.196 6 -17704029.464 8
  21486227.212    21486229.570    -8377434.969 9  17068415.384 8
  23682841.680    23682846.696    -2875249.815 6  21213797.729 8
  23669961.787    23669963.729   -18993196.035 8  13401420.667 8
 86  6 20  3 31 11.0800000  0  4G12G13G 9G 7
  20846994.202    20846996.898     5325432.009 7 -17698892.209 7
  21487965.773    21487967.870    -8368306.355 8  17075528.596 6
  23687500.804    23687503.826    -2850772.090 7  21232871.280 8
  23667562.747    23667566.592   -19005801.890 8  13391597.910 7
 86  6 20  3 31 17.0800000  0  4G12G13G 9G 7
  20848252.744    20848255.848     5332050.037 7 -17693735.338 4
  21489702.061    21489702.888    -8359174.162 7  17082644.559 5
  23692160.244    23692164.353    -2826290.060 7  21251948.171 6
  23665167.627    23665167.661   -19018389.300 7  13381789.510 6
 86  6 20  3 31 23.0800000  0  4G12G13G 9G 7
  20849517.492    20849520.274     5338693.309 7 -17688558.748 7
  21491440.969    21491440.765    -8350038.411 7  17089763.347 5
  23696818.756    23696823.117    -2801803.888 7  21271028.315 6
                  23662779.460                    13372000.945 5
 86  6 20  3 31 29.0800000  0  4G12G13G 9G 7
  20850787.370    20850790.377     5345361.723 7 -17683362.583 6
  21493180.315    21493181.968    -8340899.185 8  17096884.830 5
  23701479.706    23701483.964    -2777313.597 8  21290111.644 6
  23660392.978    23660397.439   -19067310.744 8  13362236.974 6
 86  6 20  3 31 35.0800000  0  4G12G13G 9G 7
  20852059.563    20852062.628     5352055.333 8 -17678146.778 6
  21494919.380    21494920.052    -8331756.511 8  17104008.982 6
  23706141.063    23706145.641    -2752819.217 7  21309198.170 6
  23658013.574    23658016.409   -19079808.247 7  13352498.680 5
 86  6 20  3 31 41.0800000  0  4G12G13G 9G 7
  20853339.353    20853342.315     5358774.242 8 -17672911.272 6
  21496661.187    21496661.657    -8322610.282 8  17111135.916 6
  23710802.254    23710808.729    -2728320.634 7  21328287.981 6
  23655641.912    23655644.784   -19092276.477 7  13342783.183 7
 86  6 20  3 31 47.0800000  0  4G12G13G 9G 7
  20854621.478    20854624.394     5365518.271 7 -17667656.192 5
  21498401.418    21498403.155    -8313460.555 6  17118265.575 5
  23715464.727    23715469.903    -2703817.933 6  21347380.963 6
  23653273.912    23653277.006   -19104720.146 8  13333086.801 5
 86  6 20  3 31 53.0800000  0  4G12G13G 9G 7
  20855910.958    20855910.947     5372287.505 8 -17662381.465 6
  21500143.031    21500144.756    -8304307.333 7  17125397.967 6
  23720127.245    23720132.247    -2679311.302 7  21366477.054 6
  23650910.153    23650911.810   -19117143.115 7  13323406.577 7
 86  6 20  3 31 59.0800000  0  4G12G13G 9G 7
  20857205.279    20857205.297     5379081.950 9 -17657087.115 4
  21501884.952    21501889.598    -8295150.611 7  17132533.055 6
  23724791.035    23724796.600    -2654800.581 6  21385576.319 6
  23648549.636    23648550.957   -19129548.034 9  13313740.398 6
 86  6 20  3 32  5.0800000  0  4G12G13G 9G 7
  20858504.584    20858502.317     5385901.539 8 -17651773.132 5
  21503628.912    21503630.242    -8285990.339 8  17139670.938 5
  23729456.633    23729463.099    -2630285.843 7  21404678.710 6
  23646192.064    23646193.432   -19141936.981 8  13304086.693 6
 86  6 20  3 32 11.0800000  0  4G12G13G 9G 7
  20859805.799    20859804.217     5392746.276 8 -17646439.589 7
  21505373.647    21505372.399    -8276826.586 7  17146811.549 4
  23734121.910    23734127.822    -2605767.129 6  21423784.211 6
  23643837.759    23643839.748   -19154309.991 9  13294445.378 6
 86  6 20  3 32 17.0800000  0  4G12G13G 9G 7
  20861112.859    20861113.484     5399616.131 8 -17641086.460 5
  21507115.975    21507118.647    -8267659.337 7  17153954.858 6
  23738789.729    23738794.256    -2581244.422 7  21442892.803 6
                  23641487.152   -19166663.719 8
 86  6 20  3 32 23.0800000  0  4G12G13G 9G 7
  20862424.072    20862424.132     5406511.017 7 -17635713.821 6
  21508862.725    21508864.041    -8258488.584 8  17161100.888 6
  23743456.620    23743461.018    -2556717.882 7  21462004.392 5
  23639141.049    23639250.915   -19178991.470 8  13331155.994 7
 86  6 20  3 32 29.0800000  0  4G12G13G 9G 7
  20863740.261    20863743.671     5413431.106 8 -17630321.549 6
  21510607.905    21510611.223    -8249314.348 8  17168249.643 5
  23748124.840    23748127.830    -2532187.348 7  21481119.106 6
  23636802.400    23636802.527   -19191286.885 8  13321575.239 6
 86  6 20  3 32 35.0800000  0  4G12G13G 9G 7
  20865061.897    20865062.757     5420376.330 8 -17624909.667 5
  21512354.379    21512354.369    -8240136.636 8  17175401.095 5
  23752793.025    23752797.286    -2507653.088 7  21500236.703 5
  23634469.514    23634470.396   -19203549.618 8  13312019.843 6
 86  6 20  3 32 41.0800000  0  4G12G13G 9G 7
  20866387.815    20866390.517     5427346.621 7 -17619478.274 6
  21514103.117    21514104.844    -8230955.489 8  17182555.243 7
  23757463.322    23757464.274    -2483114.892 7  21519357.383 7
  23632139.118    23632140.775   -19215783.180 8  13302487.216 7
 86  6 20  3 32 47.0800000  0  4G12G13G 9G 7
  20867718.878    20867721.300     5434341.988 8 -17614027.343 6
  21515848.671    21515852.618    -8221770.934 8  17189712.023 6
  23762133.281    23762135.046    -2458572.821 7  21538481.060 7
  23629816.001    23629817.925   -19227992.299 8  13292973.604 7
 86  6 20  3 32 53.0800000  0  4G12G13G 9G 7
  20869055.873    20869057.355     5441362.383 7 -17608556.892 6
  21517597.770    21517599.840    -8212583.087 8  17196871.396 6
  23766805.232    23766805.555    -2434026.951 8  21557607.730 7
  23627497.031    23627498.444   -19240180.714 8  13283476.146 8
 86  6 20  3 32 59.0800000  0  4G12G13G 9G 7
  20870396.018    20870397.280     5448407.854 7 -17603066.930 6
  21519345.961    21519348.101    -8203391.814 7  17204033.434 7
  23771476.932    23771475.434    -2409477.286 8  21576737.328 6
  23625180.346    23625181.995   -19252351.138 8  13273992.697 7
 86  6 20  3 33  5.0800000  0  4G12G13G 9G 7
  20871741.915    20871744.201     5455478.291 8 -17597557.496 6
  21521094.958    21521099.006    -8194197.058 8  17211198.173 6
  23776149.083    23776150.207    -2384923.977 8  21595869.776 7
  23622866.132    23622868.226   -19264505.270 8  13264521.955 8
 86  6 20  3 33 11.0800000  0  4G12G13G 9G 7
  20873093.139    20873094.559     5462573.722 8 -17592028.578 6
  21522845.972    21522848.852    -8184998.944 8  17218365.545 7
  23780823.376    23780822.777    -2360366.897 7  21615005.159 8
  23620556.868    23620559.135   -19276643.190 8  13255063.839 7
 86  6 20  3 33 17.0800000  0  4G12G13G 9G 7
  20874448.703    20874448.336     5469694.217 8 -17586480.163 7
  21524596.852    21524597.477    -8175797.383 6  17225535.583 7
  23785496.620    23785496.431    -2335806.202 7  21634143.371 8
  23618251.687    23618253.017   -19288761.414 7  13245621.067 9
 86  6 20  3 33 23.0800000  0  4G12G13G 9G 7
  20875807.790    20875808.362     5476839.732 9 -17580912.224 8
  21526349.091    21526350.451    -8166592.439 8  17232708.259 7
  23790172.807    23790171.687    -2311241.775 7  21653284.478 6
                  23615953.249                    13236199.366 7
 86  6 20  3 33 29.0800000  0  4G12G13G 9G 7
  20877171.286    20877172.316     5484010.230 8 -17575324.836 7
  21528102.025    21528100.416    -8157384.166 7  17239883.550 6
  23794845.857    23794846.653    -2286673.683 8  21672428.430 7
  23613655.475    23613657.521   -19337298.718 7  13226803.045 8
 86  6 20  3 33 35.0800000  0  4G12G13G 9G 7
  20878540.798    20878541.922     5491205.750 9 -17569717.942 7
  21529854.421    21529854.106    -8148172.511 7  17247061.465 7
  23799522.662    23799522.430    -2262102.083 7  21691575.135 8
  23611366.377    23611370.121   -19349324.608 8  13217432.234 9
 86  6 20  3 33 41.0800000  0  4G12G13G 9G 7
  20879914.355    20879916.158     5498426.273 8 -17564091.569 8
  21531607.867    21531608.069    -8138957.540 7  17254241.971 6
  23804200.011    23804199.976    -2237526.827 8  21710724.692 7
  23609084.868    23609086.957   -19361321.813 7  13208084.157 9
 86  6 20  3 33 47.0800000  0  4G12G13G 9G 7
  20881293.196    20881296.747     5505671.779 9 -17558445.743 8
  21533362.407    21533362.985    -8129739.200 7  17261425.082 5
  23808875.099    23808878.051    -2212948.070 7  21729876.954 7
  23606805.183    23606809.360   -19373294.449 7  13198754.816 8
 86  6 20  3 33 53.0800000  0  4G12G13G 9G 7
  20882676.212    20882679.031     5512942.232 8 -17552780.454 7
  21535116.949    21535117.268    -8120517.552 7  17268610.803 6
  23813553.609    23813555.512    -2188365.741 7  21749032.021 7
  23604530.443    23604534.286   -19385246.548 7  13189441.508 7
 86  6 20  3 33 59.0800000  0  4G12G13G 9G 7
  20884064.178    20884067.562     5520237.625 8 -17547095.739 7
  21536874.218    21536872.959    -8111292.583 7  17275799.098 6
  23818232.521    23818233.920    -2163779.837 8  21768189.859 8
  23602259.887    23602264.075   -19397180.467 8  13180142.357 8
 86  6 20  3 34  5.0800000  0  4G12G13G 9G 7
  20885457.029    20885460.403     5527557.921 7 -17541391.611 8
  21538629.132    21538628.334    -8102064.321 7  17282989.963 6
  23822912.119    23822913.809    -2139190.501 7  21787350.378 8
  23599992.987    23599995.592   -19409098.068 7  13170855.910 9
 86  6 20  3 34 11.0800000  0  4G12G13G 9G 7
  20886854.639    20886859.429     5534903.116 8 -17535668.073 8
  21540386.182    21540387.809    -8092832.712 7  17290183.433 6
  23827592.930    23827594.538    -2114597.691 7  21806513.603 8
  23597727.375    23597731.362   -19420999.104 7  13161582.381 8
 86  6 20  3 34 17.0800000  0  4G12G13G 9G 7
  20888257.746    20888261.660     5542273.214 7 -17529925.150 8
  21542143.736    21542144.581    -8083597.725 8  17297379.548 6
  23832271.744    23832274.866    -2090001.547 8  21825679.423 8
                  23595469.966                    13152324.846 8
 86  6 20  3 34 23.0800000  0  4G12G13G 9G 7
  20889664.653    20889668.355     5549668.158 8 -17524162.853 8
  21543901.339    21543902.973    -8074359.455 7  17304578.177 7
  23836953.826    23836957.042    -2065401.855 8  21844848.005 8
  23593214.376    23593214.347   -19469117.684 7  13143088.744 8
 86  6 20  3 34 29.0800000  0  4G12G13G 9G 7
  20891078.895    20891080.392     5557088.000 8 -17518381.153 8
  21545658.387    21545660.869    -8065117.889 7  17311779.426 6
  23841635.084    23841637.556    -2040798.851 8  21864019.191 7
  23590963.359    23590965.420   -19480937.883 7  13133878.533 8
 86  6 20  3 34 35.0800000  0  4G12G13G 9G 7
  20892494.615    20892497.173     5564532.742 8 -17512580.055 7
  21547419.336    21547420.351    -8055873.094 8  17318983.167 7
  23846318.420    23846320.540    -2016192.400 7  21883193.052 7
  23588718.733    23588722.675   -19492724.980 8  13124693.773 7
 86  6 20  3 34 41.0800000  0  4G12G13G 9G 7
  20893916.207    20893917.758     5572002.362 8 -17506759.574 8
  21549177.666    21549180.125    -8046625.000 7  17326189.476 6
  23851001.979    23851003.549    -1991582.712 8  21902369.422 7
  23586482.312    23586484.162   -19504482.776 8  13115531.462 8
 86  6 20  3 34 47.0800000  0  4G12G13G 9G 7
  20895343.929    20895344.448     5579496.844 8 -17500919.716 8
  21550937.646    21550939.824    -8037373.534 6  17333398.414 7
  23855687.026    23855686.665    -1966969.740 7  21921548.361 8
  23584247.970    23584251.528   -19516217.059 7  13106387.871 8
 86  6 20  3 34 53.0800000  0  4G12G13G 9G 7
  20896774.559    20896774.521     5587016.202 9 -17495060.498 7
  21552700.499    21552702.271    -8028118.868 7  17340609.837 6
  23860371.466    23860372.175    -1942353.434 7  21940729.891 8
  23582020.144    23582020.476   -19527930.849 8  13097260.260 8
 86  6 20  3 34 59.0800000  0  4G12G13G 9G 7
  20898208.882    20898210.891     5594560.381 8 -17489181.909 8
  21554460.904    21554462.350    -8018861.001 7  17347823.761 7
  23865056.754    23865056.123    -1917733.933 6  21959913.930 8
  23579793.862    23579796.227   -19539626.459 8  13088146.807 8
 86  6 20  3 35  5.0800000  0  4G12G13G 9G 7
  20899647.992    20899649.766     5602129.297 8 -17483284.046 7
  21556223.436    21556224.744    -8009599.939 6  17355040.187 6
  23869743.254    23869742.132    -1893111.104 7  21979100.546 7
  23577572.494    23577574.077   -19551305.636 7  13079046.161 8
 86  6 20  3 35 11.0800000  0  4G12G13G 9G 7
  20901092.186    20901096.228     5609723.067 8 -17477366.829 9
  21557986.321    21557988.341    -8000335.660 7  17362259.097 7
  23874429.051    23874427.588    -1868485.085 8  21998289.647 8
  23575352.937    23575355.452   -19562968.150 8  13069958.494 8
 86  6 20  3 35 17.0800000  0  4G12G13G 9G 7
  20902542.152    20902545.291     5617341.633 8 -17471430.295 7
  21559750.121    21559751.281    -7991068.161 5  17369480.523 4
  23879116.033    23879115.606    -1843856.034 8  22017481.092 6
                  23573139.845                    13060887.465 6
 86  6 20  3 35 23.0800000  0  4G12G13G 9G 7
  20903995.965    20903999.486     5624984.988 8 -17465474.446 7
  21561516.174    21561515.924    -7981797.413 5  17376704.479 6
  23883803.438    23883801.889    -1819223.793 8  22036675.049 8
  23570864.027    23570930.093   -19610927.449 8  13051838.442 7
 86  6 20  3 35 29.0800000  0  4G12G13G 9G 7
  20905454.522    20905458.709     5632653.031 7 -17459499.322 6
  21563278.446    21563280.505    -7972523.496 7  17383930.908 6
  23888491.209    23888488.836    -1794588.492 8  22055871.388 7
  23568725.334    23568726.272   -19622506.802 8  13042815.777 8
 86  6 20  3 35 35.0800000  0  4G12G13G 9G 7
  20906919.214    20906922.295     5640345.867 8 -17453504.912 6
  21565043.357    21565045.200    -7963246.370 6  17391159.837 7
  23893178.134    23893177.793    -1769950.017 7  22075070.195 6
  23566527.552    23566529.149   -19634053.784 8  13033818.530 7
 86  6 20  3 35 41.0800000  0  4G12G13G 9G 7
  20908389.144    20908391.163     5648063.442 8 -17447491.208 6
  21566810.655    21566809.860    -7953966.056 7  17398391.240 6
  23897867.554    23897865.656    -1745308.498 7  22094271.369 6
  23564336.193    23564335.347   -19645571.589 8  13024843.617 7
 86  6 20  3 35 47.0800000  0  4G12G13G 9G 7
  20909860.727    20909864.455     5655805.739 8 -17441458.261 7
  21568575.659    21568581.553    -7944682.544 5  17405625.145 7
  23902554.914    23902556.175    -1720663.957 7  22113474.918 7
  23562149.899    23562149.377   -19657065.445 8  13015887.362 8
 86  6 20  3 35 53.0800000  0  4G12G13G 9G 7
  20911339.267    20911342.651     5663572.691 7 -17435406.099 6
  21570344.156    21570345.873    -7935395.882 7  17412861.482 5
  23907246.188    23907246.717    -1696016.376 7  22132680.817 7
  23559965.661    23559965.045   -19668538.803 8  13006947.082 9
 86  6 20  3 35 59.0800000  0  4G12G13G 9G 7
  20912822.072    20912825.125     5671364.373 7 -17429334.664 6
  21572109.917    21572114.902    -7926106.100 5  17420100.301 6
  23911934.142    23911938.950    -1671365.838 6  22151889.016 5
  23557785.723    23557787.249   -19679994.063 8  12998020.904 7
 86  6 20  3 36  5.0800000  0  4G12G13G 9G 7
  20914310.584    20914312.785     5679180.743 8 -17423243.994 6
  21573880.558    21573883.662    -7916813.141 6  17427341.549 5
  23916626.195    23916628.716    -1646712.279 7  22171099.576 7
  23555608.025    23555608.885   -19691432.765 7  12989107.634 7
 86  6 20  3 36 11.0800000  0  4G12G13G 9G 7
  20915802.027    20915805.560     5687021.786 8 -17417134.082 6
  21575648.734    21575652.359    -7907517.063 5  17434585.245 6
  23921317.057    23921320.765    -1622055.801 7  22190312.412 7
  23553435.603    23553435.268   -19702854.239 8  12980207.773 6
 86  6 20  3 36 17.0800000  0  4G12G13G 9G 7
  20917299.309    20917300.744     5694887.482 8 -17411004.953 7
  21577418.321    21577423.273    -7898217.838 5  17441831.405 7
  23926007.925    23926013.875    -1597396.400 5  22209527.533 7
                  23551266.319                    12971325.086 7
 86  6 20  3 36 23.0800000  0  4G12G13G 9G 7
  20918801.846    20918803.768     5702777.820 8 -17404856.651 6
  21579189.121    21579192.379    -7888915.454 6  17449080.008 8
  23930701.644    23930707.101    -1572734.057 7  22228744.924 8
  23549045.211    23549103.865   -19750411.249 8  12962465.006 7
 86  6 20  3 36 29.0800000  0  4G12G13G 9G 7
  20920307.157    20920310.653     5710692.748 9 -17398689.167 7
  21580960.214    21580962.897    -7879609.945 5  17456331.054 7
  23935393.141    23935400.713    -1548068.990 7  22247964.474 8
  23546942.818    23546945.626   -19761747.605 9  12953631.398 7
 86  6 20  3 36 35.0800000  0  4G12G13G 9G 7
  20921817.475    20921821.449     5718632.249 8 -17392502.542 6
  21582732.165    21582733.942    -7870301.402 6  17463584.453 6
  23940088.766    23940095.250    -1523401.104 7  22267186.199 7
  23544791.365    23544795.391   -19773051.505 7  12944823.136 7
 86  6 20  3 36 41.0800000  0  4G12G13G 9G 7
  20923334.327    20923337.651     5726596.406 9 -17386296.691 7
  21584501.928    21584505.260    -7860989.729 5  17470840.311 7
  23944783.326    23944790.720    -1498730.350 6  22286410.169 7
  23542645.825    23542649.993   -19784326.916 7  12936037.113 8
 86  6 20  3 36 47.0800000  0  4G12G13G 9G 7
  20924854.961    20924856.203     5734585.188 8 -17380071.683 7
  21586274.434    21586278.667    -7851674.927 5  17478098.602 5
  23949478.847    23949485.823    -1474056.787 7  22305636.327 7
  23540504.932    23540510.028   -19795578.418 7  12927269.712 8
 86  6 20  3 36 53.0800000  0  4G12G13G 9G 7
  20926379.048    20926381.448     5742598.581 9 -17373827.475 8
  21588047.871    21588050.273    -7842357.078 5  17485359.247 6
  23954172.903    23954181.456    -1449380.547 6  22324864.546 7
  23538369.230    23538372.834   -19806809.411 8  12918518.279 7
 86  6 20  3 36 59.0800000  0  4G12G13G 9G 7
  20927908.846    20927912.179     5750636.579 8 -17367564.107 7
  21589821.675    21589824.302    -7833036.212 5  17492622.238 6
  23958869.260    23958876.760    -1424701.621 6  22344094.887 7
  23536233.765    23536239.058   -19818022.308 8  12909780.957 7
 86  6 20  3 37  5.0800000  0  4G12G13G 9G 7
  20929442.327    20929446.051     5758699.135 8 -17361281.579 7
  21591596.038    21591597.185    -7823712.251 6  17499887.669 6
  23963566.304    23963574.279    -1400019.923 7  22363327.372 7
  23534103.649    23534108.266   -19829218.545 7  12901056.610 7
 86  6 20  3 37 11.0800000  0  4G12G13G 9G 7
  20930981.371    20930983.469     5766786.274 8 -17354979.933 7
  21593370.484    21593372.756    -7814385.161 5  17507155.522 6
  23968264.504    23968271.125    -1375335.613 6  22382561.912 8
  23531976.721    23531980.834   -19840397.107 7  12892346.051 7
 86  6 20  3 37 17.0800000  0  4G12G13G 9G 7
  20932526.256    20932526.920     5774897.921 8 -17348659.167 8
  21595144.770    21595149.083    -7805054.951 5  17514425.802 4
  23972965.417    23972968.169    -1350648.562 6  22401798.570 6
                  23529859.231                    12883653.108 6
 86  6 20  3 37 23.0800000  0  4G12G13G 9G 7
  20934074.285    20934075.529     5783034.153 9 -17342319.250 8
  21596921.257    21596922.679    -7795721.760 5  17521698.409 6
  23977663.823    23977667.872    -1325958.908 7  22421037.273 8
  23527696.938    23527740.896   -19887878.696 9  12874983.283 7
 86  6 20  3 37 29.0800000  0  4G12G13G 9G 7
  20935626.171    20935628.768     5791194.893 9 -17335960.239 7
  21598697.624    21598701.425    -7786385.666 4  17528973.292 4
  23982363.431    23982365.311    -1301266.749 5  22440277.916 8
  23525626.427    23525630.396   -19898970.789 8  12866340.194 8
 86  6 20  3 37 35.0800000  0  4G12G13G 9G 7
  20937183.901    20937185.631     5799380.086 9 -17329582.180 7
  21600476.997    21600477.569    -7777046.490 6  17536250.574 6
  23987062.438    23987063.954    -1276571.916 6  22459520.627 8
  23523521.515    23523526.044   -19910029.678 7  12857722.507 7
 86  6 20  3 37 41.0800000  0  4G12G13G 9G 7
  20938745.898    20938748.598     5807589.688 8 -17323185.090 8
  21602253.849    21602257.088    -7767704.230 7  17543530.257 6
  23991761.388    23991762.707    -1251874.505 6  22478765.373 7
  23521421.824    23521426.996   -19921060.887 9  12849126.760 8
 86  6 20  3 37 47.0800000  0  4G12G13G 9G 7
  20940313.128    20940314.469     5815823.818 9 -17316768.895 8
  21604032.163    21604033.730    -7758359.019 6  17550812.247 6
  23996462.107    23996462.838    -1227174.552 7  22498012.088 8
  23519327.579    23519332.006   -19932068.224 8  12840549.617 8
 86  6 20  3 37 53.0800000  0  4G12G13G 9G 7
  20941884.213    20941887.959     5824082.445 8 -17310333.605 7
  21605812.637    21605812.931    -7749010.753 5  17558096.608 5
  24001164.050    24001163.208    -1202472.229 7  22517260.658 7
  23517237.665    23517241.132   -19943055.026 8  12831988.479 7
 86  6 20  3 37 59.0800000  0  4G12G13G 9G 7
  20943461.001    20943462.783     5832365.535 8 -17303879.245 6
  21607592.828    21607595.679    -7739659.518 6  17565383.301 6
  24005864.951    24005864.149    -1177767.326 7  22536511.234 6
  23515149.561    23515153.262   -19954023.787 7  12823441.400 6
 86  6 20  3 38  5.0800000  0  4G12G13G 9G 7
  20945041.914    20945044.591     5840673.096 8 -17297405.831 7
  21609371.141    21609373.237    -7730305.258 7  17572672.344 7
  24010566.568    24010566.639    -1153059.984 7  22555763.708 7
  23513065.609    23513069.736   -19964975.837 8  12814907.355 8
 86  6 20  3 38 11.0800000  0  4G12G13G 9G 7
  20946629.010    20946630.632     5849005.016 8 -17290913.423 9
  21611153.473    21611153.342    -7720948.004 6  17579963.721 6
  24015267.968    24015267.601    -1128350.165 7  22575018.102 8
  23510984.872    23510989.690   -19975909.772 8  12806387.407 9
 86  6 20  3 38 17.0800000  0  4G12G13G 9G 7
  20948218.964    20948221.076     5857361.290 9 -17284402.047 7
  21612935.533    21612936.970    -7711587.742 6  17587257.440 7
  24019971.880    24019970.514    -1103637.976 7  22594274.372 8
                  23508912.773                    12797885.833 8
 86  6 20  3 38 23.0800000  0  4G12G13G 9G 7
  20949813.958    20949815.667     5865741.988 8 -17277871.619 8
  21614713.864    21614717.884    -7702224.510 6  17594553.480 6
  24024675.117    24024672.987    -1078923.423 7  22613532.444 7
  23506838.674    23506841.713   -20023142.915 7  12789408.065 8
 86  6 20  3 38 29.0800000  0  4G12G13G 9G 7
  20951411.000    20951414.229     5874147.027 8 -17271322.242 8
  21616497.766    21616500.045    -7692858.305 6  17601851.813 7
  24029377.318    24029377.394    -1054206.643 7  22632792.278 8
  23504775.103    23504778.409   -20033988.352 7  12780957.113 8
 86  6 20  3 38 35.0800000  0  4G12G13G 9G 7
  20953016.613    20953017.864     5882576.453 7 -17264753.862 8
  21618281.245    21618281.454    -7683489.134 5  17609152.461 5
  24034081.121    24034081.387    -1029487.467 7  22652053.948 7
  23502716.974    23502721.100   -20044801.280 8  12772531.461 9
 86  6 20  3 38 41.0800000  0  4G12G13G 9G 7
  20954623.592    20954626.207     5891030.220 8 -17258166.507 8
  21620064.894    21620065.401    -7674117.055 6  17616455.395 6
  24038784.702    24038784.567    -1004766.069 6  22671317.376 7
  23500663.919    23500668.776   -20055586.248 7  12764127.585 8
 86  6 20  3 38 47.0800000  0  4G12G13G 9G 7
  20956237.237    20956238.436     5899508.381 8 -17251560.151 8
  21621848.451    21621851.744    -7664742.115 5  17623760.532 5
  24043490.085    24043490.603     -980042.312 7  22690582.629 7
  23498616.124    23498619.451   -20066347.558 7  12755742.148 8
 86  6 20  3 38 53.0800000  0  4G12G13G 9G 7
  20957855.693    20957856.215     5908010.855 8 -17244934.839 8
  21623631.741    21623634.117    -7655364.258 6  17631067.980 5
  24048194.238    24048196.352     -955316.350 6  22709849.629 7
  23496571.556    23496575.646   -20077088.382 8  12747372.677 8
 86  6 20  3 38 59.0800000  0  4G12G13G 9G 7
  20959477.707    20959479.795     5916537.636 7 -17238290.584 8
  21625417.082    21625420.367    -7645983.447 5  17638377.691 6
  24052900.634    24052900.625     -930588.150 7  22729118.347 7
  23494531.928    23494535.495   -20087811.102 7  12739017.308 8
 86  6 20  3 39  5.0800000  0  4G12G13G 9G 7
  20961104.317    20961106.745     5925088.749 7 -17231627.384 7
  21627201.729    21627208.194    -7636599.706 5  17645689.695 6
  24057606.899    24057607.284     -905857.799 8  22748388.736 7
  23492494.622    23492498.059   -20098516.823 7  12730675.186 8
 86  6 20  3 39 11.0800000  0  4G12G13G 9G 7
  20962735.680    20962738.351     5933664.094 8 -17224945.314 7
  21628987.227    21628990.400    -7627213.007 4  17653004.010 5
  24062313.616    24062314.482     -881125.254 7  22767660.855 7
  23490460.685    23490463.900   -20109204.099 7  12722347.437 8
 86  6 20  3 39 17.0800000  0  4G12G13G 9G 7
  20964373.228    20964375.243     5942263.777 8 -17218244.256 5
  21630775.459    21630777.656    -7617823.365 5  17660320.619 1
  24067021.134    24067018.907     -856390.624 7  22786934.586 6
                  23488434.308                    12714038.555 6
 86  6 20  3 39 23.0800000  0  4G12G13G 9G 7
  20966013.293    20966016.374     5950887.749 8 -17211524.276 6
  21632562.569    21632569.096    -7608430.868 3  17667639.425 5
  24071727.770    24071726.359     -831653.845 7  22806209.986 5
  23486407.403    23486410.016   -20156190.026 7  12705754.008 7
 86  6 20  3 39 29.0800000  0  4G12G13G 9G 7
  20967659.208    20967661.473     5959535.969 7 -17204785.425 7
  21634350.546    21634354.819    -7599035.477 2  17674960.521 6
  24076436.079    24076433.485     -806915.003 8  22825487.016 7
  23484391.791    23484395.053   -20166787.269 8  12697496.384 8
 86  6 20  3 39 35.0800000  0  4G12G13G 9G 7
  20969311.018    20969312.728     5968208.377 8 -17198027.693 5
  21636138.324    21636144.817    -7589637.235 1  17682283.833 5
  24081141.908    24081144.226     -782174.181 7  22844765.551 6
  23482381.253    23482385.729   -20177352.219 8  12689263.961 5
 86  6 20  3 39 41.0800000  0  4G12G13G 9G 7
  20970966.341    20970966.985     5976904.955 7 -17191251.165 6
  21637927.099    21637934.119    -7580236.134 1  17689609.348 5
  24085850.583    24085850.885     -757431.310 7  22864045.722 7
  23480375.858    23480378.921   -20187889.256 7  12681053.296 7
 86  6 20  3 39 47.0800000  0  4G12G13G 9G 7
  20972624.229    20972626.485     5985625.695 8 -17184455.769 7
  21639713.468    21639722.755    -7570832.203 1  17696937.100 3
  24090559.326    24090559.460     -732686.294 7  22883327.551 7
  23478375.369    23478378.610   -20198402.744 8  12672860.976 7
 86  6 20  3 39 53.0800000  0  4G12G13G 9G 7
  20974289.440    20974290.607     5994370.709 8 -17177641.468 7
  21641506.609    21641512.395    -7561425.286 1  17704267.126 5
  24095269.145    24095268.412     -707939.372 7  22902610.867 7
  23476379.627    23476382.404   -20208895.761 8  12664684.607 8
 86  6 20  3 39 59.0800000  0  4G12G13G 9G 7
  20975958.014    20975960.191     6003139.885 8 -17170808.353 7
  21643292.364    21643301.317    -7552015.518 1  17711599.423 4
  24099979.759    24099978.396     -683190.520 7  22921895.688 6
  23474387.672    23474389.834   -20219370.488 9  12656522.489 7
 86  6 20  3 40  5.0800000  0  4G12G13G 9G 7
  20977630.903    20977633.938     6011933.160 8 -17163956.449 7
  21645088.186    21645092.570    -7542602.897 2  17718933.920 5
  24104689.533    24104689.137     -658439.533 7  22941182.158 6
  23472398.943    23472400.647   -20229828.051 8  12648373.738 8
 86  6 20  3 40 11.0800000  0  4G12G13G 9G 7
  20979309.472    20979311.285     6020750.538 8 -17157085.767 6
  21646876.459    21646882.806    -7533187.479 1  17726270.618 4
  24109399.569    24109399.938     -633686.845 6  22960469.967 6
  23470412.447    23470412.942   -20240266.696 9  12640239.734 7
 86  6 20  3 40 17.0800000  0  4G12G13G 9G 7
  20980991.013    20980993.711     6029592.057 8 -17150196.267 6
  21648672.104    21648675.585    -7523769.177 1  17733609.544 3
  24114109.079    24114111.926     -608932.178 7  22979759.307 6
                  23468433.223                    12632125.192 7
 86  6 20  3 40 23.0800000  0  4G12G13G 9G 7
  20982678.222    20982679.901     6038457.728 8 -17143287.954 7
  21650463.542    21650468.808    -7514348.078 2  17740950.686 2
  24118820.341    24118822.495     -584175.643 6  22999050.116 6
  23466455.179    23466455.065   -20286831.783 8  12624035.413 7
 86  6 20  3 40 29.0800000  0  4G12G13G 9G 7
  20984369.855    20984373.309     6047347.457 9 -17136360.890 6
  21652261.523    21652256.434    -7504924.150 4  17748293.971 1
  24123531.122    24123533.591     -559417.251 6  23018342.349 6
  23464487.187    23464487.982   -20297178.916 8  12615972.686 6
 86  6 20  3 40 35.0800000  0  4G12G13G 9G 7
  20986065.835    20986067.626     6056261.337 8 -17129415.013 6
  21654052.851    21654054.635    -7495497.483 3  17755639.481 3
  24128243.608    24128244.680     -534657.221 6  23037635.879 7
  23462524.378    23462524.754   -20307494.347 8  12607935.093 9
 86  6 20  3 40 41.0800000  0  4G12G13G 9G 7
  20987767.520    20987768.544     6065199.281 8 -17122450.395 7
  21655850.026    21655847.441    -7486067.989 2  17762987.118 3
  24132955.327    24132956.734     -509895.307 7  23056930.875 8
  23460566.956    23460566.531   -20317781.599 8  12599919.056 8
 86  6 20  3 40 47.0800000  0  4G12G13G 9G 7
  20989473.314    20989475.262     6074161.242 8 -17115467.051 6
  21657645.918    21657644.994    -7476635.732 4  17770336.930 1
  24137668.386    24137670.715     -485131.641 6  23076227.224 7
  23458612.872    23458614.067   -20328045.503 8  12591921.199 6
 86  6 20  3 40 53.0800000  0  4G12G13G 9G 7
  20991183.587    20991184.120     6083147.274 8 -17108464.932 6
  21659439.318    21659441.351    -7467200.714 5  17777688.933 5
  24142381.857    24142382.506     -460366.290 7  23095524.905 7
  23456663.646    23456664.721   -20338288.844 7  12583939.379 7
 86  6 20  3 40 59.0800000  0  4G12G13G 9G 7
  20992897.872    20992898.382     6092157.315 9 -17101444.129 7
  21661233.926    21661235.911    -7457762.921 5  17785043.062 5
  24147092.958    24147094.837     -435599.229 6  23114823.921 7
  23454717.635    23454718.418   -20348514.016 8  12575971.707 8
 86  6 20  3 41  5.0800000  0  4G12G13G 9G 7
  20994616.330    20994618.297     6101191.380 8 -17094404.603 7
  21663030.746    21663033.699    -7448322.354 5  17792399.335 4
  24151806.120    24151808.514     -410830.464 7  23134124.240 7
  23452775.325    23452774.206   -20358721.915 7  12568017.515 7
 86  6 20  3 41 11.0800000  0  4G12G13G 9G 7
  20996339.497    20996342.339     6110249.513 8 -17087346.331 7
  21664829.397    21664829.161    -7438879.066 3  17799757.794 4
  24156521.039    24156522.935     -386060.015 6  23153425.889 8
  23450835.399    23450836.593   -20368910.332 8  12560078.473 7
 86  6 20  3 41 17.0800000  0  4G12G13G 9G 7
  20998068.367    20998070.742     6119331.667 8 -17080269.332 7
  21666624.942    21666627.349    -7429433.017 4  17807118.353 2
  24161233.760    24161236.864     -361287.967 7  23172728.780 6
                  23448902.041                    12552159.455 7
 86  6 20  3 41 23.0800000  0  4G12G13G 9G 7
  20999801.510    20999804.768     6128437.776 7 -17073173.665 8
  21668423.965    21668425.393    -7419984.179 4  17814481.055 4
  24165947.408    24165951.225     -336514.298 5  23192032.942 8
  23446973.532    23446974.227   -20415399.988 8  12544265.655 8
 86  6 20  3 41 29.0800000  0  4G12G13G 9G 7
  21001538.728    21001541.462     6137567.787 8 -17066059.370 8
  21670219.780    21670224.689    -7410532.664 2  17821845.882 4
  24170661.600    24170665.640     -311739.103 5  23211338.287 8
  23445052.689    23445054.505   -20425495.285 9  12536399.167 8
 86  6 20  3 41 35.0800000  0  4G12G13G 9G 7
  21003280.325    21003284.442     6146721.728 8 -17058926.428 7
  21672020.113    21672023.695    -7401078.431 5  17829212.846 6
  24175375.483    24175380.817     -286962.289 6  23230644.909 7
  23443137.393    23443139.470   -20435558.040 9  12528557.684 8
 86  6 20  3 41 41.0800000  0  4G12G13G 9G 7
  21005027.652    21005030.545     6155899.583 8 -17051774.840 8
  21673820.770    21673822.849    -7391621.557 3  17836581.861 5
  24180089.457    24180096.293     -262183.960 7  23249952.700 8
  23441227.862    23441229.631   -20445593.739 8  12520737.650 9
 86  6 20  3 41 47.0800000  0  4G12G13G 9G 7
  21006778.120    21006781.945     6165101.347 8 -17044604.646 7
  21675621.248    21675625.794    -7382161.910 1  17843952.998 1
  24184807.776    24184811.928     -237404.137 6  23269261.649 8
  23439322.975    23439324.152   -20455606.289 8  12512935.665 8
 86  6 20  3 41 53.0800000  0  4G12G13G 9G 7
  21008533.410    21008537.865     6174327.037 7 -17037415.795 5
  21677418.306    21677424.738    -7372699.576 1  17851326.300 2
  24189522.644    24189528.063     -212622.836 7  23288571.743 7
  23437421.455    23437423.629   -20465598.247 9  12505149.728 7
 86  6 20  3 41 59.0800000  0  4G12G13G 9G 7
  21010293.354    21010297.138     6183576.567 7 -17030208.365 7
  21679224.011    21679228.091    -7363234.521 1  17858701.657 2
  24194237.431    24194243.881     -187840.150 6  23307882.952 7
  23435523.425    23435525.153   -20475572.082 8  12497377.919 7
 86  6 20  3 42  5.0800000  0  4G12G13G 9G 7
  21012057.215    21012061.855     6192849.909 7 -17022982.381 7
  21681023.866    21681028.571    -7353766.720 1  17866079.147 1
  24198954.479    24198958.739     -163056.063 6  23327195.222 7
  23433630.215    23433631.469   -20485528.251 9  12489619.859 7
 86  6 20  3 42 11.0800000  0  4G12G13G 9G 7
  21013827.652    21013830.091     6202147.115 7 -17015737.803 7
  21682819.667    21682828.519    -7344296.236 1  17873458.703 3
  24203669.352    24203675.621     -138270.528 7  23346508.612 7
  23431738.512    23431740.986   -20495464.580 8  12481877.275 7
 86  6 20  3 42 17.0800000  0  4G12G13G 9G 7
  21015601.612    21015602.433     6211468.130 7 -17008474.677 7
  21684627.429    21684632.134    -7334823.167 1  17880840.285 1
  24208386.091    24208392.675     -113483.630 6  23365823.087 8
                  23429852.203   -20505374.504 8
 86  6 20  3 42 23.0800000  0  4G12G13G 9G 7
  21017378.177    21017381.708     6220812.911 8 -17001193.027 8
  21686433.001    21686435.469    -7325347.494 1  17888223.990 3
  24213105.291    24213110.994      -88695.376 6  23385138.599 7
  23427974.988    23427975.179   -20515251.918 7  12527063.967 8
 86  6 20  3 42 29.0800000  0  4G12G13G 9G 7
  21019162.460    21019164.032     6230181.556 8 -16993892.791 8
  21688234.727    21688241.011    -7315868.996 1  17895609.774 4
  24217821.492    24217827.478      -63905.897 6  23404455.089 7
  23426100.790    23426102.146   -20525093.721 9  12519395.036 8
 86  6 20  3 42 35.0800000  0  4G12G13G 9G 7
  21020949.044    21020950.206     6239574.015 7 -16986573.984 7
  21690039.650    21690041.165    -7306387.872 3  17902997.679 1
  24222540.623    24222543.410      -39115.073 6  23423772.614 6
  23424234.315    23424234.739   -20534903.056 8  12511750.993 8
 86  6 20  3 42 41.0800000  0  4G12G13G 9G 7
  21022742.450    21022743.339     6248990.335 8 -16979236.601 7
  21691845.062    21691846.809    -7296904.123 1  17910387.613 3
  24227257.935    24227262.201      -14322.950 6  23443091.154 7
  23422372.566    23422373.695   -20544685.708 9  12504128.151 8
 86  6 20  3 42 47.0800000  0  4G12G13G 9G 7
  21024538.847    21024539.288     6258430.479 8 -16971880.655 7
  21693646.754    21693652.335    -7287417.713 1  17917779.655 2
  24231974.811    24231981.444       10470.429 6  23462410.685 6
  23420514.455    23420515.407   -20554445.118 8  12496523.410 7
 86  6 20  3 42 53.0800000  0  4G12G13G 9G 7
  21026338.497    21026340.861     6267894.348 8 -16964506.221 7
  21695461.462    21695457.022    -7277928.647 1  17925173.705 1
  24236696.038    24236699.377       35265.047 5  23481731.138 7
  23418661.792    23418663.141   -20564184.077 7  12488934.619 7
 86  6 20  3 42 59.0800000  0  4G12G13G 9G 7
  21028146.406    21028145.584     6277381.874 8 -16957113.341 7
  21697257.524    21697265.713    -7268436.904 1  17932569.886 2
  24241414.116    24241417.238       60060.783 6  23501052.510 7
  23416811.832    23416812.781   -20573904.712 9  12481360.100 8
 86  6 20  3 43  5.0800000  0  4G12G13G 9G 7
  21029955.061    21029955.849     6286893.116 7 -16949702.001 7
  21699069.440    21699071.296    -7258942.499 1  17939968.138 1
  24246130.277    24246137.305       84857.792 5  23520374.833 6
  23414964.816    23414966.993   -20583607.590 8  12473799.400 6
 86  6 20  3 43 11.0800000  0  4G12G13G 9G 7
  21031769.607    21031769.555     6296428.033 8 -16942272.190 6
  21700870.590    21700883.351    -7249445.611 1  17947368.264 2
  24250847.778    24250856.233      109655.845 5  23539698.001 6
  23413123.195    23413123.548   -20593290.075 8  12466254.618 6
 86  6 20  3 43 17.0800000  0  4G12G13G 9G 7
  21033588.076    21033589.859     6305986.667 8 -16934823.901 5
  21702685.453    21702685.458    -7239946.063 1  17954770.467 1
  24255569.748    24255574.126      134455.093 6  23559022.080 6
                  23411286.109                    12458730.953 6
 86  6 20  3 43 23.0800000  0  4G12G13G 9G 7
  21035409.203    21035412.840     6315568.921 8 -16927357.233 5
  21704495.215    21704488.362    -7230444.024 1  17962174.648 1
  24260287.551    24260293.114      159255.450 6  23578347.036 6
  23409451.941    23409453.085   -20639187.847 8  12451233.352 7
 86  6 20  3 43 29.0800000  0  4G12G13G 9G 7
  21037238.673    21037243.281     6325174.815 8 -16919872.122 6
                  21706306.781    -7220939.370 1
  24265006.128    24265013.130      184056.787 7  23597672.747 6
  23407627.933    23407630.217   -20648774.544 7  12443763.231 5
 86  6 20  3 43 35.0800000  0  4G12G13G 9G 7
  21039070.388    21039074.552     6334804.349 7 -16912368.592 6
                  21708113.156    -7211432.228 1
  24269727.382    24269733.017      208859.239 6  23616999.339 6
  23405809.196    23405810.651   -20658329.941 7  12436317.859 6
 86  6 20  3 43 41.0800000  0  4G12G13G 9G 7
  21040907.740    21040912.158     6344457.533 8 -16904846.627 6
                  21709919.314    -7201922.419 1
  24274444.917    24274452.586      233662.750 7  23636326.745 6
  23403996.860    23403998.367   -20667857.636 8  12428893.669 5
 86  6 20  3 43 47.0800000  0  4G12G13G 9G 7
  21042749.149    21042753.859     6354134.296 8 -16897306.300 7
  21711731.616    21711841.510    -7192410.122 1  18106382.335 1
  24279166.190    24279172.791      258467.183 6  23655654.880 6
  23402188.836    23402188.142   -20677362.428 8  12421487.372 6
 86  6 20  3 43 53.0800000  0  4G12G13G 9G 7
  21044595.890    21044598.721     6363834.641 7 -16889747.590 7
  21713544.753    21713553.171    -7182895.109 3  18113796.751 1
  24283888.795    24283892.701      283272.586 6  23674983.763 8
  23400383.970    23400384.013   -20686846.796 9  12414096.953 6
 86  6 20  3 43 59.0800000  0  4G12G13G 9G 7
  21046447.475    21046448.866     6373558.537 8 -16882170.525 6
  21715354.549    21715351.319    -7173377.576 2  18121213.044 1
  24288607.698    24288613.349      308078.983 6  23694313.415 7
  23398582.815    23398583.757   -20696312.648 7  12406720.947 6
 86  6 20  3 44  5.0800000  0  4G12G13G 9G 7
  21048303.263    21048303.402     6383305.958 8 -16874575.139 8
  21717172.059    21717162.405    -7163857.429 1  18128631.333 2
  24293330.802    24293331.390      332886.261 5  23713643.762 7
  23396785.611    23396783.277   -20705760.611 8  12399358.902 7
 86  6 20  3 44 11.0800000  0  4G12G13G 9G 7
  21050162.974    21050164.085     6393076.918 8 -16866961.395 6
                  21718977.377    -7154334.855 1
  24298049.092    24298053.647      357694.449 5  23732974.806 6
  23394991.323    23394991.769   -20715187.628 8  12392013.173 6
 86  6 20  3 44 17.0800000  0  4G12G13G 9G 7
  21052026.829    21052026.820     6402871.438 8 -16859329.322 6
  21720791.403    21720827.920    -7144809.720 1  18182160.997 1
  24302772.590    24302774.376      382503.473 6  23752306.499 4
                  23393200.807                    12384689.140 4
 86  6 20  3 44 23.0800000  0  4G12G13G 9G 7
  21053894.356    21053893.074     6412689.469 9 -16851678.920 5
                  21722589.148    -7135299.105 1
  24307491.854    24307494.712      407313.287 5  23771638.845 6
  23391420.040    23391420.084   -20760910.403 8  12377391.647 4
 86  6 20  3 44 29.0800000  0  3G12G 9G 7
  21055767.344    21055766.351     6422530.978 9 -16844010.222 7
  24312214.872    24312216.668      432123.934 7  23790971.807 7
  23389643.516    23389644.559   -20770240.482 8  12370121.463 7
 86  6 20  3 44 35.0800000  0  4G12G13G 9G 7
  21057643.207    21057644.038     6432395.954 8 -16836323.227 7
                  19063471.474   -29589652.233 1
  24316936.012    24316937.282      456935.352 5  23810305.362 8
  23387875.341    23387878.695   -20779538.291 8  12362876.020 7
 86  6 20  3 44 41.0800000  0  4G12G13G 9G 7
  21059523.892    21059524.539     6442284.444 9 -16828617.913 7
                  19066679.565   -29617176.427 1
  24321657.576    24321659.599      481747.521 5  23829639.526 7
  23386110.282    23386112.281   -20788809.678 9  12355651.578 8
 86  6 20  3 44 47.0800000  0  4G12G13G 9G 7
  21061409.646    21061412.594     6452196.359 7 -16820894.356 6
                  19068163.142   -29644920.344 1
  24326377.395    24326380.505      506560.524 6  23848974.321 6
  23384350.719    23384353.848   -20798057.968 8  12348445.104 7
 86  6 20  3 44 53.0800000  0  4G12G13G 9G 7
  21063299.102    21063303.024     6462131.669 7 -16813152.550 6
                  19069882.733   -29670268.377 1
  24331102.341    24331103.654      531374.206 6  23868309.651 8
  23382595.011    23382596.824   -20807285.945 8  12341254.474 7
 86  6 20  3 44 59.0800000  0  4G12G13G 9G 7
  21065193.895    21065198.330     6472090.414 7 -16805392.495 6
                  19071081.641   -29735316.276 1
  24335824.037    24335824.620      556188.607 7  23887645.550 7
  23380841.685    23380846.917   -20816495.535 8  12334078.181 7
 86  6 20  3 45  5.0800000  0  4G12G13G 9G 7
  21067094.282    21067098.394     6482072.540 8 -16797614.208 8
                  19073925.450   -29762696.979 1
  24340544.817    24340548.442      581003.602 6  23906981.917 6
  23379093.007    23379096.957   -20825686.985 8  12326916.023 7
 86  6 20  3 45 11.0800000  0  4G12G13G 9G 7
  21068999.408    21069001.962     6492078.055 8 -16789817.705 6
                  19075496.943   -29790440.763 1
  24345267.594    24345268.495      605819.294 6  23926318.805 6
  23377349.412    23377353.745   -20834856.814 8  12319770.707 7
 86  6 20  3 45 17.0800000  0  4G12G13G 9G 7
  21070909.289    21070910.340     6502106.962 9 -16782002.962 7
                  19076535.674   -29817960.254 1
  24349992.072    24349991.765      630635.523 7  23945656.121 8
                  23375608.314   -20843998.231 7
 86  6 20  3 45 23.0800000  0  4G12G13G 9G 7
  21072821.812    21072823.685     6512159.216 8 -16774170.043 7
                  19079723.232   -29845698.215 1
  24354713.407    24354715.490      655452.372 6  23964993.920 6
  23373877.860    23373881.426   -20853105.166 7  12358971.207 7
 86  6 20  3 45 29.0800000  0  4G12G13G 9G 7
  21074738.632    21074740.628     6522234.785 8 -16766318.959 8
                  19080544.006   -29910609.634 1
  24359438.073    24359437.191      680269.834 7  23984332.206 8
  23372149.638    23372154.935   -20862177.007 7  12351902.249 9
 86  6 20  3 45 35.0800000  0  4G12G13G 9G 7
  21076661.820    21076662.546     6532333.729 9 -16758449.655 8
                  19083543.499   -29936611.609 1
  24364159.374    24364159.173      705087.792 6  24003670.889 6
  23370430.602    23370433.102   -20871217.286 8  12344857.879 8
 86  6 20  3 45 41.0800000  0  4G12G13G 9G 7
  21078587.837    21078587.288     6542455.937 8 -16750562.206 7
                  19085228.089   -29966523.501 1
  24368881.866    24368880.840      729906.245 8  24023009.935 5
  23368714.968    23368718.603   -20880230.954 8  12337834.244 8
 86  6 20  3 45 47.0800000  0  4G12G13G 9G 7
  21080518.403    21080518.426     6552601.471 8 -16742656.611 7
                  19086628.029   -29992740.078 1
  24373604.036    24373606.133      754725.241 7  24042349.413 7
  23367003.285    23367006.865   -20889221.562 8  12330828.580 8
 86  6 20  3 45 53.0800000  0  4G12G13G 9G 7
  21082452.574    21082453.571     6562770.255 7 -16734732.879 7
                  19087349.869   -30057653.086 1
  24378326.047    24378329.065      779544.723 6  24061689.261 5
  23365297.143    23365299.403   -20898191.694 8  12323838.875 7
 86  6 20  3 45 59.0800000  0  4G12G13G 9G 7
  21084392.023    21084393.433     6572962.274 8 -16726791.038 8
                  19090584.489   -30085174.932 1
  24383050.599    24383051.299      804364.588 7  24081029.423 7
  23363594.176    23363595.612   -20907143.325 8  12316863.569 8
 86  6 20  3 46  5.0800000  0  4G12G13G 9G 7
  21086335.212    21086335.171     6583177.548 8 -16718831.088 8
                  19092122.999   -30113565.651 1
  24387773.708    24387774.262      829184.865 7  24100369.908 7
  23361892.049    23361896.472   -20916076.481 8  12309902.672 7
 86  6 20  3 46 11.0800000  0  4G12G13G 9G 7
  21088284.502    21088284.343     6593415.962 8 -16710853.100 8
                  19093669.465   -30139782.202 1
  24392496.497    24392497.375      854005.591 8  24119710.713 7
  23360197.126    23360200.341   -20924987.561 7  12302958.978 8
 86  6 20  3 46 17.0800000  0  4G12G13G 9G 7
  21090236.479    21090237.582     6603677.633 9 -16702856.986 7
                  19094923.734   -30203316.535 1
  24397221.461    24397221.486      878826.769 7  24139051.892 7
                  23358510.326                    12296038.044 7
 86  6 20  3 46 23.0800000  0  4G12G13G 9G 7
  21092194.427    21092196.381     6613962.491 7 -16694842.815 8
                  19097589.936   -30230695.876 1
  24401941.537    24401945.958      903648.009 6  24158393.125 7
  23356823.187    23356826.734   -20970199.935 8  12289144.288 8
 86  6 20  3 46 29.0800000  0  4G12G13G 9G 7
  21094156.762    21094157.964     6624270.478 8 -16686810.615 8
                  19099165.708   -30256914.488 1
  24406666.598    24406668.581      928469.718 7  24177734.712 6
  23355145.940    23355149.020   -20979011.793 7  12282277.887 8
 86  6 20  3 46 35.0800000  0  4G12G13G 9G 7
  21096121.301    21096124.515     6634601.652 8 -16678760.346 8
                  19100709.854   -30285316.139 1
  24411391.356    24411390.774      953291.714 6  24197076.539 6
  23353475.715    23353478.546   -20987792.883 7  12275435.867 7
 86  6 20  3 46 41.0800000  0  4G12G13G 9G 7
  21098092.195    21098097.018     6644955.946 9 -16670692.060 8
                  19145125.587   -30312186.875 1
  24416111.146    24416116.297      978113.941 6  24216418.528 7
  23351809.390    23351812.370   -20996546.817 7  12268614.621 8
 86  6 20  3 46 47.0800000  0  4G12G13G 9G 7
  21100067.687    21100070.077     6655333.381 8 -16662605.746 7
                  19236308.154   -30302545.325 1
  24420836.053    24420838.087     1002936.464 7  24235760.754 6
  23350148.121    23350151.865   -21005277.860 7  12261811.214 7
 86  6 20  3 46 53.0800000  0  4G12G13G 9G 7
  21102047.393    21102049.749     6665733.858 7 -16654501.474 7
                  19319286.587   -30292897.217 1
  24425562.344    24425562.524     1027759.205 7  24255103.153 7
  23348491.155    23348494.328   -21013988.603 8  12255023.619 8
 86  6 20  3 46 59.0800000  0  4G12G13G 9G 7
  21104031.511    21104032.683     6676157.392 8 -16646379.247 8
                  19406953.856   -30283242.551 1
  24430284.343    24430286.171     1052582.139 6  24274445.703 8
  23346836.679    23346839.465   -21022680.745 8  12248250.543 8
 86  6 20  3 47  5.0800000  0  4G12G13G 9G 7
  21106019.367    21106020.709     6686603.989 8 -16638239.026 9
                  19183632.608   -30290851.626 1
  24435008.426    24435010.964     1077405.165 7  24293788.308 8
  23345186.009    23345190.235   -21031354.201 8  12241492.004 9
 86  6 20  3 47 11.0800000  0  4G12G13G 9G 7
  21108010.029    21108012.602     6697073.648 9 -16630080.854 8
                  19266214.677   -30298681.559 1
  24439731.375    24439735.412     1102228.331 6  24313131.032 6
                  23343543.676                    12234751.171 7
 86  6 20  3 47 17.0800000  0  4G12G13G 9G 7
  21110006.707    21110008.743     6707566.372 8 -16621904.716 8
                  19346452.327   -30306504.933 1
  24444454.118    24444458.737     1127051.618 6  24332473.863 6
  23341896.393    23341903.719   -21076366.008 7  12228033.524 7
 86  6 20  3 47 23.0800000  0  4G12G13G 9G 7
  21112007.287    21112010.586     6718082.103 8 -16613710.648 7
                  19133527.261   -30307219.305 1
  24449179.014    24449181.202     1151874.995 7  24351816.743 7
  23340267.053    23340269.697   -21084951.960 8  12221343.534 7
 86  6 20  3 47 29.0800000  0  4G12G13G 9G 7
  21114012.273    21114013.852     6728620.789 8 -16605498.696 7
                  19207561.049   -30296833.867 1
  24453905.128    24453905.817     1176698.416 6  24371159.693 7
  23338640.146    23338642.398   -21093502.460 8  12214680.821 7
 86  6 20  3 47 35.0800000  0  4G12G13G 9G 7
  21116022.133    21116023.828     6739182.402 8 -16597268.859 7
                  19291853.352   -30286441.871 1
  24458625.605    24458629.814     1201521.888 7  24390502.645 7
  23337021.148    23337021.042   -21102021.311 9  12208042.363 7
 86  6 20  3 47 41.0800000  0  4G12G13G 9G 7
  21118035.553    21118038.121     6749766.988 7 -16589021.146 8
                  19379955.334   -30276043.316 1
  24463347.844    24463354.465     1226345.411 7  24409845.648 7
  23335405.298    23335404.787   -21110514.255 7  12201424.490 9
 86  6 20  3 47 47.0800000  0  4G12G13G 9G 7
  21120052.464    21120056.563     6760374.523 8 -16580755.542 8
                  19174079.363   -30279751.838 1
  24468072.035    24468078.694     1251168.847 6  24429188.577 6
  23333792.527    23333792.703   -21118984.378 8  12194824.406 8
 86  6 20  3 47 53.0800000  0  4G12G13G 9G 7
  21122077.348    21122080.414     6771005.002 9 -16572472.062 7
                  19249796.740   -30288233.841 1
  24472798.327    24472801.317     1275992.231 6  24448531.481 7
  23332185.119    23332186.793   -21127434.099 8  12188240.207 8
 86  6 20  3 47 59.0800000  0  4G12G13G 9G 7
  21124103.952    21124107.610     6781658.348 8 -16564170.749 7
                  19328739.053   -30296709.286 1
  24477520.006    24477526.041     1300815.547 6  24467874.336 7
  23330581.057    23330579.894   -21135864.956 8  12181670.700 8
 86  6 20  3 48  5.0800000  0  4G12G13G 9G 7
  21126136.351    21126138.758     6792334.616 8 -16555851.596 8
                  19121289.243   -30300992.027 1
  24482243.996    24482250.258     1325638.874 7  24487217.183 8
  23328979.517    23328980.524   -21144276.994 8  12175115.880 9
 86  6 20  3 48 11.0800000  0  4G12G13G 9G 7
  21128171.501    21128173.975     6803033.804 8 -16547514.562 8
                  19216271.044   -30289862.701 1
  24486967.518    24486973.859     1350462.020 6  24506559.896 7
  23327381.666    23327384.500   -21152665.876 8  12168579.070 8
 86  6 20  3 48 17.0800000  0  4G12G13G 9G 7
  21130212.397    21130215.790     6813755.872 8 -16539159.717 8
                  19324149.189   -30278726.817 1
  24491692.024    24491697.644     1375285.025 7  24525902.511 8
                  23325792.083                    12162065.989 8
 86  6 20  3 48 23.0800000  0  4G12G13G 9G 7
  21132256.273    21132260.271     6824500.791 8 -16530787.050 7
                  19404480.422   -30267584.374 1
  24496413.857    24496420.344     1400107.932 7  24545245.031 8
  23324206.617    23324208.032   -21197358.811 7  12155580.556 9
 86  6 20  3 48 29.0800000  0  4G12G13G 9G 7
  21134306.169    21134309.609     6835268.496 8 -16522396.631 8
                  19199520.908   -30275717.351 1
  24501139.062    24501143.165     1424930.636 6  24564587.404 8
  23322629.647    23322630.613   -21205646.774 9  12149122.390 9
 86  6 20  3 48 35.0800000  0  4G12G13G 9G 7
  21136360.253    21136362.733     6846058.992 8 -16513988.468 7
                  19279216.526   -30284851.425 1
  24505861.193    24505867.265     1449753.104 6  24583929.576 7
  23321057.982    23321060.191   -21213904.295 8  12142688.350 7
 86  6 20  3 48 41.0800000  0  4G12G13G 9G 7
  21138417.712    21138421.866     6856872.243 7 -16505562.550 7
                  19372395.297   -30293978.940 1
  24510587.376    24510591.401     1474575.321 6  24603271.569 7
  23319491.949    23319493.740   -21222135.075 8  12136274.750 6
 86  6 20  3 48 47.0800000  0  4G12G13G 9G 7
  21140479.747    21140482.648     6867708.267 9 -16497118.900 7
                  19158602.284   -30290010.557 1
  24515311.195    24515314.511     1499397.193 6  24622613.286 6
  23317928.744    23317930.080   -21230343.047 8  12129878.922 8
 86  6 20  3 48 53.0800000  0  4G12G13G 9G 7
  21142546.368    21142548.732     6878567.043 8 -16488657.529 7
                  19265154.412   -30278137.342 1
  24520031.860    24520036.630     1524218.854 6  24641954.848 7
  23316371.703    23316371.867   -21238530.626 8  12123498.995 7
 86  6 20  3 48 59.0800000  0  4G12G13G 9G 7
  21144616.226    21144620.139     6889448.516 9 -16480178.476 6
                  19362624.336   -30266257.570 1
  24524757.185    24524760.578     1549040.222 6  24661296.163 6
  23314817.640    23314815.932   -21246699.473 8  12117133.647 7
 86  6 20  3 49  5.0800000  0  4G12G13G 9G 7
  21146690.617    21146694.104     6900352.674 8 -16471681.710 7
                  19159551.743   -30266016.470 1
  24529479.682    24529484.938     1573861.279 7  24680637.248 8
  23313266.562    23313265.903   -21254849.017 9  12110783.355 7
 86  6 20  3 49 11.0800000  0  4G12G13G 9G 7
  21148770.726    21148773.467     6911279.538 8 -16463167.281 7
                  19249086.648   -30275809.173 1
  24534202.459    24534208.405     1598682.028 6  24699978.079 7
                  23311720.707                    12104451.578 7
 86  6 20  3 49 17.0800000  0  4G12G13G 9G 7
  21150854.060    21150856.076     6922229.181 8 -16454635.089 7
                  19350050.592   -30285595.317 1
  24538928.339    24538932.316     1623502.345 6  24719318.593 7
  23310202.908    23310180.958   -21299344.546 8  12098144.014 7
 86  6 20  3 49 23.0800000  0  4G12G13G 9G 7
  21152942.229    21152944.040     6933201.446 8 -16446085.272 8
                  19155465.013   -30283877.138 1
  24543650.373    24543653.975     1648322.232 6  24738658.775 6
  23308645.504    23308646.883   -21307403.310 8  12091864.420 7
 86  6 20  3 49 29.0800000  0  4G12G13G 9G 7
  21155033.695    21155036.711     6944196.311 8 -16437517.841 8
                  19265087.448   -30271266.594 1
  24548373.150    24548378.048     1673141.736 6  24757998.638 8
  23307119.402    23307122.044   -21315427.300 9  12085611.971 7
 86  6 20  3 49 35.0800000  0  4G12G13G 9G 7
  21157131.713    21157131.911     6955213.837 9 -16428932.758 7
                  19359179.632   -30258649.492 1
  24553097.026    24553099.289     1697960.718 6  24777338.117 7
  23305598.774    23305600.414   -21323420.420 7  12079383.578 8
 86  6 20  3 49 41.0800000  0  4G12G13G 9G 7
  21159233.539    21159232.125     6966254.042 8 -16420330.005 8
                  19165029.089   -30257728.250 1
  24557817.434    24557822.127     1722779.256 7  24796677.238 7
  23304082.496    23304085.518   -21331387.391 9  12073175.560 8
 86  6 20  3 49 47.0800000  0  4G12G13G 9G 7
  21161338.177    21161339.390     6977316.830 8 -16411709.663 8
                  19255025.608   -30268179.581 1
  24562541.116    24562546.020     1747597.231 6  24816015.931 8
  23302571.064    23302574.521   -21339331.775 8  12066985.129 8
 86  6 20  3 49 53.0800000  0  4G12G13G 9G 7
  21163447.654    21163448.250     6988402.199 8 -16403071.724 7
                  19350004.016   -30278624.355 1
  24567263.167    24567268.200     1772414.681 7  24835354.196 8
  23301064.450    23301066.669   -21347255.656 8  12060810.675 6
 86  6 20  3 49 59.0800000  0  4G12G13G 9G 7
  21165561.377    21165563.115     6999510.123 8 -16394416.199 9
                  19142404.775   -30279067.166 1
  24571985.933    24571990.783     1797231.634 6  24854692.068 7
  23299559.856    23299562.527   -21355160.668 8  12054650.926 9
 86  6 20  3 50  5.0800000  0  4G12G13G 9G 7
  21167679.761    21167681.473     7010640.605 8 -16385743.103 8
                  19243084.251   -30265719.292 1
  24576710.588    24576712.876     1822047.997 7  24874029.495 8
  23298058.383    23298061.755   -21363046.095 8  12048506.449 9
 86  6 20  3 50 11.0800000  0  4G12G13G 9G 7
  21169801.444    21169803.992     7021793.535 8 -16377052.509 8
                  19344349.832   -30252364.859 1
  24581431.213    24581435.422     1846863.697 6  24893366.410 7
                  23296565.220                    12042381.113 8
 86  6 20  3 50 17.0800000  0  4G12G13G 9G 7
  21171926.963    21171931.801     7032968.995 8 -16368344.374 6
                  19154091.172   -30249455.842 1
  24586153.046    24586157.581     1871678.868 6  24912702.906 7
  23294995.339    23295075.900   -21407273.954 9  12036280.358 7
 86  6 20  3 50 23.0800000  0  4G12G13G 9G 7
  21174058.219    21174063.102     7044166.863 8 -16359618.766 6
                  19239274.365   -30260565.803 1
  24590874.616    24590878.441     1896493.307 6  24932038.829 7
  23293589.176    23293591.365   -21415067.170 7  12030207.943 6
 86  6 20  3 50 29.0800000  0  4G12G13G 9G 7
  21176193.702    21176196.939     7055387.248 8 -16350875.600 7
                  19321820.089   -30271669.206 1
  24595597.857    24595600.867     1921307.079 6  24951374.237 8
  23292112.125    23292115.101   -21422825.438 8  12024162.554 8
 86  6 20  3 50 35.0800000  0  4G12G13G 9G 7
  21178333.348    21178335.950     7066630.030 8 -16342114.989 7
                  19111357.466   -30280995.295 1
  24600317.761    24600322.062     1946120.060 7  24970709.037 8
  23290641.750    23290643.348   -21430553.082 8  12018141.000 8
 86  6 20  3 50 41.0800000  0  4G12G13G 9G 7
  21180476.877    21180481.241     7077895.309 7 -16333336.859 7
                  19215693.643   -30266910.091 1
  24605039.497    24605044.190     1970932.392 7  24990043.314 7
  23289174.483    23289175.879   -21438254.664 8  12012139.762 8
 86  6 20  3 50 47.0800000  0  4G12G13G 9G 7
  21182624.724    21182628.920     7089183.000 7 -16324541.257 9
                  19323548.034   -30252818.329 1
  24609761.697    24609765.144     1995744.070 6  25009377.075 8
  23287713.632    23287714.910   -21445933.733 8  12006156.063 7
 86  6 20  3 50 53.0800000  0  4G12G13G 9G 7
  21184776.756    21184782.305     7100493.096 8 -16315728.194 8
                  19124635.957   -30241488.550 1
  24614483.283    24614486.857     2020554.911 7  25028710.201 7
  23286255.726    23286257.914   -21453592.390 8  12000188.263 8
 86  6 20  3 50 59.0800000  0  4G12G13G 9G 7
  21186933.525    21186938.656     7111825.524 8 -16306897.735 8
                  19211743.352   -30253257.140 1
  24619205.672    24619208.066     2045364.860 7  25048042.640 8
  23284799.766    23284804.683   -21461232.221 7  11994235.155 8
 86  6 20  3 51  5.0800000  0  4G12G13G 9G 7
  21189094.381    21189097.942     7123180.309 8 -16298049.853 8
                  19298560.369   -30265019.172 1
  24623926.881    24623927.830     2070173.945 6  25067374.397 7
  23283349.683    23283355.003   -21468852.183 7  11988297.506 7
 86  6 20  3 51 11.0800000  0  4G12G13G 9G 7
  21191259.908    21191264.067     7134557.380 8 -16289184.591 9
                  19380688.550   -30276774.645 1
  24628646.333    24628650.510     2094982.267 7  25086705.559 9
                  23281909.123                    11982379.469 8
 86  6 20  3 51 17.0800000  0  4G12G13G 9G 7
  21193429.448    21193433.116     7145956.720 8 -16280301.999 9
                  19184694.813   -30268586.033 1
  24633368.664    24633371.794     2119789.688 7  25106036.030 8
  23280467.281    23280469.883   -21512813.071 8  11976486.587 8
 86  6 20  3 51 23.0800000  0  4G12G13G 9G 7
  21195602.318    21195606.531     7157378.355 8 -16271402.022 9
                  19291809.764   -30253756.941 1
  24638089.175    24638092.033     2144596.239 6  25125365.807 8
  23279034.788    23279038.480   -21520339.180 8  11970622.064 7
 86  6 20  3 51 29.0800000  0  4G12G13G 9G 7
  21197782.190    21197783.825     7168822.287 8 -16262484.674 9
                  19397461.399   -30238921.290 1
  24642809.497    24642812.407     2169401.822 7  25144694.834 8
  23277608.974    23277613.876   -21527830.210 8  11964784.508 9
 86  6 20  3 51 35.0800000  0  4G12G13G 9G 7
  21199962.072    21199966.104     7180288.381 8 -16253550.061 8
                  19194425.093   -30247721.761 1
  24647529.544    24647532.323     2194206.434 6  25164023.106 7
  23276190.950    23276194.640   -21535291.363 7  11958970.623 8
 86  6 20  3 51 41.0800000  0  4G12G13G 9G 7
  21202147.083    21202152.687     7191776.744 8 -16244598.093 8
                  19274962.237   -30260142.421 1
  24652248.521    24652252.925     2219010.072 7  25183350.616 8
  23274777.128    23274779.093   -21542726.718 8  11953176.862 8
 86  6 20  3 51 47.0800000  0  4G12G13G 9G 7
  21204337.409    21204341.573     7203287.346 8 -16235628.785 8
                  19371032.436   -30272556.524 1
  24656969.450    24656973.510     2243812.693 7  25202677.343 8
  23273367.577    23273369.634   -21550139.477 8  11947400.691 8
 86  6 20  3 51 53.0800000  0  4G12G13G 9G 7
  21206532.662    21206535.663     7214820.163 9 -16226642.180 9
                  19166136.325   -30266496.168 1
  24661689.240    24661692.204     2268614.289 7  25222003.261 8
  23271961.070    23271962.043   -21557531.933 8  11941640.331 8
 86  6 20  3 51 59.0800000  0  4G12G13G 9G 7
  21208729.716    21208733.162     7226375.191 7 -16217638.263 8
                  19274562.798   -30250929.746 1
  24666408.148    24666410.812     2293414.847 7  25241328.370 7
  23270557.424    23270558.778   -21564905.316 8  11935894.831 7
 86  6 20  3 52  5.0800000  0  4G12G13G 9G 7
  21210933.872    21210937.420     7237952.389 9 -16208617.069 7
                  19385921.784   -30235356.766 1
  24671125.900    24671129.849     2318214.400 7  25260652.705 8
  23269157.012    23269160.895   -21572258.327 8  11930165.226 8
 86  6 20  3 52 11.0800000  0  4G12G13G 9G 7
  21213141.532    21213144.755     7249551.720 9 -16199578.626 7
                  19178339.859   -30240330.399 1
  24675846.216    24675850.074     2343012.777 6  25279976.115 8
                  23267766.564                    11924455.671 7
 86  6 20  3 52 17.0800000  0  4G12G13G 9G 7
  21215353.251    21215355.607     7261173.185 8 -16190522.934 8
                  19271057.817   -30253409.689 1
  24680564.438    24680569.053     2367810.118 7  25299298.713 7
  23266375.386    23266377.116   -21615955.918 8  11918771.822 8
 86  6 20  3 52 23.0800000  0  4G12G13G 9G 7
  21217570.167    21217573.201     7272816.743 8 -16181450.028 7
                  19351471.757   -30266482.420 1
  24685282.786    24685286.983     2392606.264 6  25318620.394 7
  23264993.898    23264997.789   -21623213.813 8  11913116.255 9
 86  6 20  3 52 29.0800000  0  4G12G13G 9G 7
  21219790.774    21219792.805     7284482.488 8 -16172359.838 8
                  19140066.455   -30266912.466 1
  24690001.293    24690004.815     2417401.321 6  25337941.213 8
  23263618.736    23263623.100   -21630437.193 9  11907487.657 8
 86  6 20  3 52 35.0800000  0  4G12G13G 9G 7
  21222015.650    21222015.468     7296170.306 9 -16163252.449 9
                  19236619.447   -30250608.714 1
  24694718.713    24694722.273     2442195.179 5  25357261.099 7
  23262249.977    23262252.752   -21637630.473 8  11901882.507 8
 86  6 20  3 52 41.0800000  0  4G12G13G 9G 7
  21224241.820    21224244.432     7307880.122 8 -16154127.926 7
                  19327311.393   -30234298.403 1
  24699436.820    24699439.412     2466987.803 6  25376580.035 7
  23260885.795    23260888.300   -21644798.219 8  11896297.252 8
 86  6 20  3 52 47.0800000  0  4G12G13G 9G 7
  21226476.102    21226477.123     7319611.911 9 -16144986.286 7
                  19121524.326   -30220596.966 1
  24704153.479    24704157.611     2491779.170 6  25395897.993 7
  23259526.394    23259528.441   -21651943.309 8  11890729.655 8
 86  6 20  3 52 53.0800000  0  4G12G13G 9G 7
  21228712.212    21228714.002     7331365.687 9 -16135827.498 8
                  19205619.162   -30234334.885 1
  24708870.355    24708873.889     2516569.257 6  25415214.924 7
  23258172.058    23258173.866   -21659068.081 8  11885177.881 8
 86  6 20  3 52 59.0800000  0  4G12G13G 9G 7
  21230953.529    21230954.008     7343141.498 9 -16126651.546 6
                  19292646.025   -30248066.245 1
  24713588.508    24713590.757     2541358.021 6  25434530.852 5
  23256819.973    23256820.473   -21666173.637 8  11879641.091 8
 86  6 20  3 53  5.0800000  0  4G12G13G 9G 7
  21233198.025    21233200.309     7354939.288 8 -16117458.470 7
                  19366195.273   -30261791.047 1
  24718304.658    24718308.938     2566145.475 5  25453845.747 7
  23255472.762    23255473.449   -21673258.583 8  11874120.336 8
 86  6 20  3 53 11.0800000  0  4G12G13G 9G 7
  21235444.713    21235449.596     7366759.114 8 -16108248.211 7
                  19147023.175   -30258376.250 1
  24723023.068    24723025.514     2590931.591 5  25473159.635 8
                  23254130.508                    11868619.947 7
 86  6 20  3 53 17.0800000  0  4G12G13G 9G 7
  21237698.169    21237702.623     7378600.913 7 -16099020.843 8
                  19244010.879   -30241328.610 1
  24727735.308    24727740.576     2615716.427 6  25492472.458 7
  23252793.597    23252792.480   -21716683.475 8  11863145.490 8
 86  6 20  3 53 23.0800000  0  4G12G13G 9G 7
  21239956.008    21239960.773     7390464.583 8 -16089776.426 7
                  19323415.449   -30224274.411 1
  24732453.306    24732456.800     2640499.730 6  25511784.132 8
  23251464.654    23251461.878   -21723672.291 7  11857699.652 7
 86  6 20  3 53 29.0800000  0  4G12G13G 9G 7
  21242218.016    21242222.059     7402350.151 8 -16080514.934 8
                  19407803.167   -30207213.654 1
  24737172.380    24737172.446     2665281.727 7  25531094.777 8
  23250142.314    23250138.855   -21730627.109 9  11852280.699 9
 86  6 20  3 53 35.0800000  0  4G12G13G 9G 7
  21244485.372    21244487.641     7414257.515 7 -16071236.470 8
                  19202215.049   -30217105.347 1
  24741887.363    24741887.330     2690062.163 6  25550404.211 7
  23248824.436    23248821.732   -21737551.456 9  11846885.101 8
 86  6 20  3 53 41.0800000  0  4G12G13G 9G 7
  21246755.082    21246757.455     7426186.647 8 -16061941.033 8
                  19292342.385   -30231488.779 1
  24746601.492    24746603.809     2714841.178 7  25569712.535 8
  23247512.399    23247510.266   -21744450.351 8  11841509.337 8
 86  6 20  3 53 47.0800000  0  4G12G13G 9G 7
  21249029.336    21249030.888     7438137.662 8 -16052628.557 7
                  19378954.494   -30245865.651 1
  24751317.406    24751318.593     2739618.654 6  25589019.657 7
  23246202.851    23246200.598   -21751326.833 9  11836151.030 8
 86  6 20  3 53 53.0800000  0  4G12G13G 9G 7
  21251308.373    21251308.849     7450110.599 8 -16043298.989 7
                  19163267.203   -30239538.580 1
  24756030.660    24756033.856     2764394.635 6  25608325.595 6
  23244898.214    23244895.138   -21758182.905 9  11830808.624 7
 86  6 20  3 53 59.0800000  0  4G12G13G 9G 7
  21253592.398    21253591.639     7462105.290 8 -16033952.476 7
                  19243692.590   -30221747.051 1
  24760745.035    24760747.684     2789169.080 6  25627630.365 7
  23243596.498    23243595.983   -21765019.850 9  11825481.133 9
 86  6 20  3 54  5.0800000  0  4G12G13G 9G 7
  21255879.499    21255877.459     7474121.731 8 -16024589.021 8
                  19326462.395   -30203948.964 1
  24765460.572    24765461.336     2813941.935 6  25646933.877 6
  23242298.740    23242300.071   -21771835.719 9  11820170.072 8
 86  6 20  3 54 11.0800000  0  4G12G13G 9G 7
  21258170.266    21258168.002     7486160.008 8 -16015208.552 7
                  19418903.828   -30186144.319 1
  24770175.279    24770176.603     2838713.281 5  25666236.237 7
                  23241007.521                    11814879.913 7
 86  6 20  3 54 17.0800000  0  4G12G13G 9G 7
  21260464.216    21260463.089     7498220.013 9 -16005811.154 8
                  19221731.315   -30201087.922 1
  24774889.036    24774889.688     2863483.048 6  25685537.347 8
  23239718.634    23239723.537   -21814997.874 8  11809616.160 8
 86  6 20  3 54 23.0800000  0  4G12G13G 9G 7
  21262763.474    21262761.795     7510301.696 8 -15996396.875 7
                  19309684.197   -30216123.424 1
  24779599.393    24779604.148     2888251.055 6  25704837.098 6
  23238439.531    23238443.974   -21821716.263 9  11804381.086 7
 86  6 20  3 54 29.0800000  0  4G12G13G 9G 7
  21265065.339    21265065.893     7522405.047 8 -15986965.679 7
                  19402912.018   -30231152.367 1
  24784316.086    24784315.004     2913017.468 5  25724135.592 7
  23237166.904    23237172.775   -21828400.326 8  11799172.727 7
 86  6 20  3 54 35.0800000  0  4G12G13G 9G 7
  21267372.110    21267373.521     7534530.168 8 -15977517.540 7
                  19197557.084   -30215184.482 1
  24789024.927    24789028.354     2937782.244 6  25743432.804 7
  23235899.615    23235906.966   -21835054.691 8  11793987.511 7
 86  6 20  3 54 41.0800000  0  4G12G13G 9G 7
  21269682.558    21269684.264     7546676.901 8 -15968052.551 8
                  19293069.797   -30196649.065 1
  24793739.302    24793741.619     2962545.400 6  25762728.770 7
  23234638.069    23234645.863   -21841683.626 8  11788822.117 8
 86  6 20  3 54 47.0800000  0  3G12G13G 7
  21271998.528    21272001.805     7558845.275 8 -15958570.707 8
                  19396787.973   -30178107.090 1
  23233379.673    23233389.207   -21848290.080 8  11783674.241 9
 86  6 20  3 54 53.0800000  0  3G12G13G 7
  21274319.303    21274322.408     7571035.289 8 -15949072.005 7
                  19205071.538   -30185941.982 1
  23232127.130    23232134.384   -21854876.152 8  11778542.236 8
 86  6 20  3 54 59.0800000  0  3G12G13G 7
  21276644.179    21276645.014     7583246.801 7 -15939556.523 8
                  19304619.116   -30201636.112 1
  23230878.166    23230883.495   -21861442.981 7  11773425.233 9
 86  6 20  3 55  5.0800000  0  3G12G13G 7
  21278971.295    21278972.601     7595480.035 8 -15930024.154 7
                  19408858.433   -30217323.685 1
  23229633.219    23229638.142   -21867988.301 7  11768324.994 8
 86  6 20  3 55 11.0800000  0  3G12G13G 7
  21281303.104    21281304.983     7607734.705 8 -15920475.047 8
                  19204518.809   -30199094.154 1
                  23228397.011                    11763246.255 8
 86  6 20  3 55 17.0800000  0  3G12G13G 7
  21283640.799    21283641.903     7620010.925 8 -15910909.159 8
                  19308376.445   -30179821.407 1
  23227160.992    23227162.769   -21910883.680 7  11758194.439 9
 86  6 20  3 55 23.0800000  0  3G12G13G 7
  21285980.093    21285981.725     7632308.564 8 -15901326.582 8
                  19409598.812   -30160542.102 1
  23225934.284    23225936.718   -21917330.030 8  11753171.327 9
 86  6 20  3 55 29.0800000  0  3G12G13G 7
  21288325.312    21288326.540     7644627.691 9 -15891727.256 9
                  19200076.758   -30171091.367 1
  23224715.839    23224714.910   -21923741.930 7  11748174.639 9
 86  6 20  3 55 35.0800000  0  3G12G13G 7
  21290671.793    21290675.574     7656968.443 8 -15882111.106 9
                  19288655.523   -30187444.127 1
  23223499.949    23223500.773   -21930124.733 9  11743201.030 8
 86  6 20  3 55 41.0800000  0  3G12G13G 7
  21293024.107    21293027.093     7669330.557 8 -15872478.279 9
                  19382512.020   -30203790.329 1
  23222289.897    23222290.101   -21936482.423 8  11738246.982 9
 86  6 20  3 55 47.0800000  0  3G12G13G 7
  21295381.078    21295385.129     7681714.240 8 -15862828.671 9
                  19173202.117   -30197827.271 1
  23221084.158    23221084.399   -21942817.506 9  11733310.541 8
 86  6 20  3 55 53.0800000  0  3G12G13G 7
  21297741.862    21297743.934     7694119.235 8 -15853162.435 8
                  19264305.023   -30177817.194 1
  23219881.157    23219882.925   -21949132.551 8  11728389.734 9
 86  6 20  3 55 59.0800000  0  3G12G13G 7
  21300105.850    21300108.683     7706545.635 9 -15843479.530 8
                  19357167.976   -30157800.559 1
  23218683.896    23218685.394   -21955428.079 8  11723484.129 9
 86  6 20  3 56  5.0800000  0  3G12G13G 7
  21302475.091    21302477.079     7718993.455 9 -15833779.929 8
                  19149050.194   -30148655.231 1
  23217488.935    23217490.877   -21961701.794 8  11718595.511 8
 86  6 20  3 56 11.0800000  0  3G12G13G 7
  21304846.813    21304850.582     7731462.493 9 -15824063.797 8
                  19231350.372   -30165666.620 1
                  23216303.658                    11713728.794 8
 86  6 20  3 56 17.0800000  0  3G12G13G 7
  21307224.810    21307226.734     7743952.990 7 -15814330.945 9
                  19332112.841   -30182671.450 1
  23215117.584    23215120.585   -22004322.591 7  11708889.330 8
 86  6 20  3 56 23.0800000  0  3G12G13G 7
  21309604.427    21309607.771     7756464.698 8 -15804581.564 8
                  19126331.905   -30195128.330 1
  23213943.596    23213947.447   -22010496.466 7  11704078.500 9
 86  6 20  3 56 29.0800000  0  3G12G13G 7
  21311989.313    21311992.508     7768997.837 8 -15794815.482 8
                  19231056.876   -30174380.923 1
  23212774.744    23212778.889   -22016636.971 9  11699294.085 7
 86  6 20  3 56 35.0800000  0  3G12G13G 7
  21314379.310    21314383.071     7781552.186 9 -15785032.871 7
                  19328748.593   -30153626.958 1
  23211612.630    23211615.003   -22022747.666 8  11694532.508 8
 86  6 20  3 56 41.0800000  0  3G12G13G 7
  21316770.789    21316776.226     7794127.739 9 -15775233.754 7
                  19134120.743   -30136723.078 1
  23210456.323    23210459.742   -22028833.146 7  11689790.567 7
 86  6 20  3 56 47.0800000  0  3G12G13G 7
  21319168.971    21319173.363     7806724.581 9 -15765418.014 8
                  19217761.692   -30154393.095 1
  23209301.399    23209304.237   -22034896.196 7  11685066.110 8
 86  6 20  3 56 53.0800000  0  3G12G13G 7
  21321570.460    21321574.061     7819342.518 7 -15755585.865 7
                  19298472.118   -30172056.555 1
  23208151.531    23208155.218   -22040938.991 8  11680357.452 8
 86  6 20  3 56 59.0800000  0  3G12G13G 7
  21323976.287    21323979.012     7831981.759 8 -15745737.102 7
                  19387096.244   -30189713.456 1
  23207006.338    23207008.985   -22046961.985 8  11675664.205 7
 86  6 20  3 57  5.0800000  0  3G12G13G 7
  21326385.977    21326387.551     7844642.165 8 -15735871.854 9
                  19183019.692   -30182434.631 1
  23205864.667    23205866.111   -22052962.879 8  11670988.188 8
 86  6 20  3 57 11.0800000  0  3G12G13G 7
  21328798.027    21328801.556     7857323.759 8 -15725990.101 8
                  19282611.383   -30160943.336 1
                  23204729.308                    11666334.661 6
 86  6 20  3 57 17.0800000  0  3G12G13G 7
  21331215.708    21331220.382     7870026.483 8 -15716091.875 9
                  19382203.074   -30139445.483 1
  23203596.895    23203598.944   -22095309.144 8  11661708.599 8
 86  6 20  3 57 23.0800000  0  3G12G13G 7
  21333636.072    21333639.183     7882750.167 9 -15706177.308 6
                  19167075.414   -30137871.003 1
  23202476.268    23202474.285   -22101209.307 8  11657111.086 6
 86  6 20  3 57 29.0800000  0  3G12G13G 7
  21336061.586    21336065.932     7895495.066 9 -15696246.219 8
                  19249419.664   -30156193.092 1
  23201359.695    23201358.000   -22107075.225 8  11652539.858 7
 86  6 20  3 57 35.0800000  0  3G12G13G 7
  21338491.003    21338494.243     7908260.874 8 -15686298.825 8
                  19333815.280   -30174508.622 1
  23200246.916    23200246.792   -22112912.678 9  11647991.196 8
 86  6 20  3 57 41.0800000  0  3G12G13G 7
  21340922.941    21340928.081     7921047.820 8 -15676334.985 8
                  19129286.961   -30188075.335 1
  23199141.179    23199140.257   -22118725.057 8  11643462.061 7
 86  6 20  3 57 47.0800000  0  3G12G13G 7
  21343359.998    21343364.086     7933855.771 8 -15666354.756 7
                  19226674.151   -30165846.711 1
  23198039.457    23198038.419   -22124514.976 7  11638950.423 7
 86  6 20  3 57 53.0800000  0  3G12G13G 7
  21345802.626    21345804.126     7946684.666 7 -15656358.219 7
                  19341939.273   -30143611.528 1
  23196940.378    23196941.614   -22130284.785 7  11634454.479 7
 86  6 20  3 57 59.0800000  0  3G12G13G 7
  21348249.008    21348250.369     7959534.717 8 -15646345.181 7
                  19147556.833   -30130041.752 1
  23195846.466    23195846.593   -22136034.640 8  11629974.062 8
 86  6 20  3 58  5.0800000  0  3G12G13G 7
  21350697.764    21350698.835     7972405.541 9 -15636315.980 8
                  19243256.996   -30149022.470 1
  23194756.033    23194758.052   -22141762.132 8  11625511.087 7
 86  6 20  3 58 11.0800000  0  3G12G13G 7
  21353150.778    21353152.003     7985297.462 8 -15626270.333 8
                  19351558.407   -30167996.629 1
                  23193674.902                    11621071.106 7
 86  6 20  3 58 17.0800000  0  3G12G13G 7
  21355608.292    21355609.250     7998210.231 8 -15616208.456 7
                  19157480.897   -30169760.054 1
  23192592.193    23192594.888   -22183830.624 7  11616658.769 6
 86  6 20  3 58 23.0800000  0  3G12G13G 7
  21358068.090    21358070.321     8011143.900 9 -15606130.278 7
                  19267901.499   -30146794.100 1
  23191523.061    23191526.516   -22189456.148 7  11612275.243 7
 86  6 20  3 58 29.0800000  0  3G12G13G 7
  21360533.551    21360536.694     8024098.500 8 -15596035.792 7
                  19364843.887   -30123821.586 1
  23190459.429    23190463.071   -22195048.147 6  11607917.848 7
 86  6 20  3 58 35.0800000  0  3G12G13G 7
  21363003.057    21363005.676     8037073.851 9 -15585925.130 8
                  19166502.446   -30117196.432 1
  23189400.651    23189404.921   -22200611.367 7  11603582.878 7
 86  6 20  3 58 41.0800000  0  3G12G13G 7
  21365475.333    21365478.722     8050070.206 8 -15575798.102 8
                  19255922.779   -30136835.778 1
  23188347.468    23188350.314   -22206149.804 7  11599267.226 7
 86  6 20  3 58 47.0800000  0  3G12G13G 7
  21367952.235    21367957.956     8063087.318 8 -15565654.917 8
                  19349154.035   -30156468.567 1
  23187297.852    23187300.244   -22211665.800 7  11594969.026 7
 86  6 20  3 58 53.0800000  0  3G12G13G 7
  21370433.590    21370436.763     8076125.215 9 -15555495.508 7
                  19137129.166   -30167848.858 1
  23186251.239    23186254.677   -22217161.467 7  11590686.703 7
 86  6 20  3 58 59.0800000  0  3G12G13G 7
  21372919.942    21372923.242     8089183.886 9 -15545319.917 7
                  19228056.928   -30144145.574 1
  23185210.350    23185212.208   -22222637.199 7  11586419.885 8
 86  6 20  3 59  5.0800000  0  3G12G13G 7
  21375409.394    21375412.309     8102263.292 8 -15535128.168 6
                  19320743.004   -30120435.731 1
                  23184175.367                    11582171.251 6
 86  6 20  3 59 11.0800000  0  2G12G13
  21377901.228    21377903.319     8115363.554 9 -15524920.173 6
                  19418119.748   -30096719.330 1
 86  6 20  3 59 17.0800000  0  3G12G13G 7
  21380398.384    21380400.114     8128484.389 9 -15514696.153 6
                  19205762.479   -30109842.031 1
  23182116.970    23182119.772   -22269884.290 8  11573748.091 7
 86  6 20  3 59 23.0800000  0  3G12G13G 7
  21382899.459    21382901.606     8141625.920 8 -15504455.985 7
                  19304144.185   -30130133.448 1
  23181100.141    23181100.640   -22275234.087 8  11569579.424 7
 86  6 20  3 59 29.0800000  0  3G12G13G 7
  21385403.235    21385406.867     8154788.099 8 -15494199.755 6
                  19397837.056   -30150418.307 1
  23180088.452    23180089.898   -22280550.670 8  11565436.646 7
 86  6 20  3 59 35.0800000  0  3G12G13G 7
  21387912.319    21387915.685     8167970.970 7 -15483927.382 7
                  19176826.347   -30138185.816 1
  23179082.259    23179083.891   -22285838.697 7  11561316.097 8
 86  6 20  3 59 41.0800000  0  3G12G13G 7
  21390423.484    21390428.461     8181174.535 8 -15473638.896 8
                  19271705.449   -30113738.644 1
  23178081.226    23178082.123   -22291101.938 9  11557214.864 8
 86  6 20  3 59 47.0800000  0  3G12G13G 7
  21392940.090    21392943.767     8194398.660 8 -15463334.397 8
                  19370980.335   -30089284.913 1
  23177083.435    23177086.023   -22296343.068 9  11553130.864 7
